Wetterdaten: Montag, 03.12.2018
Datum Zeit Temp. A. Feuchte A. Luftdruck Regen Wind Richtung Richtung Sonnenschein ET UV Solar Taupunkt Windchill Windböen
03.12.2018 00:00 8,4 °C 93 % 1009,6 hPa 0,2 mm 5,9 km/h (2 Bft) W 265 ° 0 min 0,000 mm 0,0 UV-I 0 W/m² 7,3 °C 7,7 °C 11,3 km/h (2 Bft)
03.12.2018 00:01 8,4 °C 93 % 1009,6 hPa 0,0 mm 6,3 km/h (2 Bft) W-SW 257 ° 0 min 0,000 mm 0,0 UV-I 0 W/m² 7,3 °C 7,5 °C 9,7 km/h (2 Bft)
03.12.2018 00:02 8,5 °C 93 % 1009,6 hPa 0,0 mm 8,2 km/h (2 Bft) W 269 ° 0 min 0,000 mm 0,0 UV-I 0 W/m² 7,4 °C 7,2 °C 12,9 km/h (3 Bft)
03.12.2018 00:03 8,5 °C 93 % 1009,5 hPa 0,0 mm 5,9 km/h (2 Bft) SW 214 ° 0 min 0,000 mm 0,0 UV-I 0 W/m² 7,4 °C 7,8 °C 11,3 km/h (2 Bft)
03.12.2018 00:04 8,5 °C 93 % 1009,5 hPa 0,0 mm 4,6 km/h (1 Bft) W-SW 250 ° 0 min 0,000 mm 0,0 UV-I 0 W/m² 7,4 °C 8,2 °C 8,0 km/h (2 Bft)
03.12.2018 00:05 8,6 °C 93 % 1009,5 hPa 0,0 mm 2,5 km/h (1 Bft) W-SW 250 ° 0 min 0,000 mm 0,0 UV-I 0 W/m² 7,5 °C 8,6 °C 4,8 km/h (1 Bft)
03.12.2018 00:06 8,6 °C 93 % 1009,6 hPa 0,0 mm 3,5 km/h (1 Bft) W-SW 246 ° 0 min 0,000 mm 0,0 UV-I 0 W/m² 7,5 °C 8,6 °C 9,7 km/h (2 Bft)
03.12.2018 00:07 8,6 °C 93 % 1009,6 hPa 0,0 mm 3,1 km/h (1 Bft) S 190 ° 0 min 0,000 mm 0,0 UV-I 0 W/m² 7,5 °C 8,6 °C 6,4 km/h (2 Bft)
03.12.2018 00:08 8,6 °C 93 % 1009,7 hPa 0,0 mm 4,2 km/h (1 Bft) W 260 ° 0 min 0,000 mm 0,0 UV-I 0 W/m² 7,5 °C 8,6 °C 9,7 km/h (2 Bft)
03.12.2018 00:09 8,6 °C 93 % 1009,5 hPa 0,0 mm 7,6 km/h (2 Bft) SW 234 ° 0 min 0,000 mm 0,0 UV-I 0 W/m² 7,5 °C 7,5 °C 11,3 km/h (2 Bft)
03.12.2018 00:10 8,6 °C 92 % 1009,6 hPa 0,0 mm 5,0 km/h (1 Bft) W 271 ° 0 min 0,000 mm 0,0 UV-I 0 W/m² 7,4 °C 8,2 °C 9,7 km/h (2 Bft)
03.12.2018 00:11 8,6 °C 92 % 1009,5 hPa 0,0 mm 8,4 km/h (2 Bft) W-SW 248 ° 0 min 0,000 mm 0,0 UV-I 0 W/m² 7,4 °C 7,3 °C 14,5 km/h (3 Bft)
03.12.2018 00:12 8,6 °C 92 % 1009,6 hPa 0,0 mm 6,7 km/h (2 Bft) SW 224 ° 0 min 0,000 mm 0,0 UV-I 0 W/m² 7,4 °C 7,7 °C 12,9 km/h (3 Bft)
03.12.2018 00:13 8,6 °C 92 % 1009,6 hPa 0,0 mm 3,6 km/h (1 Bft) S-SW 200 ° 0 min 0,000 mm 0,0 UV-I 0 W/m² 7,4 °C 8,6 °C 6,4 km/h (2 Bft)
03.12.2018 00:14 8,6 °C 92 % 1009,6 hPa 0,0 mm 5,2 km/h (1 Bft) W-NW 288 ° 0 min 0,000 mm 0,0 UV-I 0 W/m² 7,4 °C 8,1 °C 12,9 km/h (3 Bft)
03.12.2018 00:15 8,6 °C 92 % 1009,6 hPa 0,0 mm 7,9 km/h (2 Bft) SW 221 ° 0 min 0,000 mm 0,0 UV-I 0 W/m² 7,4 °C 7,4 °C 14,5 km/h (3 Bft)
03.12.2018 00:16 8,6 °C 92 % 1009,6 hPa 0,2 mm 6,4 km/h (2 Bft) SW 232 ° 0 min 0,000 mm 0,0 UV-I 0 W/m² 7,4 °C 7,8 °C 11,3 km/h (2 Bft)
03.12.2018 00:17 8,6 °C 92 % 1009,7 hPa 0,0 mm 4,8 km/h (1 Bft) W-NW 286 ° 0 min 0,000 mm 0,0 UV-I 0 W/m² 7,4 °C 8,2 °C 6,4 km/h (2 Bft)
03.12.2018 00:18 8,7 °C 92 % 1009,7 hPa 0,0 mm 9,0 km/h (2 Bft) S 188 ° 0 min 0,000 mm 0,0 UV-I 0 W/m² 7,5 °C 7,3 °C 14,5 km/h (3 Bft)
03.12.2018 00:19 8,6 °C 92 % 1009,5 hPa 0,0 mm 5,4 km/h (1 Bft) W-SW 240 ° 0 min 0,000 mm 0,0 UV-I 0 W/m² 7,4 °C 8,0 °C 11,3 km/h (2 Bft)
03.12.2018 00:20 8,7 °C 92 % 1009,5 hPa 0,2 mm 5,7 km/h (1 Bft) W 269 ° 0 min 0,000 mm 0,0 UV-I 0 W/m² 7,5 °C 8,1 °C 16,1 km/h (3 Bft)
03.12.2018 00:21 8,6 °C 92 % 1009,5 hPa 0,0 mm 5,6 km/h (1 Bft) W-SW 249 ° 0 min 0,000 mm 0,0 UV-I 0 W/m² 7,4 °C 8,0 °C 11,3 km/h (2 Bft)
03.12.2018 00:22 8,7 °C 92 % 1009,5 hPa 0,0 mm 8,4 km/h (2 Bft) S-SW 198 ° 0 min 0,000 mm 0,0 UV-I 0 W/m² 7,5 °C 7,4 °C 16,1 km/h (3 Bft)
03.12.2018 00:23 8,7 °C 92 % 1009,5 hPa 0,0 mm 11,0 km/h (2 Bft) W-NW 286 ° 0 min 0,000 mm 0,0 UV-I 0 W/m² 7,5 °C 6,9 °C 22,5 km/h (4 Bft)
03.12.2018 00:24 8,7 °C 91 % 1009,5 hPa 0,0 mm 10,9 km/h (2 Bft) SW 227 ° 0 min 0,000 mm 0,0 UV-I 0 W/m² 7,3 °C 6,9 °C 19,3 km/h (3 Bft)
03.12.2018 00:25 8,6 °C 91 % 1009,5 hPa 0,2 mm 4,2 km/h (1 Bft) W 259 ° 0 min 0,000 mm 0,0 UV-I 0 W/m² 7,2 °C 8,6 °C 6,4 km/h (2 Bft)
03.12.2018 00:26 8,6 °C 91 % 1009,5 hPa 0,0 mm 7,2 km/h (2 Bft) W-SW 254 ° 0 min 0,000 mm 0,0 UV-I 0 W/m² 7,2 °C 7,5 °C 12,9 km/h (3 Bft)
03.12.2018 00:27 8,7 °C 91 % 1009,5 hPa 0,0 mm 8,2 km/h (2 Bft) W-SW 246 ° 0 min 0,000 mm 0,0 UV-I 0 W/m² 7,3 °C 7,4 °C 17,7 km/h (3 Bft)
03.12.2018 00:28 8,6 °C 91 % 1009,4 hPa 0,0 mm 7,7 km/h (2 Bft) S-SW 213 ° 0 min 0,000 mm 0,0 UV-I 0 W/m² 7,2 °C 7,4 °C 17,7 km/h (3 Bft)
03.12.2018 00:29 8,7 °C 91 % 1009,4 hPa 0,2 mm 10,1 km/h (2 Bft) W-SW 240 ° 0 min 0,000 mm 0,0 UV-I 0 W/m² 7,3 °C 7,1 °C 16,1 km/h (3 Bft)
03.12.2018 00:30 8,6 °C 91 % 1009,3 hPa 0,0 mm 9,1 km/h (2 Bft) W-SW 246 ° 0 min 0,000 mm 0,0 UV-I 0 W/m² 7,2 °C 7,1 °C 16,1 km/h (3 Bft)
03.12.2018 00:31 8,6 °C 91 % 1009,3 hPa 0,0 mm 4,4 km/h (1 Bft) W-SW 258 ° 0 min 0,000 mm 0,0 UV-I 0 W/m² 7,2 °C 8,6 °C 8,0 km/h (2 Bft)
03.12.2018 00:32 8,6 °C 91 % 1009,3 hPa 0,0 mm 4,0 km/h (1 Bft) W 266 ° 0 min 0,000 mm 0,0 UV-I 0 W/m² 7,2 °C 8,6 °C 11,3 km/h (2 Bft)
03.12.2018 00:33 8,6 °C 91 % 1009,4 hPa 0,0 mm 8,9 km/h (2 Bft) SW 234 ° 0 min 0,000 mm 0,0 UV-I 0 W/m² 7,2 °C 7,2 °C 17,7 km/h (3 Bft)
03.12.2018 00:34 8,6 °C 91 % 1009,4 hPa 0,0 mm 8,2 km/h (2 Bft) W-SW 258 ° 0 min 0,000 mm 0,0 UV-I 0 W/m² 7,2 °C 7,3 °C 17,7 km/h (3 Bft)
03.12.2018 00:35 8,6 °C 91 % 1009,2 hPa 0,0 mm 7,1 km/h (2 Bft) S-SW 202 ° 0 min 0,000 mm 0,0 UV-I 0 W/m² 7,2 °C 7,6 °C 12,9 km/h (3 Bft)
03.12.2018 00:36 8,6 °C 91 % 1009,3 hPa 0,0 mm 5,2 km/h (1 Bft) SW 235 ° 0 min 0,000 mm 0,0 UV-I 0 W/m² 7,2 °C 8,1 °C 9,7 km/h (2 Bft)
03.12.2018 00:37 8,6 °C 91 % 1009,3 hPa 0,2 mm 5,4 km/h (1 Bft) SW 214 ° 0 min 0,000 mm 0,0 UV-I 0 W/m² 7,2 °C 8,0 °C 11,3 km/h (2 Bft)
03.12.2018 00:38 8,6 °C 91 % 1009,3 hPa 0,0 mm 5,1 km/h (1 Bft) S-SW 199 ° 0 min 0,000 mm 0,0 UV-I 0 W/m² 7,2 °C 8,1 °C 8,0 km/h (2 Bft)
03.12.2018 00:39 8,6 °C 91 % 1009,3 hPa 0,0 mm 4,3 km/h (1 Bft) S-SW 204 ° 0 min 0,000 mm 0,0 UV-I 0 W/m² 7,2 °C 8,6 °C 9,7 km/h (2 Bft)
03.12.2018 00:40 8,6 °C 91 % 1009,2 hPa 0,0 mm 7,2 km/h (2 Bft) SW 219 ° 0 min 0,000 mm 0,0 UV-I 0 W/m² 7,2 °C 7,5 °C 17,7 km/h (3 Bft)
03.12.2018 00:41 8,6 °C 91 % 1009,3 hPa 0,0 mm 10,3 km/h (2 Bft) S-SW 211 ° 0 min 0,000 mm 0,0 UV-I 0 W/m² 7,2 °C 6,9 °C 16,1 km/h (3 Bft)
03.12.2018 00:42 8,6 °C 91 % 1009,3 hPa 0,0 mm 6,3 km/h (2 Bft) S-SW 213 ° 0 min 0,000 mm 0,0 UV-I 0 W/m² 7,2 °C 7,8 °C 11,3 km/h (2 Bft)
03.12.2018 00:43 8,6 °C 91 % 1009,2 hPa 0,0 mm 5,6 km/h (1 Bft) SW 229 ° 0 min 0,000 mm 0,0 UV-I 0 W/m² 7,2 °C 8,0 °C 9,7 km/h (2 Bft)
03.12.2018 00:44 8,6 °C 91 % 1009,1 hPa 0,0 mm 6,6 km/h (2 Bft) W-SW 253 ° 0 min 0,000 mm 0,0 UV-I 0 W/m² 7,2 °C 7,7 °C 12,9 km/h (3 Bft)
03.12.2018 00:45 8,6 °C 91 % 1009,1 hPa 0,0 mm 5,7 km/h (1 Bft) W 273 ° 0 min 0,000 mm 0,0 UV-I 0 W/m² 7,2 °C 7,9 °C 9,7 km/h (2 Bft)
03.12.2018 00:46 8,6 °C 91 % 1009,1 hPa 0,0 mm 4,1 km/h (1 Bft) SW 235 ° 0 min 0,000 mm 0,0 UV-I 0 W/m² 7,2 °C 8,6 °C 9,7 km/h (2 Bft)
03.12.2018 00:47 8,6 °C 91 % 1009,1 hPa 0,0 mm 5,1 km/h (1 Bft) S-SW 210 ° 0 min 0,000 mm 0,0 UV-I 0 W/m² 7,2 °C 8,1 °C 8,0 km/h (2 Bft)
03.12.2018 00:48 8,6 °C 91 % 1009,1 hPa 0,0 mm 6,7 km/h (2 Bft) S 191 ° 0 min 0,000 mm 0,0 UV-I 0 W/m² 7,2 °C 7,7 °C 8,0 km/h (2 Bft)
03.12.2018 00:49 8,6 °C 91 % 1009,1 hPa 0,0 mm 2,5 km/h (1 Bft) SW 231 ° 0 min 0,000 mm 0,0 UV-I 0 W/m² 7,2 °C 8,6 °C 4,8 km/h (1 Bft)
03.12.2018 00:50 8,6 °C 91 % 1009,2 hPa 0,0 mm 1,2 km/h (1 Bft) SW 231 ° 0 min 0,000 mm 0,0 UV-I 0 W/m² 7,2 °C 8,6 °C 4,8 km/h (1 Bft)
03.12.2018 00:51 8,6 °C 91 % 1009,1 hPa 0,0 mm 3,8 km/h (1 Bft) SW 221 ° 0 min 0,000 mm 0,0 UV-I 0 W/m² 7,2 °C 8,6 °C 8,0 km/h (2 Bft)
03.12.2018 00:52 8,6 °C 91 % 1009,1 hPa 0,0 mm 5,0 km/h (1 Bft) S 175 ° 0 min 0,000 mm 0,0 UV-I 0 W/m² 7,2 °C 8,2 °C 9,7 km/h (2 Bft)
03.12.2018 00:53 8,6 °C 91 % 1009,1 hPa 0,0 mm 7,2 km/h (2 Bft) W-SW 241 ° 0 min 0,000 mm 0,0 UV-I 0 W/m² 7,2 °C 7,5 °C 11,3 km/h (2 Bft)
03.12.2018 00:54 8,5 °C 91 % 1009,0 hPa 0,0 mm 7,0 km/h (2 Bft) W 268 ° 0 min 0,000 mm 0,0 UV-I 0 W/m² 7,1 °C 7,5 °C 11,3 km/h (2 Bft)
03.12.2018 00:55 8,5 °C 91 % 1009,1 hPa 0,0 mm 5,4 km/h (1 Bft) S-SW 208 ° 0 min 0,000 mm 0,0 UV-I 0 W/m² 7,1 °C 7,9 °C 11,3 km/h (2 Bft)
03.12.2018 00:56 8,5 °C 91 % 1009,1 hPa 0,0 mm 3,4 km/h (1 Bft) W-SW 249 ° 0 min 0,000 mm 0,0 UV-I 0 W/m² 7,1 °C 8,5 °C 6,4 km/h (2 Bft)
03.12.2018 00:57 8,5 °C 91 % 1009,0 hPa 0,0 mm 4,8 km/h (1 Bft) SW 219 ° 0 min 0,000 mm 0,0 UV-I 0 W/m² 7,1 °C 8,1 °C 11,3 km/h (2 Bft)
03.12.2018 00:58 8,5 °C 91 % 1009,1 hPa 0,0 mm 6,5 km/h (2 Bft) W 259 ° 0 min 0,000 mm 0,0 UV-I 0 W/m² 7,1 °C 7,6 °C 11,3 km/h (2 Bft)
03.12.2018 00:59 8,5 °C 91 % 1009,1 hPa 0,0 mm 3,3 km/h (1 Bft) SW 217 ° 0 min 0,000 mm 0,0 UV-I 0 W/m² 7,1 °C 8,5 °C 6,4 km/h (2 Bft)
03.12.2018 01:00 8,5 °C 90 % 1009,1 hPa 0,0 mm 1,5 km/h (1 Bft) SW 217 ° 0 min 0,000 mm 0,0 UV-I 0 W/m² 7,0 °C 8,5 °C 4,8 km/h (1 Bft)
03.12.2018 01:01 8,5 °C 90 % 1009,1 hPa 0,0 mm 5,4 km/h (1 Bft) W-SW 246 ° 0 min 0,000 mm 0,0 UV-I 0 W/m² 7,0 °C 7,9 °C 12,9 km/h (3 Bft)
03.12.2018 01:02 8,5 °C 90 % 1009,0 hPa 0,0 mm 4,8 km/h (1 Bft) SW 235 ° 0 min 0,000 mm 0,0 UV-I 0 W/m² 7,0 °C 8,1 °C 8,0 km/h (2 Bft)
03.12.2018 01:03 8,5 °C 90 % 1009,1 hPa 0,0 mm 4,4 km/h (1 Bft) W-NW 296 ° 0 min 0,000 mm 0,0 UV-I 0 W/m² 7,0 °C 8,5 °C 11,3 km/h (2 Bft)
03.12.2018 01:04 8,5 °C 90 % 1009,1 hPa 0,0 mm 4,5 km/h (1 Bft) S-SW 202 ° 0 min 0,000 mm 0,0 UV-I 0 W/m² 7,0 °C 8,5 °C 12,9 km/h (3 Bft)
03.12.2018 01:05 8,5 °C 90 % 1009,1 hPa 0,0 mm 5,2 km/h (1 Bft) W-SW 246 ° 0 min 0,000 mm 0,0 UV-I 0 W/m² 7,0 °C 8,0 °C 9,7 km/h (2 Bft)
03.12.2018 01:06 8,5 °C 90 % 1009,1 hPa 0,0 mm 4,2 km/h (1 Bft) W 270 ° 0 min 0,000 mm 0,0 UV-I 0 W/m² 7,0 °C 8,5 °C 6,4 km/h (2 Bft)
03.12.2018 01:07 8,5 °C 90 % 1009,0 hPa 0,0 mm 4,6 km/h (1 Bft) W-SW 240 ° 0 min 0,000 mm 0,0 UV-I 0 W/m² 7,0 °C 8,2 °C 8,0 km/h (2 Bft)
03.12.2018 01:08 8,4 °C 90 % 1009,0 hPa 0,0 mm 5,0 km/h (1 Bft) W-SW 252 ° 0 min 0,000 mm 0,0 UV-I 0 W/m² 6,9 °C 7,9 °C 6,4 km/h (2 Bft)
03.12.2018 01:09 8,4 °C 90 % 1009,1 hPa 0,2 mm 3,8 km/h (1 Bft) W-SW 242 ° 0 min 0,000 mm 0,0 UV-I 0 W/m² 6,9 °C 8,4 °C 6,4 km/h (2 Bft)
03.12.2018 01:10 8,4 °C 90 % 1009,1 hPa 0,0 mm 4,0 km/h (1 Bft) SW 215 ° 0 min 0,000 mm 0,0 UV-I 0 W/m² 6,9 °C 8,4 °C 8,0 km/h (2 Bft)
03.12.2018 01:11 8,4 °C 90 % 1009,1 hPa 0,0 mm 6,2 km/h (2 Bft) SW 225 ° 0 min 0,000 mm 0,0 UV-I 0 W/m² 6,9 °C 7,6 °C 11,3 km/h (2 Bft)
03.12.2018 01:12 8,4 °C 90 % 1009,1 hPa 0,0 mm 0,7 km/h (0 Bft) SW 225 ° 0 min 0,000 mm 0,0 UV-I 0 W/m² 6,9 °C 8,4 °C 3,2 km/h (1 Bft)
03.12.2018 01:13 8,4 °C 90 % 1009,1 hPa 0,0 mm 6,4 km/h (2 Bft) W-SW 244 ° 0 min 0,000 mm 0,0 UV-I 0 W/m² 6,9 °C 7,5 °C 11,3 km/h (2 Bft)
03.12.2018 01:14 8,4 °C 90 % 1009,0 hPa 0,0 mm 4,0 km/h (1 Bft) W-SW 248 ° 0 min 0,000 mm 0,0 UV-I 0 W/m² 6,9 °C 8,4 °C 6,4 km/h (2 Bft)
03.12.2018 01:15 8,4 °C 90 % 1009,1 hPa 0,0 mm 1,7 km/h (1 Bft) W-SW 248 ° 0 min 0,000 mm 0,0 UV-I 0 W/m² 6,9 °C 8,4 °C 3,2 km/h (1 Bft)
03.12.2018 01:16 8,4 °C 90 % 1009,1 hPa 0,0 mm 2,9 km/h (1 Bft) SW 230 ° 0 min 0,000 mm 0,0 UV-I 0 W/m² 6,9 °C 8,4 °C 8,0 km/h (2 Bft)
03.12.2018 01:17 8,4 °C 90 % 1009,0 hPa 0,0 mm 3,9 km/h (1 Bft) SW 214 ° 0 min 0,000 mm 0,0 UV-I 0 W/m² 6,9 °C 8,4 °C 6,4 km/h (2 Bft)
03.12.2018 01:18 8,4 °C 90 % 1009,0 hPa 0,0 mm 3,8 km/h (1 Bft) W-SW 242 ° 0 min 0,000 mm 0,0 UV-I 0 W/m² 6,9 °C 8,4 °C 6,4 km/h (2 Bft)
03.12.2018 01:19 8,4 °C 90 % 1009,0 hPa 0,0 mm 2,5 km/h (1 Bft) S-SW 212 ° 0 min 0,000 mm 0,0 UV-I 0 W/m² 6,9 °C 8,4 °C 6,4 km/h (2 Bft)
03.12.2018 01:20 8,4 °C 90 % 1009,0 hPa 0,0 mm 6,8 km/h (2 Bft) S-SW 212 ° 0 min 0,000 mm 0,0 UV-I 0 W/m² 6,9 °C 7,4 °C 12,9 km/h (3 Bft)
03.12.2018 01:21 8,4 °C 90 % 1009,0 hPa 0,0 mm 2,8 km/h (1 Bft) SW 228 ° 0 min 0,000 mm 0,0 UV-I 0 W/m² 6,9 °C 8,4 °C 4,8 km/h (1 Bft)
03.12.2018 01:22 8,4 °C 90 % 1009,0 hPa 0,0 mm 1,2 km/h (1 Bft) S-SW 213 ° 0 min 0,000 mm 0,0 UV-I 0 W/m² 6,9 °C 8,4 °C 3,2 km/h (1 Bft)
03.12.2018 01:23 8,4 °C 90 % 1009,0 hPa 0,0 mm 0,5 km/h (0 Bft) S-SW 213 ° 0 min 0,000 mm 0,0 UV-I 0 W/m² 6,9 °C 8,4 °C 3,2 km/h (1 Bft)
03.12.2018 01:24 8,4 °C 90 % 1009,1 hPa 0,0 mm 2,7 km/h (1 Bft) S-SW 202 ° 0 min 0,000 mm 0,0 UV-I 0 W/m² 6,9 °C 8,4 °C 6,4 km/h (2 Bft)
03.12.2018 01:25 8,4 °C 90 % 1009,1 hPa 0,0 mm 5,0 km/h (1 Bft) W 273 ° 0 min 0,000 mm 0,0 UV-I 0 W/m² 6,9 °C 7,9 °C 6,4 km/h (2 Bft)
03.12.2018 01:26 8,3 °C 90 % 1009,1 hPa 0,0 mm 3,4 km/h (1 Bft) W-SW 247 ° 0 min 0,000 mm 0,0 UV-I 0 W/m² 6,8 °C 8,3 °C 6,4 km/h (2 Bft)
03.12.2018 01:27 8,4 °C 90 % 1009,1 hPa 0,0 mm 2,7 km/h (1 Bft) W-SW 239 ° 0 min 0,000 mm 0,0 UV-I 0 W/m² 6,9 °C 8,4 °C 6,4 km/h (2 Bft)
03.12.2018 01:28 8,3 °C 90 % 1009,1 hPa 0,0 mm 2,0 km/h (1 Bft) W-SW 239 ° 0 min 0,000 mm 0,0 UV-I 0 W/m² 6,8 °C 8,3 °C 3,2 km/h (1 Bft)
03.12.2018 01:29 8,3 °C 90 % 1009,1 hPa 0,0 mm 0,0 km/h (0 Bft) W-SW 237 ° 0 min 0,000 mm 0,0 UV-I 0 W/m² 6,8 °C 8,3 °C 0,0 km/h (0 Bft)
03.12.2018 01:30 8,3 °C 90 % 1009,1 hPa 0,0 mm 0,0 km/h (0 Bft) W-SW 237 ° 0 min 0,000 mm 0,0 UV-I 0 W/m² 6,8 °C 8,3 °C 0,0 km/h (0 Bft)
03.12.2018 01:31 8,3 °C 90 % 1009,2 hPa 0,0 mm 2,7 km/h (1 Bft) SW 218 ° 0 min 0,000 mm 0,0 UV-I 0 W/m² 6,8 °C 8,3 °C 6,4 km/h (2 Bft)
03.12.2018 01:32 8,3 °C 90 % 1009,2 hPa 0,0 mm 1,4 km/h (1 Bft) SW 218 ° 0 min 0,000 mm 0,0 UV-I 0 W/m² 6,8 °C 8,3 °C 1,6 km/h (1 Bft)
03.12.2018 01:33 8,3 °C 90 % 1009,1 hPa 0,0 mm 4,6 km/h (1 Bft) W-SW 237 ° 0 min 0,000 mm 0,0 UV-I 0 W/m² 6,8 °C 8,0 °C 12,9 km/h (3 Bft)
03.12.2018 01:34 8,3 °C 90 % 1009,1 hPa 0,0 mm 1,9 km/h (1 Bft) S-SW 204 ° 0 min 0,000 mm 0,0 UV-I 0 W/m² 6,8 °C 8,3 °C 4,8 km/h (1 Bft)
03.12.2018 01:35 8,3 °C 90 % 1009,1 hPa 0,0 mm 3,4 km/h (1 Bft) S-SW 204 ° 0 min 0,000 mm 0,0 UV-I 0 W/m² 6,8 °C 8,3 °C 4,8 km/h (1 Bft)
03.12.2018 01:36 8,3 °C 90 % 1009,2 hPa 0,0 mm 0,4 km/h (0 Bft) S-SW 204 ° 0 min 0,000 mm 0,0 UV-I 0 W/m² 6,8 °C 8,3 °C 3,2 km/h (1 Bft)
03.12.2018 01:37 8,3 °C 90 % 1009,2 hPa 0,0 mm 1,5 km/h (1 Bft) SW 233 ° 0 min 0,000 mm 0,0 UV-I 0 W/m² 6,8 °C 8,3 °C 3,2 km/h (1 Bft)
03.12.2018 01:38 8,3 °C 90 % 1009,1 hPa 0,0 mm 1,4 km/h (1 Bft) SW 227 ° 0 min 0,000 mm 0,0 UV-I 0 W/m² 6,8 °C 8,3 °C 3,2 km/h (1 Bft)
03.12.2018 01:39 8,3 °C 90 % 1009,2 hPa 0,0 mm 3,2 km/h (1 Bft) S-SW 211 ° 0 min 0,000 mm 0,0 UV-I 0 W/m² 6,8 °C 8,3 °C 4,8 km/h (1 Bft)
03.12.2018 01:40 8,3 °C 90 % 1009,2 hPa 0,0 mm 2,9 km/h (1 Bft) S-SW 194 ° 0 min 0,000 mm 0,0 UV-I 0 W/m² 6,8 °C 8,3 °C 4,8 km/h (1 Bft)
03.12.2018 01:41 8,3 °C 90 % 1009,2 hPa 0,0 mm 0,1 km/h (0 Bft) S-SW 194 ° 0 min 0,000 mm 0,0 UV-I 0 W/m² 6,8 °C 8,3 °C 1,6 km/h (1 Bft)
03.12.2018 01:42 8,3 °C 90 % 1009,2 hPa 0,0 mm 0,0 km/h (0 Bft) S-SW 194 ° 0 min 0,000 mm 0,0 UV-I 0 W/m² 6,8 °C 8,3 °C 0,0 km/h (0 Bft)
03.12.2018 01:43 8,3 °C 90 % 1009,2 hPa 0,0 mm 0,6 km/h (0 Bft) S-SW 194 ° 0 min 0,000 mm 0,0 UV-I 0 W/m² 6,8 °C 8,3 °C 1,6 km/h (1 Bft)
03.12.2018 01:44 8,2 °C 90 % 1009,2 hPa 0,0 mm 1,3 km/h (1 Bft) S-SW 194 ° 0 min 0,000 mm 0,0 UV-I 0 W/m² 6,7 °C 8,2 °C 3,2 km/h (1 Bft)
03.12.2018 01:45 8,2 °C 90 % 1009,2 hPa 0,0 mm 3,0 km/h (1 Bft) SW 230 ° 0 min 0,000 mm 0,0 UV-I 0 W/m² 6,7 °C 8,2 °C 11,3 km/h (2 Bft)
03.12.2018 01:46 8,2 °C 90 % 1009,2 hPa 0,0 mm 4,7 km/h (1 Bft) W-SW 244 ° 0 min 0,000 mm 0,0 UV-I 0 W/m² 6,7 °C 7,8 °C 12,9 km/h (3 Bft)
03.12.2018 01:47 8,2 °C 90 % 1009,2 hPa 0,0 mm 3,6 km/h (1 Bft) W-SW 257 ° 0 min 0,000 mm 0,0 UV-I 0 W/m² 6,7 °C 8,2 °C 12,9 km/h (3 Bft)
03.12.2018 01:48 8,2 °C 90 % 1009,2 hPa 0,0 mm 0,9 km/h (0 Bft) W-SW 257 ° 0 min 0,000 mm 0,0 UV-I 0 W/m² 6,7 °C 8,2 °C 3,2 km/h (1 Bft)
03.12.2018 01:49 8,2 °C 90 % 1009,2 hPa 0,0 mm 0,1 km/h (0 Bft) SW 231 ° 0 min 0,000 mm 0,0 UV-I 0 W/m² 6,7 °C 8,2 °C 1,6 km/h (1 Bft)
03.12.2018 01:50 8,2 °C 90 % 1009,2 hPa 0,0 mm 4,9 km/h (1 Bft) W 261 ° 0 min 0,000 mm 0,0 UV-I 0 W/m² 6,7 °C 7,7 °C 9,7 km/h (2 Bft)
03.12.2018 01:51 8,2 °C 90 % 1009,2 hPa 0,0 mm 6,7 km/h (2 Bft) S-SW 199 ° 0 min 0,000 mm 0,0 UV-I 0 W/m² 6,7 °C 7,2 °C 11,3 km/h (2 Bft)
03.12.2018 01:52 8,2 °C 90 % 1009,2 hPa 0,0 mm 4,8 km/h (1 Bft) W 259 ° 0 min 0,000 mm 0,0 UV-I 0 W/m² 6,7 °C 7,8 °C 9,7 km/h (2 Bft)
03.12.2018 01:53 8,1 °C 90 % 1009,2 hPa 0,0 mm 1,6 km/h (1 Bft) W 259 ° 0 min 0,000 mm 0,0 UV-I 0 W/m² 6,6 °C 8,1 °C 4,8 km/h (1 Bft)
03.12.2018 01:54 8,1 °C 90 % 1009,2 hPa 0,0 mm 2,5 km/h (1 Bft) S-SW 202 ° 0 min 0,000 mm 0,0 UV-I 0 W/m² 6,6 °C 8,1 °C 4,8 km/h (1 Bft)
03.12.2018 01:55 8,1 °C 90 % 1009,2 hPa 0,0 mm 1,9 km/h (1 Bft) S-SW 202 ° 0 min 0,000 mm 0,0 UV-I 0 W/m² 6,6 °C 8,1 °C 4,8 km/h (1 Bft)
03.12.2018 01:56 8,1 °C 91 % 1009,2 hPa 0,0 mm 2,6 km/h (1 Bft) S-SW 202 ° 0 min 0,000 mm 0,0 UV-I 0 W/m² 6,7 °C 8,1 °C 4,8 km/h (1 Bft)
03.12.2018 01:57 8,1 °C 91 % 1009,2 hPa 0,0 mm 1,5 km/h (1 Bft) S-SW 202 ° 0 min 0,000 mm 0,0 UV-I 0 W/m² 6,7 °C 8,1 °C 3,2 km/h (1 Bft)
03.12.2018 01:58 8,1 °C 91 % 1009,2 hPa 0,0 mm 0,0 km/h (0 Bft) S-SW 202 ° 0 min 0,000 mm 0,0 UV-I 0 W/m² 6,7 °C 8,1 °C 0,0 km/h (0 Bft)
03.12.2018 01:59 8,1 °C 91 % 1009,2 hPa 0,0 mm 0,9 km/h (0 Bft) S-SW 202 ° 0 min 0,000 mm 0,0 UV-I 0 W/m² 6,7 °C 8,1 °C 3,2 km/h (1 Bft)
03.12.2018 02:00 8,0 °C 91 % 1009,2 hPa 0,0 mm 2,1 km/h (1 Bft) S-SW 202 ° 0 min 0,000 mm 0,0 UV-I 0 W/m² 6,6 °C 8,0 °C 4,8 km/h (1 Bft)
03.12.2018 02:01 8,0 °C 91 % 1009,2 hPa 0,0 mm 0,1 km/h (0 Bft) S-SW 202 ° 0 min 0,000 mm 0,0 UV-I 0 W/m² 6,6 °C 8,0 °C 1,6 km/h (1 Bft)
03.12.2018 02:02 8,0 °C 91 % 1009,1 hPa 0,0 mm 3,2 km/h (1 Bft) S 188 ° 0 min 0,000 mm 0,0 UV-I 0 W/m² 6,6 °C 8,0 °C 6,4 km/h (2 Bft)
03.12.2018 02:03 7,9 °C 91 % 1009,1 hPa 0,0 mm 2,7 km/h (1 Bft) S 190 ° 0 min 0,000 mm 0,0 UV-I 0 W/m² 6,5 °C 7,9 °C 6,4 km/h (2 Bft)
03.12.2018 02:04 7,9 °C 91 % 1009,1 hPa 0,0 mm 2,9 km/h (1 Bft) S-SW 206 ° 0 min 0,000 mm 0,0 UV-I 0 W/m² 6,5 °C 7,9 °C 6,4 km/h (2 Bft)
03.12.2018 02:05 7,9 °C 91 % 1009,1 hPa 0,0 mm 0,3 km/h (0 Bft) S-SW 206 ° 0 min 0,000 mm 0,0 UV-I 0 W/m² 6,5 °C 7,9 °C 1,6 km/h (1 Bft)
03.12.2018 02:06 7,9 °C 91 % 1009,1 hPa 0,0 mm 2,4 km/h (1 Bft) S-SW 206 ° 0 min 0,000 mm 0,0 UV-I 0 W/m² 6,5 °C 7,9 °C 3,2 km/h (1 Bft)
03.12.2018 02:07 7,9 °C 91 % 1009,1 hPa 0,0 mm 2,3 km/h (1 Bft) S 181 ° 0 min 0,000 mm 0,0 UV-I 0 W/m² 6,5 °C 7,9 °C 8,0 km/h (2 Bft)
03.12.2018 02:08 7,9 °C 91 % 1009,2 hPa 0,0 mm 3,0 km/h (1 Bft) SW 232 ° 0 min 0,000 mm 0,0 UV-I 0 W/m² 6,5 °C 7,9 °C 4,8 km/h (1 Bft)
03.12.2018 02:09 7,9 °C 91 % 1009,2 hPa 0,0 mm 1,2 km/h (1 Bft) SW 232 ° 0 min 0,000 mm 0,0 UV-I 0 W/m² 6,5 °C 7,9 °C 3,2 km/h (1 Bft)
03.12.2018 02:10 7,9 °C 91 % 1009,1 hPa 0,0 mm 2,3 km/h (1 Bft) S-SW 204 ° 0 min 0,000 mm 0,0 UV-I 0 W/m² 6,5 °C 7,9 °C 4,8 km/h (1 Bft)
03.12.2018 02:11 7,9 °C 91 % 1009,1 hPa 0,0 mm 3,9 km/h (1 Bft) SW 226 ° 0 min 0,000 mm 0,0 UV-I 0 W/m² 6,5 °C 7,9 °C 8,0 km/h (2 Bft)
03.12.2018 02:12 7,9 °C 91 % 1009,1 hPa 0,0 mm 1,1 km/h (1 Bft) S-SW 210 ° 0 min 0,000 mm 0,0 UV-I 0 W/m² 6,5 °C 7,9 °C 3,2 km/h (1 Bft)
03.12.2018 02:13 7,9 °C 91 % 1009,2 hPa 0,0 mm 3,7 km/h (1 Bft) S-SW 210 ° 0 min 0,000 mm 0,0 UV-I 0 W/m² 6,5 °C 7,9 °C 6,4 km/h (2 Bft)
03.12.2018 02:14 7,8 °C 91 % 1009,2 hPa 0,0 mm 5,3 km/h (1 Bft) S-SW 211 ° 0 min 0,000 mm 0,0 UV-I 0 W/m² 6,4 °C 7,2 °C 6,4 km/h (2 Bft)
03.12.2018 02:15 7,8 °C 91 % 1009,2 hPa 0,0 mm 4,3 km/h (1 Bft) S-SW 198 ° 0 min 0,000 mm 0,0 UV-I 0 W/m² 6,4 °C 7,8 °C 6,4 km/h (2 Bft)
03.12.2018 02:16 7,9 °C 91 % 1009,3 hPa 0,0 mm 2,5 km/h (1 Bft) S-SW 205 ° 0 min 0,000 mm 0,0 UV-I 0 W/m² 6,5 °C 7,9 °C 4,8 km/h (1 Bft)
03.12.2018 02:17 7,8 °C 91 % 1009,3 hPa 0,0 mm 3,4 km/h (1 Bft) S 190 ° 0 min 0,000 mm 0,0 UV-I 0 W/m² 6,4 °C 7,8 °C 6,4 km/h (2 Bft)
03.12.2018 02:18 7,9 °C 91 % 1009,2 hPa 0,0 mm 3,0 km/h (1 Bft) S-SW 193 ° 0 min 0,000 mm 0,0 UV-I 0 W/m² 6,5 °C 7,9 °C 4,8 km/h (1 Bft)
03.12.2018 02:19 7,8 °C 91 % 1009,2 hPa 0,0 mm 3,6 km/h (1 Bft) SW 214 ° 0 min 0,000 mm 0,0 UV-I 0 W/m² 6,4 °C 7,8 °C 4,8 km/h (1 Bft)
03.12.2018 02:20 7,8 °C 91 % 1009,2 hPa 0,0 mm 3,8 km/h (1 Bft) S-SW 194 ° 0 min 0,000 mm 0,0 UV-I 0 W/m² 6,4 °C 7,8 °C 4,8 km/h (1 Bft)
03.12.2018 02:21 7,8 °C 91 % 1009,2 hPa 0,0 mm 2,9 km/h (1 Bft) W-SW 244 ° 0 min 0,000 mm 0,0 UV-I 0 W/m² 6,4 °C 7,8 °C 4,8 km/h (1 Bft)
03.12.2018 02:22 7,8 °C 91 % 1009,1 hPa 0,0 mm 1,1 km/h (1 Bft) SW 222 ° 0 min 0,000 mm 0,0 UV-I 0 W/m² 6,4 °C 7,8 °C 3,2 km/h (1 Bft)
03.12.2018 02:23 7,8 °C 91 % 1009,1 hPa 0,0 mm 2,0 km/h (1 Bft) SW 221 ° 0 min 0,000 mm 0,0 UV-I 0 W/m² 6,4 °C 7,8 °C 4,8 km/h (1 Bft)
03.12.2018 02:24 7,8 °C 91 % 1009,1 hPa 0,0 mm 0,9 km/h (0 Bft) S-SW 209 ° 0 min 0,000 mm 0,0 UV-I 0 W/m² 6,4 °C 7,8 °C 1,6 km/h (1 Bft)
03.12.2018 02:25 7,8 °C 91 % 1009,1 hPa 0,0 mm 2,0 km/h (1 Bft) S-SW 210 ° 0 min 0,000 mm 0,0 UV-I 0 W/m² 6,4 °C 7,8 °C 3,2 km/h (1 Bft)
03.12.2018 02:26 7,8 °C 91 % 1009,2 hPa 0,0 mm 2,8 km/h (1 Bft) W-SW 252 ° 0 min 0,000 mm 0,0 UV-I 0 W/m² 6,4 °C 7,8 °C 11,3 km/h (2 Bft)
03.12.2018 02:27 7,8 °C 91 % 1009,2 hPa 0,0 mm 3,1 km/h (1 Bft) W-SW 245 ° 0 min 0,000 mm 0,0 UV-I 0 W/m² 6,4 °C 7,8 °C 6,4 km/h (2 Bft)
03.12.2018 02:28 7,8 °C 91 % 1009,2 hPa 0,0 mm 1,6 km/h (1 Bft) SW 234 ° 0 min 0,000 mm 0,0 UV-I 0 W/m² 6,4 °C 7,8 °C 3,2 km/h (1 Bft)
03.12.2018 02:29 7,8 °C 91 % 1009,2 hPa 0,0 mm 2,3 km/h (1 Bft) SW 221 ° 0 min 0,000 mm 0,0 UV-I 0 W/m² 6,4 °C 7,8 °C 4,8 km/h (1 Bft)
03.12.2018 02:30 7,8 °C 91 % 1009,1 hPa 0,0 mm 1,8 km/h (1 Bft) SW 221 ° 0 min 0,000 mm 0,0 UV-I 0 W/m² 6,4 °C 7,8 °C 4,8 km/h (1 Bft)
03.12.2018 02:31 7,8 °C 91 % 1009,2 hPa 0,0 mm 0,8 km/h (0 Bft) SW 221 ° 0 min 0,000 mm 0,0 UV-I 0 W/m² 6,4 °C 7,8 °C 3,2 km/h (1 Bft)
03.12.2018 02:32 7,8 °C 91 % 1009,2 hPa 0,0 mm 2,7 km/h (1 Bft) SW 220 ° 0 min 0,000 mm 0,0 UV-I 0 W/m² 6,4 °C 7,8 °C 4,8 km/h (1 Bft)
03.12.2018 02:33 7,8 °C 91 % 1009,2 hPa 0,0 mm 1,5 km/h (1 Bft) SW 220 ° 0 min 0,000 mm 0,0 UV-I 0 W/m² 6,4 °C 7,8 °C 3,2 km/h (1 Bft)
03.12.2018 02:34 7,8 °C 91 % 1009,2 hPa 0,0 mm 2,2 km/h (1 Bft) SW 219 ° 0 min 0,000 mm 0,0 UV-I 0 W/m² 6,4 °C 7,8 °C 4,8 km/h (1 Bft)
03.12.2018 02:35 7,8 °C 91 % 1009,2 hPa 0,0 mm 4,0 km/h (1 Bft) S-SW 192 ° 0 min 0,000 mm 0,0 UV-I 0 W/m² 6,4 °C 7,8 °C 8,0 km/h (2 Bft)
03.12.2018 02:36 7,8 °C 91 % 1009,2 hPa 0,0 mm 5,1 km/h (1 Bft) S-SW 200 ° 0 min 0,000 mm 0,0 UV-I 0 W/m² 6,4 °C 7,2 °C 9,7 km/h (2 Bft)
03.12.2018 02:37 7,8 °C 91 % 1009,2 hPa 0,0 mm 5,8 km/h (2 Bft) S-SO 154 ° 0 min 0,000 mm 0,0 UV-I 0 W/m² 6,4 °C 7,0 °C 12,9 km/h (3 Bft)
03.12.2018 02:38 7,8 °C 91 % 1009,2 hPa 0,0 mm 6,1 km/h (2 Bft) S-SW 211 ° 0 min 0,000 mm 0,0 UV-I 0 W/m² 6,4 °C 6,9 °C 11,3 km/h (2 Bft)
03.12.2018 02:39 7,8 °C 91 % 1009,1 hPa 0,0 mm 5,4 km/h (1 Bft) S 189 ° 0 min 0,000 mm 0,0 UV-I 0 W/m² 6,4 °C 7,1 °C 9,7 km/h (2 Bft)
03.12.2018 02:40 7,8 °C 91 % 1009,2 hPa 0,0 mm 3,6 km/h (1 Bft) S-SW 194 ° 0 min 0,000 mm 0,0 UV-I 0 W/m² 6,4 °C 7,8 °C 8,0 km/h (2 Bft)
03.12.2018 02:41 7,8 °C 91 % 1009,2 hPa 0,0 mm 4,2 km/h (1 Bft) S-SW 202 ° 0 min 0,000 mm 0,0 UV-I 0 W/m² 6,4 °C 7,8 °C 8,0 km/h (2 Bft)
03.12.2018 02:42 7,8 °C 91 % 1009,2 hPa 0,0 mm 3,3 km/h (1 Bft) SW 229 ° 0 min 0,000 mm 0,0 UV-I 0 W/m² 6,4 °C 7,8 °C 8,0 km/h (2 Bft)
03.12.2018 02:43 7,8 °C 91 % 1009,2 hPa 0,0 mm 4,6 km/h (1 Bft) W 261 ° 0 min 0,000 mm 0,0 UV-I 0 W/m² 6,4 °C 7,4 °C 9,7 km/h (2 Bft)
03.12.2018 02:44 7,8 °C 91 % 1009,2 hPa 0,0 mm 5,4 km/h (1 Bft) W-SW 244 ° 0 min 0,000 mm 0,0 UV-I 0 W/m² 6,4 °C 7,1 °C 9,7 km/h (2 Bft)
03.12.2018 02:45 7,8 °C 91 % 1009,2 hPa 0,0 mm 2,0 km/h (1 Bft) SW 233 ° 0 min 0,000 mm 0,0 UV-I 0 W/m² 6,4 °C 7,8 °C 4,8 km/h (1 Bft)
03.12.2018 02:46 7,8 °C 91 % 1009,3 hPa 0,0 mm 3,4 km/h (1 Bft) SW 222 ° 0 min 0,000 mm 0,0 UV-I 0 W/m² 6,4 °C 7,8 °C 4,8 km/h (1 Bft)
03.12.2018 02:47 7,8 °C 91 % 1009,3 hPa 0,0 mm 6,3 km/h (2 Bft) S 188 ° 0 min 0,000 mm 0,0 UV-I 0 W/m² 6,4 °C 6,9 °C 11,3 km/h (2 Bft)
03.12.2018 02:48 7,8 °C 91 % 1009,2 hPa 0,0 mm 5,6 km/h (1 Bft) S-SW 202 ° 0 min 0,000 mm 0,0 UV-I 0 W/m² 6,4 °C 7,1 °C 12,9 km/h (3 Bft)
03.12.2018 02:49 7,9 °C 91 % 1009,3 hPa 0,0 mm 4,9 km/h (1 Bft) S-SW 195 ° 0 min 0,000 mm 0,0 UV-I 0 W/m² 6,5 °C 7,4 °C 9,7 km/h (2 Bft)
03.12.2018 02:50 7,9 °C 91 % 1009,3 hPa 0,0 mm 5,4 km/h (1 Bft) SW 227 ° 0 min 0,000 mm 0,0 UV-I 0 W/m² 6,5 °C 7,2 °C 8,0 km/h (2 Bft)
03.12.2018 02:51 7,9 °C 91 % 1009,3 hPa 0,0 mm 4,8 km/h (1 Bft) S-SW 205 ° 0 min 0,000 mm 0,0 UV-I 0 W/m² 6,5 °C 7,4 °C 9,7 km/h (2 Bft)
03.12.2018 02:52 7,9 °C 90 % 1009,3 hPa 0,0 mm 4,7 km/h (1 Bft) SW 235 ° 0 min 0,000 mm 0,0 UV-I 0 W/m² 6,4 °C 7,5 °C 12,9 km/h (3 Bft)
03.12.2018 02:53 7,9 °C 90 % 1009,3 hPa 0,0 mm 6,6 km/h (2 Bft) S 186 ° 0 min 0,000 mm 0,0 UV-I 0 W/m² 6,4 °C 6,9 °C 12,9 km/h (3 Bft)
03.12.2018 02:54 7,9 °C 90 % 1009,3 hPa 0,0 mm 7,1 km/h (2 Bft) W-SW 243 ° 0 min 0,000 mm 0,0 UV-I 0 W/m² 6,4 °C 6,8 °C 11,3 km/h (2 Bft)
03.12.2018 02:55 8,0 °C 90 % 1009,3 hPa 0,0 mm 7,6 km/h (2 Bft) W-SW 257 ° 0 min 0,000 mm 0,0 UV-I 0 W/m² 6,5 °C 6,8 °C 14,5 km/h (3 Bft)
03.12.2018 02:56 8,0 °C 90 % 1009,3 hPa 0,0 mm 4,8 km/h (1 Bft) W 260 ° 0 min 0,000 mm 0,0 UV-I 0 W/m² 6,5 °C 7,6 °C 11,3 km/h (2 Bft)
03.12.2018 02:57 8,0 °C 90 % 1009,3 hPa 0,2 mm 6,7 km/h (2 Bft) SW 221 ° 0 min 0,000 mm 0,0 UV-I 0 W/m² 6,5 °C 7,0 °C 11,3 km/h (2 Bft)
03.12.2018 02:58 8,1 °C 90 % 1009,3 hPa 0,0 mm 5,6 km/h (1 Bft) W-SW 248 ° 0 min 0,000 mm 0,0 UV-I 0 W/m² 6,6 °C 7,4 °C 8,0 km/h (2 Bft)
03.12.2018 02:59 8,1 °C 90 % 1009,3 hPa 0,0 mm 3,7 km/h (1 Bft) SW 229 ° 0 min 0,000 mm 0,0 UV-I 0 W/m² 6,6 °C 8,1 °C 6,4 km/h (2 Bft)
03.12.2018 03:00 8,1 °C 90 % 1009,2 hPa 0,0 mm 6,2 km/h (2 Bft) W-SW 242 ° 0 min 0,000 mm 0,0 UV-I 0 W/m² 6,6 °C 7,2 °C 12,9 km/h (3 Bft)
03.12.2018 03:01 8,1 °C 90 % 1009,3 hPa 0,0 mm 10,2 km/h (2 Bft) S 188 ° 0 min 0,000 mm 0,0 UV-I 0 W/m² 6,6 °C 6,3 °C 17,7 km/h (3 Bft)
03.12.2018 03:02 8,1 °C 90 % 1009,3 hPa 0,0 mm 5,8 km/h (2 Bft) W 278 ° 0 min 0,000 mm 0,0 UV-I 0 W/m² 6,6 °C 7,3 °C 11,3 km/h (2 Bft)
03.12.2018 03:03 8,1 °C 90 % 1009,2 hPa 0,0 mm 8,2 km/h (2 Bft) W-SW 248 ° 0 min 0,000 mm 0,0 UV-I 0 W/m² 6,6 °C 6,7 °C 17,7 km/h (3 Bft)
03.12.2018 03:04 8,1 °C 90 % 1009,2 hPa 0,0 mm 8,2 km/h (2 Bft) W 261 ° 0 min 0,000 mm 0,0 UV-I 0 W/m² 6,6 °C 6,7 °C 14,5 km/h (3 Bft)
03.12.2018 03:05 8,1 °C 90 % 1009,3 hPa 0,0 mm 11,3 km/h (2 Bft) S 187 ° 0 min 0,000 mm 0,0 UV-I 0 W/m² 6,6 °C 6,1 °C 19,3 km/h (3 Bft)
03.12.2018 03:06 8,2 °C 90 % 1009,2 hPa 0,0 mm 7,1 km/h (2 Bft) S-SW 213 ° 0 min 0,000 mm 0,0 UV-I 0 W/m² 6,7 °C 7,1 °C 16,1 km/h (3 Bft)
03.12.2018 03:07 8,2 °C 90 % 1009,2 hPa 0,0 mm 10,2 km/h (2 Bft) S-SW 205 ° 0 min 0,000 mm 0,0 UV-I 0 W/m² 6,7 °C 6,4 °C 16,1 km/h (3 Bft)
03.12.2018 03:08 8,2 °C 90 % 1009,2 hPa 0,0 mm 9,6 km/h (2 Bft) W-SW 245 ° 0 min 0,000 mm 0,0 UV-I 0 W/m² 6,7 °C 6,6 °C 14,5 km/h (3 Bft)
03.12.2018 03:09 8,2 °C 90 % 1009,2 hPa 0,0 mm 11,9 km/h (2 Bft) W-SW 246 ° 0 min 0,000 mm 0,0 UV-I 0 W/m² 6,7 °C 6,2 °C 20,9 km/h (4 Bft)
03.12.2018 03:10 8,2 °C 90 % 1009,2 hPa 0,2 mm 10,5 km/h (2 Bft) SW 229 ° 0 min 0,000 mm 0,0 UV-I 0 W/m² 6,7 °C 6,4 °C 17,7 km/h (3 Bft)
03.12.2018 03:11 8,2 °C 90 % 1009,2 hPa 0,0 mm 10,4 km/h (2 Bft) SW 231 ° 0 min 0,000 mm 0,0 UV-I 0 W/m² 6,7 °C 6,4 °C 17,7 km/h (3 Bft)
03.12.2018 03:12 8,3 °C 90 % 1009,1 hPa 0,0 mm 9,9 km/h (2 Bft) SW 234 ° 0 min 0,000 mm 0,0 UV-I 0 W/m² 6,8 °C 6,6 °C 16,1 km/h (3 Bft)
03.12.2018 03:13 8,3 °C 90 % 1009,2 hPa 0,0 mm 11,9 km/h (2 Bft) W-SW 242 ° 0 min 0,000 mm 0,0 UV-I 0 W/m² 6,8 °C 6,3 °C 17,7 km/h (3 Bft)
03.12.2018 03:14 8,2 °C 89 % 1009,1 hPa 0,0 mm 7,6 km/h (2 Bft) W 264 ° 0 min 0,000 mm 0,0 UV-I 0 W/m² 6,5 °C 7,0 °C 12,9 km/h (3 Bft)
03.12.2018 03:15 8,3 °C 90 % 1009,2 hPa 0,0 mm 12,7 km/h (3 Bft) W 273 ° 0 min 0,000 mm 0,0 UV-I 0 W/m² 6,8 °C 6,1 °C 17,7 km/h (3 Bft)
03.12.2018 03:16 8,3 °C 90 % 1009,2 hPa 0,0 mm 13,9 km/h (3 Bft) W-SW 250 ° 0 min 0,000 mm 0,0 UV-I 0 W/m² 6,8 °C 6,0 °C 24,1 km/h (4 Bft)
03.12.2018 03:17 8,3 °C 90 % 1009,2 hPa 0,0 mm 10,9 km/h (2 Bft) SW 232 ° 0 min 0,000 mm 0,0 UV-I 0 W/m² 6,8 °C 6,4 °C 17,7 km/h (3 Bft)
03.12.2018 03:18 8,3 °C 89 % 1009,2 hPa 0,0 mm 11,5 km/h (2 Bft) W 264 ° 0 min 0,000 mm 0,0 UV-I 0 W/m² 6,6 °C 6,3 °C 16,1 km/h (3 Bft)
03.12.2018 03:19 8,3 °C 89 % 1009,2 hPa 0,0 mm 6,9 km/h (2 Bft) W 261 ° 0 min 0,000 mm 0,0 UV-I 0 W/m² 6,6 °C 7,3 °C 12,9 km/h (3 Bft)
03.12.2018 03:20 8,2 °C 89 % 1009,2 hPa 0,0 mm 5,2 km/h (1 Bft) W 265 ° 0 min 0,000 mm 0,0 UV-I 0 W/m² 6,5 °C 7,6 °C 11,3 km/h (2 Bft)
03.12.2018 03:21 8,2 °C 89 % 1009,2 hPa 0,2 mm 10,5 km/h (2 Bft) W 267 ° 0 min 0,000 mm 0,0 UV-I 0 W/m² 6,5 °C 6,4 °C 14,5 km/h (3 Bft)
03.12.2018 03:22 8,2 °C 89 % 1009,2 hPa 0,0 mm 13,4 km/h (3 Bft) W-SW 244 ° 0 min 0,000 mm 0,0 UV-I 0 W/m² 6,5 °C 5,9 °C 24,1 km/h (4 Bft)
03.12.2018 03:23 8,3 °C 89 % 1009,3 hPa 0,0 mm 9,8 km/h (2 Bft) W 261 ° 0 min 0,000 mm 0,0 UV-I 0 W/m² 6,6 °C 6,6 °C 16,1 km/h (3 Bft)
03.12.2018 03:24 8,2 °C 89 % 1009,3 hPa 0,0 mm 10,4 km/h (2 Bft) W 272 ° 0 min 0,000 mm 0,0 UV-I 0 W/m² 6,5 °C 6,4 °C 14,5 km/h (3 Bft)
03.12.2018 03:25 8,3 °C 89 % 1009,3 hPa 0,0 mm 10,9 km/h (2 Bft) SW 224 ° 0 min 0,000 mm 0,0 UV-I 0 W/m² 6,6 °C 6,4 °C 19,3 km/h (3 Bft)
03.12.2018 03:26 8,3 °C 90 % 1009,2 hPa 0,0 mm 8,0 km/h (2 Bft) W 261 ° 0 min 0,000 mm 0,0 UV-I 0 W/m² 6,8 °C 7,0 °C 14,5 km/h (3 Bft)
03.12.2018 03:27 8,2 °C 89 % 1009,3 hPa 0,0 mm 7,6 km/h (2 Bft) NW 309 ° 0 min 0,000 mm 0,0 UV-I 0 W/m² 6,5 °C 7,0 °C 16,1 km/h (3 Bft)
03.12.2018 03:28 8,2 °C 89 % 1009,3 hPa 0,2 mm 11,6 km/h (2 Bft) SW 236 ° 0 min 0,000 mm 0,0 UV-I 0 W/m² 6,5 °C 6,2 °C 20,9 km/h (4 Bft)
03.12.2018 03:29 8,2 °C 90 % 1009,3 hPa 0,0 mm 5,8 km/h (2 Bft) W-SW 252 ° 0 min 0,000 mm 0,0 UV-I 0 W/m² 6,7 °C 7,5 °C 9,7 km/h (2 Bft)
03.12.2018 03:30 8,2 °C 90 % 1009,3 hPa 0,0 mm 8,0 km/h (2 Bft) SW 229 ° 0 min 0,000 mm 0,0 UV-I 0 W/m² 6,7 °C 6,9 °C 12,9 km/h (3 Bft)
03.12.2018 03:31 8,2 °C 90 % 1009,2 hPa 0,0 mm 10,0 km/h (2 Bft) SW 215 ° 0 min 0,000 mm 0,0 UV-I 0 W/m² 6,7 °C 6,5 °C 16,1 km/h (3 Bft)
03.12.2018 03:32 8,2 °C 90 % 1009,2 hPa 0,2 mm 9,2 km/h (2 Bft) W-SW 240 ° 0 min 0,000 mm 0,0 UV-I 0 W/m² 6,7 °C 6,6 °C 14,5 km/h (3 Bft)
03.12.2018 03:33 8,2 °C 90 % 1009,2 hPa 0,0 mm 10,8 km/h (2 Bft) W-SW 255 ° 0 min 0,000 mm 0,0 UV-I 0 W/m² 6,7 °C 6,3 °C 19,3 km/h (3 Bft)
03.12.2018 03:34 8,2 °C 90 % 1009,3 hPa 0,2 mm 12,5 km/h (3 Bft) W-SW 250 ° 0 min 0,000 mm 0,0 UV-I 0 W/m² 6,7 °C 6,1 °C 19,3 km/h (3 Bft)
03.12.2018 03:35 8,2 °C 90 % 1009,3 hPa 0,0 mm 12,5 km/h (3 Bft) W-SW 249 ° 0 min 0,000 mm 0,0 UV-I 0 W/m² 6,7 °C 6,1 °C 19,3 km/h (3 Bft)
03.12.2018 03:36 8,2 °C 90 % 1009,1 hPa 0,0 mm 8,8 km/h (2 Bft) S-SW 199 ° 0 min 0,000 mm 0,0 UV-I 0 W/m² 6,7 °C 6,7 °C 17,7 km/h (3 Bft)
03.12.2018 03:37 8,1 °C 90 % 1008,9 hPa 0,2 mm 8,6 km/h (2 Bft) S-SW 205 ° 0 min 0,000 mm 0,0 UV-I 0 W/m² 6,6 °C 6,6 °C 12,9 km/h (3 Bft)
03.12.2018 03:38 8,1 °C 90 % 1008,8 hPa 0,0 mm 7,7 km/h (2 Bft) S-SW 198 ° 0 min 0,000 mm 0,0 UV-I 0 W/m² 6,6 °C 6,8 °C 12,9 km/h (3 Bft)
03.12.2018 03:39 8,1 °C 90 % 1008,9 hPa 0,2 mm 15,5 km/h (3 Bft) SW 234 ° 0 min 0,000 mm 0,0 UV-I 0 W/m² 6,6 °C 5,5 °C 33,8 km/h (5 Bft)
03.12.2018 03:40 8,1 °C 90 % 1008,9 hPa 0,0 mm 10,9 km/h (2 Bft) S-SW 197 ° 0 min 0,000 mm 0,0 UV-I 0 W/m² 6,6 °C 6,2 °C 19,3 km/h (3 Bft)
03.12.2018 03:41 8,0 °C 90 % 1009,0 hPa 0,2 mm 9,6 km/h (2 Bft) SW 229 ° 0 min 0,000 mm 0,0 UV-I 0 W/m² 6,5 °C 6,3 °C 14,5 km/h (3 Bft)
03.12.2018 03:42 8,0 °C 90 % 1009,0 hPa 0,0 mm 7,3 km/h (2 Bft) W-SW 248 ° 0 min 0,000 mm 0,0 UV-I 0 W/m² 6,5 °C 6,8 °C 11,3 km/h (2 Bft)
03.12.2018 03:43 8,0 °C 90 % 1009,2 hPa 0,0 mm 8,2 km/h (2 Bft) W 259 ° 0 min 0,000 mm 0,0 UV-I 0 W/m² 6,5 °C 6,6 °C 12,9 km/h (3 Bft)
03.12.2018 03:44 8,0 °C 90 % 1009,2 hPa 0,2 mm 5,0 km/h (1 Bft) SW 215 ° 0 min 0,000 mm 0,0 UV-I 0 W/m² 6,5 °C 7,5 °C 11,3 km/h (2 Bft)
03.12.2018 03:45 7,9 °C 90 % 1009,1 hPa 0,0 mm 8,0 km/h (2 Bft) S 180 ° 0 min 0,000 mm 0,0 UV-I 0 W/m² 6,4 °C 6,5 °C 22,5 km/h (4 Bft)
03.12.2018 03:46 7,9 °C 91 % 1009,2 hPa 0,2 mm 9,8 km/h (2 Bft) S-SW 206 ° 0 min 0,000 mm 0,0 UV-I 0 W/m² 6,5 °C 6,2 °C 14,5 km/h (3 Bft)
03.12.2018 03:47 7,9 °C 91 % 1009,1 hPa 0,0 mm 9,3 km/h (2 Bft) S 190 ° 0 min 0,000 mm 0,0 UV-I 0 W/m² 6,5 °C 6,3 °C 17,7 km/h (3 Bft)
03.12.2018 03:48 7,9 °C 91 % 1009,1 hPa 0,0 mm 12,7 km/h (3 Bft) SW 225 ° 0 min 0,000 mm 0,0 UV-I 0 W/m² 6,5 °C 5,7 °C 16,1 km/h (3 Bft)
03.12.2018 03:49 7,9 °C 91 % 1009,1 hPa 0,0 mm 8,3 km/h (2 Bft) SW 232 ° 0 min 0,000 mm 0,0 UV-I 0 W/m² 6,5 °C 6,5 °C 12,9 km/h (3 Bft)
03.12.2018 03:50 7,9 °C 91 % 1009,1 hPa 0,0 mm 9,1 km/h (2 Bft) W 272 ° 0 min 0,000 mm 0,0 UV-I 0 W/m² 6,5 °C 6,3 °C 20,9 km/h (4 Bft)
03.12.2018 03:51 7,9 °C 91 % 1009,1 hPa 0,2 mm 6,9 km/h (2 Bft) SW 232 ° 0 min 0,000 mm 0,0 UV-I 0 W/m² 6,5 °C 6,8 °C 14,5 km/h (3 Bft)
03.12.2018 03:52 7,9 °C 91 % 1009,1 hPa 0,0 mm 5,3 km/h (1 Bft) S 185 ° 0 min 0,000 mm 0,0 UV-I 0 W/m² 6,5 °C 7,3 °C 9,7 km/h (2 Bft)
03.12.2018 03:53 7,9 °C 91 % 1009,0 hPa 0,0 mm 15,2 km/h (3 Bft) W-SW 251 ° 0 min 0,000 mm 0,0 UV-I 0 W/m² 6,5 °C 5,3 °C 30,6 km/h (5 Bft)
03.12.2018 03:54 7,9 °C 91 % 1008,9 hPa 0,0 mm 9,8 km/h (2 Bft) SW 230 ° 0 min 0,000 mm 0,0 UV-I 0 W/m² 6,5 °C 6,2 °C 17,7 km/h (3 Bft)
03.12.2018 03:55 7,9 °C 91 % 1009,0 hPa 0,0 mm 8,6 km/h (2 Bft) W-SW 252 ° 0 min 0,000 mm 0,0 UV-I 0 W/m² 6,5 °C 6,4 °C 17,7 km/h (3 Bft)
03.12.2018 03:56 7,9 °C 91 % 1008,9 hPa 0,0 mm 12,5 km/h (3 Bft) SW 232 ° 0 min 0,000 mm 0,0 UV-I 0 W/m² 6,5 °C 5,7 °C 22,5 km/h (4 Bft)
03.12.2018 03:57 7,9 °C 91 % 1008,8 hPa 0,0 mm 8,5 km/h (2 Bft) W 277 ° 0 min 0,000 mm 0,0 UV-I 0 W/m² 6,5 °C 6,4 °C 14,5 km/h (3 Bft)
03.12.2018 03:58 7,9 °C 91 % 1008,9 hPa 0,0 mm 9,9 km/h (2 Bft) W-SW 252 ° 0 min 0,000 mm 0,0 UV-I 0 W/m² 6,5 °C 6,1 °C 16,1 km/h (3 Bft)
03.12.2018 03:59 7,9 °C 91 % 1008,9 hPa 0,0 mm 7,0 km/h (2 Bft) W 261 ° 0 min 0,000 mm 0,0 UV-I 0 W/m² 6,5 °C 6,8 °C 12,9 km/h (3 Bft)
03.12.2018 04:00 7,9 °C 91 % 1008,9 hPa 0,0 mm 7,8 km/h (2 Bft) W-SW 244 ° 0 min 0,025 mm 0,0 UV-I 0 W/m² 6,5 °C 6,6 °C 12,9 km/h (3 Bft)
03.12.2018 04:01 7,9 °C 91 % 1008,9 hPa 0,0 mm 9,8 km/h (2 Bft) SW 236 ° 0 min 0,000 mm 0,0 UV-I 0 W/m² 6,5 °C 6,2 °C 16,1 km/h (3 Bft)
03.12.2018 04:03 7,9 °C 91 % 1008,8 hPa 0,0 mm 11,0 km/h (2 Bft) SW 224 ° 0 min 0,000 mm 0,0 UV-I 0 W/m² 6,5 °C 5,9 °C 16,1 km/h (3 Bft)
03.12.2018 04:04 7,9 °C 90 % 1008,8 hPa 0,0 mm 7,7 km/h (2 Bft) W-SW 253 ° 0 min 0,000 mm 0,0 UV-I 0 W/m² 6,4 °C 6,6 °C 17,7 km/h (3 Bft)
03.12.2018 04:05 7,9 °C 90 % 1008,8 hPa 0,0 mm 9,3 km/h (2 Bft) W-NW 290 ° 0 min 0,000 mm 0,0 UV-I 0 W/m² 6,4 °C 6,3 °C 14,5 km/h (3 Bft)
03.12.2018 04:06 8,0 °C 90 % 1008,8 hPa 0,0 mm 13,8 km/h (3 Bft) W 259 ° 0 min 0,000 mm 0,0 UV-I 0 W/m² 6,5 °C 5,6 °C 22,5 km/h (4 Bft)
03.12.2018 04:07 8,0 °C 90 % 1008,8 hPa 0,0 mm 11,2 km/h (2 Bft) SW 215 ° 0 min 0,000 mm 0,0 UV-I 0 W/m² 6,5 °C 6,0 °C 16,1 km/h (3 Bft)
03.12.2018 04:08 8,0 °C 90 % 1008,8 hPa 0,0 mm 10,9 km/h (2 Bft) W-SW 250 ° 0 min 0,000 mm 0,0 UV-I 0 W/m² 6,5 °C 6,1 °C 16,1 km/h (3 Bft)
03.12.2018 04:09 8,0 °C 90 % 1008,7 hPa 0,0 mm 9,5 km/h (2 Bft) W 265 ° 0 min 0,000 mm 0,0 UV-I 0 W/m² 6,5 °C 6,3 °C 14,5 km/h (3 Bft)
03.12.2018 04:10 8,0 °C 90 % 1008,7 hPa 0,0 mm 6,7 km/h (2 Bft) SW 226 ° 0 min 0,000 mm 0,0 UV-I 0 W/m² 6,5 °C 7,0 °C 14,5 km/h (3 Bft)
03.12.2018 04:11 8,0 °C 90 % 1008,7 hPa 0,0 mm 9,5 km/h (2 Bft) W 269 ° 0 min 0,000 mm 0,0 UV-I 0 W/m² 6,5 °C 6,3 °C 19,3 km/h (3 Bft)
03.12.2018 04:12 8,0 °C 90 % 1008,7 hPa 0,0 mm 8,0 km/h (2 Bft) W 263 ° 0 min 0,000 mm 0,0 UV-I 0 W/m² 6,5 °C 6,7 °C 12,9 km/h (3 Bft)
03.12.2018 04:13 8,0 °C 90 % 1008,7 hPa 0,0 mm 5,3 km/h (1 Bft) W 262 ° 0 min 0,000 mm 0,0 UV-I 0 W/m² 6,5 °C 7,4 °C 8,0 km/h (2 Bft)
03.12.2018 04:14 8,0 °C 90 % 1008,7 hPa 0,0 mm 9,1 km/h (2 Bft) SW 219 ° 0 min 0,000 mm 0,0 UV-I 0 W/m² 6,5 °C 6,4 °C 16,1 km/h (3 Bft)
03.12.2018 04:15 8,0 °C 90 % 1008,7 hPa 0,0 mm 6,8 km/h (2 Bft) SW 226 ° 0 min 0,000 mm 0,0 UV-I 0 W/m² 6,5 °C 7,0 °C 11,3 km/h (2 Bft)
03.12.2018 04:16 8,0 °C 90 % 1008,7 hPa 0,0 mm 2,9 km/h (1 Bft) SW 232 ° 0 min 0,000 mm 0,0 UV-I 0 W/m² 6,5 °C 8,0 °C 6,4 km/h (2 Bft)
03.12.2018 04:17 8,0 °C 90 % 1008,7 hPa 0,0 mm 2,4 km/h (1 Bft) W-SW 238 ° 0 min 0,000 mm 0,0 UV-I 0 W/m² 6,5 °C 8,0 °C 4,8 km/h (1 Bft)
03.12.2018 04:18 8,0 °C 90 % 1008,7 hPa 0,0 mm 5,4 km/h (1 Bft) S-SW 192 ° 0 min 0,000 mm 0,0 UV-I 0 W/m² 6,5 °C 7,4 °C 9,7 km/h (2 Bft)
03.12.2018 04:19 8,0 °C 90 % 1008,7 hPa 0,0 mm 4,0 km/h (1 Bft) W-SW 251 ° 0 min 0,000 mm 0,0 UV-I 0 W/m² 6,5 °C 8,0 °C 8,0 km/h (2 Bft)
03.12.2018 04:20 8,0 °C 90 % 1008,7 hPa 0,0 mm 4,9 km/h (1 Bft) SW 227 ° 0 min 0,000 mm 0,0 UV-I 0 W/m² 6,5 °C 7,5 °C 6,4 km/h (2 Bft)
03.12.2018 04:21 8,0 °C 90 % 1008,8 hPa 0,0 mm 4,4 km/h (1 Bft) S-SW 197 ° 0 min 0,000 mm 0,0 UV-I 0 W/m² 6,5 °C 8,0 °C 6,4 km/h (2 Bft)
03.12.2018 04:22 7,9 °C 90 % 1008,8 hPa 0,0 mm 2,0 km/h (1 Bft) W-SW 250 ° 0 min 0,000 mm 0,0 UV-I 0 W/m² 6,4 °C 7,9 °C 6,4 km/h (2 Bft)
03.12.2018 04:23 8,0 °C 90 % 1008,8 hPa 0,0 mm 5,7 km/h (1 Bft) W 263 ° 0 min 0,000 mm 0,0 UV-I 0 W/m² 6,5 °C 7,3 °C 12,9 km/h (3 Bft)
03.12.2018 04:24 7,9 °C 90 % 1008,8 hPa 0,0 mm 5,2 km/h (1 Bft) SW 234 ° 0 min 0,000 mm 0,0 UV-I 0 W/m² 6,4 °C 7,3 °C 11,3 km/h (2 Bft)
03.12.2018 04:25 7,9 °C 90 % 1008,7 hPa 0,0 mm 3,0 km/h (1 Bft) SW 235 ° 0 min 0,000 mm 0,0 UV-I 0 W/m² 6,4 °C 7,9 °C 4,8 km/h (1 Bft)
03.12.2018 04:26 7,9 °C 90 % 1008,7 hPa 0,0 mm 3,2 km/h (1 Bft) SW 228 ° 0 min 0,000 mm 0,0 UV-I 0 W/m² 6,4 °C 7,9 °C 4,8 km/h (1 Bft)
03.12.2018 04:27 7,9 °C 90 % 1008,7 hPa 0,0 mm 1,7 km/h (1 Bft) SW 224 ° 0 min 0,000 mm 0,0 UV-I 0 W/m² 6,4 °C 7,9 °C 3,2 km/h (1 Bft)
03.12.2018 04:28 7,9 °C 90 % 1008,7 hPa 0,0 mm 1,7 km/h (1 Bft) W-SW 255 ° 0 min 0,000 mm 0,0 UV-I 0 W/m² 6,4 °C 7,9 °C 3,2 km/h (1 Bft)
03.12.2018 04:29 7,9 °C 90 % 1008,8 hPa 0,0 mm 1,4 km/h (1 Bft) SW 232 ° 0 min 0,000 mm 0,0 UV-I 0 W/m² 6,4 °C 7,9 °C 3,2 km/h (1 Bft)
03.12.2018 04:30 7,9 °C 90 % 1008,8 hPa 0,0 mm 1,7 km/h (1 Bft) SW 227 ° 0 min 0,000 mm 0,0 UV-I 0 W/m² 6,4 °C 7,9 °C 4,8 km/h (1 Bft)
03.12.2018 04:31 7,9 °C 90 % 1008,9 hPa 0,0 mm 0,8 km/h (0 Bft) SW 227 ° 0 min 0,000 mm 0,0 UV-I 0 W/m² 6,4 °C 7,9 °C 3,2 km/h (1 Bft)
03.12.2018 04:32 7,9 °C 90 % 1008,8 hPa 0,0 mm 2,6 km/h (1 Bft) S-SW 211 ° 0 min 0,000 mm 0,0 UV-I 0 W/m² 6,4 °C 7,9 °C 6,4 km/h (2 Bft)
03.12.2018 04:33 8,0 °C 90 % 1008,8 hPa 0,0 mm 0,9 km/h (0 Bft) S-SW 211 ° 0 min 0,000 mm 0,0 UV-I 0 W/m² 6,5 °C 8,0 °C 3,2 km/h (1 Bft)
03.12.2018 04:34 8,0 °C 90 % 1008,8 hPa 0,0 mm 2,8 km/h (1 Bft) S 188 ° 0 min 0,000 mm 0,0 UV-I 0 W/m² 6,5 °C 8,0 °C 8,0 km/h (2 Bft)
03.12.2018 04:35 7,9 °C 90 % 1008,8 hPa 0,0 mm 2,8 km/h (1 Bft) W-SW 252 ° 0 min 0,000 mm 0,0 UV-I 0 W/m² 6,4 °C 7,9 °C 6,4 km/h (2 Bft)
03.12.2018 04:36 8,0 °C 90 % 1008,9 hPa 0,0 mm 3,8 km/h (1 Bft) W-SW 254 ° 0 min 0,000 mm 0,0 UV-I 0 W/m² 6,5 °C 8,0 °C 6,4 km/h (2 Bft)
03.12.2018 04:37 8,0 °C 90 % 1008,9 hPa 0,0 mm 1,7 km/h (1 Bft) W-SW 254 ° 0 min 0,000 mm 0,0 UV-I 0 W/m² 6,5 °C 8,0 °C 4,8 km/h (1 Bft)
03.12.2018 04:38 8,0 °C 90 % 1008,9 hPa 0,0 mm 2,6 km/h (1 Bft) S 188 ° 0 min 0,000 mm 0,0 UV-I 0 W/m² 6,5 °C 8,0 °C 6,4 km/h (2 Bft)
03.12.2018 04:39 8,0 °C 90 % 1008,8 hPa 0,0 mm 2,7 km/h (1 Bft) S 190 ° 0 min 0,000 mm 0,0 UV-I 0 W/m² 6,5 °C 8,0 °C 6,4 km/h (2 Bft)
03.12.2018 04:40 8,0 °C 90 % 1008,8 hPa 0,0 mm 3,1 km/h (1 Bft) S-SW 201 ° 0 min 0,000 mm 0,0 UV-I 0 W/m² 6,5 °C 8,0 °C 4,8 km/h (1 Bft)
03.12.2018 04:41 8,0 °C 90 % 1008,8 hPa 0,0 mm 5,1 km/h (1 Bft) W-SW 250 ° 0 min 0,000 mm 0,0 UV-I 0 W/m² 6,5 °C 7,5 °C 6,4 km/h (2 Bft)
03.12.2018 04:42 8,0 °C 90 % 1008,9 hPa 0,0 mm 2,3 km/h (1 Bft) W 274 ° 0 min 0,000 mm 0,0 UV-I 0 W/m² 6,5 °C 8,0 °C 6,4 km/h (2 Bft)
03.12.2018 04:43 8,0 °C 90 % 1008,9 hPa 0,0 mm 3,6 km/h (1 Bft) W-SW 258 ° 0 min 0,000 mm 0,0 UV-I 0 W/m² 6,5 °C 8,0 °C 6,4 km/h (2 Bft)
03.12.2018 04:44 8,0 °C 90 % 1008,9 hPa 0,0 mm 1,5 km/h (1 Bft) W-SW 258 ° 0 min 0,000 mm 0,0 UV-I 0 W/m² 6,5 °C 8,0 °C 3,2 km/h (1 Bft)
03.12.2018 04:45 8,0 °C 90 % 1008,9 hPa 0,0 mm 2,4 km/h (1 Bft) SW 227 ° 0 min 0,000 mm 0,0 UV-I 0 W/m² 6,5 °C 8,0 °C 4,8 km/h (1 Bft)
03.12.2018 04:46 8,1 °C 90 % 1008,9 hPa 0,0 mm 2,7 km/h (1 Bft) S-SW 202 ° 0 min 0,000 mm 0,0 UV-I 0 W/m² 6,6 °C 8,1 °C 6,4 km/h (2 Bft)
03.12.2018 04:47 8,0 °C 90 % 1008,9 hPa 0,0 mm 2,3 km/h (1 Bft) W-SW 248 ° 0 min 0,000 mm 0,0 UV-I 0 W/m² 6,5 °C 8,0 °C 6,4 km/h (2 Bft)
03.12.2018 04:48 8,0 °C 90 % 1008,9 hPa 0,0 mm 5,2 km/h (1 Bft) W-SW 241 ° 0 min 0,000 mm 0,0 UV-I 0 W/m² 6,5 °C 7,4 °C 8,0 km/h (2 Bft)
03.12.2018 04:49 8,1 °C 90 % 1009,0 hPa 0,0 mm 4,4 km/h (1 Bft) W 264 ° 0 min 0,000 mm 0,0 UV-I 0 W/m² 6,6 °C 8,1 °C 9,7 km/h (2 Bft)
03.12.2018 04:50 8,1 °C 90 % 1009,0 hPa 0,0 mm 7,9 km/h (2 Bft) W-SW 248 ° 0 min 0,000 mm 0,0 UV-I 0 W/m² 6,6 °C 6,8 °C 11,3 km/h (2 Bft)
03.12.2018 04:51 8,1 °C 90 % 1009,0 hPa 0,0 mm 6,6 km/h (2 Bft) W-SW 258 ° 0 min 0,000 mm 0,0 UV-I 0 W/m² 6,6 °C 7,1 °C 11,3 km/h (2 Bft)
03.12.2018 04:52 8,1 °C 90 % 1009,0 hPa 0,0 mm 2,8 km/h (1 Bft) SW 225 ° 0 min 0,000 mm 0,0 UV-I 0 W/m² 6,6 °C 8,1 °C 4,8 km/h (1 Bft)
03.12.2018 04:53 8,1 °C 90 % 1009,0 hPa 0,0 mm 3,2 km/h (1 Bft) W 262 ° 0 min 0,000 mm 0,0 UV-I 0 W/m² 6,6 °C 8,1 °C 6,4 km/h (2 Bft)
03.12.2018 04:54 8,1 °C 90 % 1009,0 hPa 0,0 mm 3,3 km/h (1 Bft) W-SW 258 ° 0 min 0,000 mm 0,0 UV-I 0 W/m² 6,6 °C 8,1 °C 4,8 km/h (1 Bft)
03.12.2018 04:55 8,1 °C 90 % 1009,0 hPa 0,0 mm 1,2 km/h (1 Bft) W-SW 250 ° 0 min 0,000 mm 0,0 UV-I 0 W/m² 6,6 °C 8,1 °C 3,2 km/h (1 Bft)
03.12.2018 04:56 8,1 °C 90 % 1008,9 hPa 0,0 mm 4,0 km/h (1 Bft) W 273 ° 0 min 0,000 mm 0,0 UV-I 0 W/m² 6,6 °C 8,1 °C 6,4 km/h (2 Bft)
03.12.2018 04:57 8,1 °C 90 % 1008,9 hPa 0,0 mm 2,3 km/h (1 Bft) SW 223 ° 0 min 0,000 mm 0,0 UV-I 0 W/m² 6,6 °C 8,1 °C 4,8 km/h (1 Bft)
03.12.2018 04:58 8,2 °C 90 % 1008,8 hPa 0,0 mm 1,9 km/h (1 Bft) SW 218 ° 0 min 0,000 mm 0,0 UV-I 0 W/m² 6,7 °C 8,2 °C 4,8 km/h (1 Bft)
03.12.2018 04:59 8,2 °C 90 % 1008,8 hPa 0,0 mm 2,2 km/h (1 Bft) SW 224 ° 0 min 0,000 mm 0,0 UV-I 0 W/m² 6,7 °C 8,2 °C 3,2 km/h (1 Bft)
03.12.2018 05:00 8,2 °C 90 % 1008,9 hPa 0,0 mm 2,2 km/h (1 Bft) W-SW 249 ° 0 min 0,000 mm 0,0 UV-I 0 W/m² 6,7 °C 8,2 °C 8,0 km/h (2 Bft)
03.12.2018 05:01 8,2 °C 90 % 1008,8 hPa 0,0 mm 2,7 km/h (1 Bft) SW 224 ° 0 min 0,000 mm 0,0 UV-I 0 W/m² 6,7 °C 8,2 °C 4,8 km/h (1 Bft)
03.12.2018 05:02 8,2 °C 90 % 1008,7 hPa 0,0 mm 3,6 km/h (1 Bft) S 180 ° 0 min 0,000 mm 0,0 UV-I 0 W/m² 6,7 °C 8,2 °C 8,0 km/h (2 Bft)
03.12.2018 05:03 8,3 °C 90 % 1008,7 hPa 0,0 mm 6,3 km/h (2 Bft) W-SW 252 ° 0 min 0,000 mm 0,0 UV-I 0 W/m² 6,8 °C 7,4 °C 11,3 km/h (2 Bft)
03.12.2018 05:04 8,3 °C 90 % 1008,7 hPa 0,0 mm 7,3 km/h (2 Bft) SW 224 ° 0 min 0,000 mm 0,0 UV-I 0 W/m² 6,8 °C 7,2 °C 12,9 km/h (3 Bft)
03.12.2018 05:05 8,3 °C 90 % 1008,7 hPa 0,0 mm 3,0 km/h (1 Bft) S 182 ° 0 min 0,000 mm 0,0 UV-I 0 W/m² 6,8 °C 8,3 °C 9,7 km/h (2 Bft)
03.12.2018 05:06 8,3 °C 90 % 1008,7 hPa 0,0 mm 2,0 km/h (1 Bft) S 186 ° 0 min 0,000 mm 0,0 UV-I 0 W/m² 6,8 °C 8,3 °C 6,4 km/h (2 Bft)
03.12.2018 05:07 8,3 °C 90 % 1008,7 hPa 0,0 mm 5,8 km/h (2 Bft) S-SW 206 ° 0 min 0,000 mm 0,0 UV-I 0 W/m² 6,8 °C 7,6 °C 16,1 km/h (3 Bft)
03.12.2018 05:08 8,4 °C 90 % 1008,8 hPa 0,0 mm 9,4 km/h (2 Bft) W 263 ° 0 min 0,000 mm 0,0 UV-I 0 W/m² 6,9 °C 6,8 °C 16,1 km/h (3 Bft)
03.12.2018 05:09 8,4 °C 90 % 1008,8 hPa 0,0 mm 6,2 km/h (2 Bft) W 262 ° 0 min 0,000 mm 0,0 UV-I 0 W/m² 6,9 °C 7,6 °C 11,3 km/h (2 Bft)
03.12.2018 05:10 8,4 °C 90 % 1008,8 hPa 0,0 mm 5,0 km/h (1 Bft) W-SW 248 ° 0 min 0,000 mm 0,0 UV-I 0 W/m² 6,9 °C 7,9 °C 9,7 km/h (2 Bft)
03.12.2018 05:11 8,4 °C 90 % 1008,8 hPa 0,0 mm 3,2 km/h (1 Bft) W-SW 256 ° 0 min 0,000 mm 0,0 UV-I 0 W/m² 6,9 °C 8,4 °C 8,0 km/h (2 Bft)
03.12.2018 05:12 8,5 °C 90 % 1008,8 hPa 0,0 mm 5,7 km/h (1 Bft) W 281 ° 0 min 0,000 mm 0,0 UV-I 0 W/m² 7,0 °C 7,8 °C 11,3 km/h (2 Bft)
03.12.2018 05:13 8,5 °C 90 % 1008,8 hPa 0,0 mm 5,9 km/h (2 Bft) W-SW 251 ° 0 min 0,000 mm 0,0 UV-I 0 W/m² 7,0 °C 7,8 °C 11,3 km/h (2 Bft)
03.12.2018 05:14 8,6 °C 90 % 1008,7 hPa 0,0 mm 3,1 km/h (1 Bft) W-SW 238 ° 0 min 0,000 mm 0,0 UV-I 0 W/m² 7,1 °C 8,6 °C 6,4 km/h (2 Bft)
03.12.2018 05:15 8,6 °C 90 % 1008,6 hPa 0,0 mm 3,0 km/h (1 Bft) W 270 ° 0 min 0,000 mm 0,0 UV-I 0 W/m² 7,1 °C 8,6 °C 6,4 km/h (2 Bft)
03.12.2018 05:16 8,6 °C 90 % 1008,6 hPa 0,0 mm 5,2 km/h (1 Bft) SW 232 ° 0 min 0,000 mm 0,0 UV-I 0 W/m² 7,1 °C 8,1 °C 9,7 km/h (2 Bft)
03.12.2018 05:17 8,6 °C 90 % 1008,6 hPa 0,0 mm 6,6 km/h (2 Bft) SW 233 ° 0 min 0,000 mm 0,0 UV-I 0 W/m² 7,1 °C 7,7 °C 11,3 km/h (2 Bft)
03.12.2018 05:18 8,6 °C 90 % 1008,6 hPa 0,0 mm 2,8 km/h (1 Bft) SW 217 ° 0 min 0,000 mm 0,0 UV-I 0 W/m² 7,1 °C 8,6 °C 4,8 km/h (1 Bft)
03.12.2018 05:19 8,6 °C 90 % 1008,7 hPa 0,0 mm 5,9 km/h (2 Bft) S-SW 213 ° 0 min 0,000 mm 0,0 UV-I 0 W/m² 7,1 °C 7,9 °C 12,9 km/h (3 Bft)
03.12.2018 05:20 8,6 °C 90 % 1008,7 hPa 0,0 mm 4,0 km/h (1 Bft) SW 232 ° 0 min 0,000 mm 0,0 UV-I 0 W/m² 7,1 °C 8,6 °C 6,4 km/h (2 Bft)
03.12.2018 05:21 8,7 °C 89 % 1008,7 hPa 0,0 mm 6,2 km/h (2 Bft) W 267 ° 0 min 0,000 mm 0,0 UV-I 0 W/m² 7,0 °C 7,9 °C 9,7 km/h (2 Bft)
03.12.2018 05:22 8,7 °C 89 % 1008,7 hPa 0,0 mm 4,8 km/h (1 Bft) W-SW 254 ° 0 min 0,000 mm 0,0 UV-I 0 W/m² 7,0 °C 8,3 °C 8,0 km/h (2 Bft)
03.12.2018 05:23 8,7 °C 89 % 1008,7 hPa 0,0 mm 4,8 km/h (1 Bft) W 263 ° 0 min 0,000 mm 0,0 UV-I 0 W/m² 7,0 °C 8,3 °C 11,3 km/h (2 Bft)
03.12.2018 05:24 8,7 °C 89 % 1008,7 hPa 0,0 mm 6,8 km/h (2 Bft) W-SW 241 ° 0 min 0,000 mm 0,0 UV-I 0 W/m² 7,0 °C 7,8 °C 12,9 km/h (3 Bft)
03.12.2018 05:25 8,7 °C 89 % 1008,7 hPa 0,0 mm 4,8 km/h (1 Bft) W-SW 250 ° 0 min 0,000 mm 0,0 UV-I 0 W/m² 7,0 °C 8,3 °C 6,4 km/h (2 Bft)
03.12.2018 05:26 8,7 °C 89 % 1008,8 hPa 0,0 mm 6,8 km/h (2 Bft) W 270 ° 0 min 0,000 mm 0,0 UV-I 0 W/m² 7,0 °C 7,8 °C 12,9 km/h (3 Bft)
03.12.2018 05:27 8,7 °C 89 % 1008,8 hPa 0,0 mm 6,7 km/h (2 Bft) SW 229 ° 0 min 0,000 mm 0,0 UV-I 0 W/m² 7,0 °C 7,8 °C 17,7 km/h (3 Bft)
03.12.2018 05:28 8,7 °C 89 % 1008,7 hPa 0,0 mm 8,8 km/h (2 Bft) W 259 ° 0 min 0,000 mm 0,0 UV-I 0 W/m² 7,0 °C 7,3 °C 12,9 km/h (3 Bft)
03.12.2018 05:29 8,7 °C 89 % 1008,8 hPa 0,0 mm 6,4 km/h (2 Bft) W 259 ° 0 min 0,000 mm 0,0 UV-I 0 W/m² 7,0 °C 7,9 °C 11,3 km/h (2 Bft)
03.12.2018 05:30 8,7 °C 89 % 1008,8 hPa 0,0 mm 4,5 km/h (1 Bft) W-SW 250 ° 0 min 0,000 mm 0,0 UV-I 0 W/m² 7,0 °C 8,7 °C 9,7 km/h (2 Bft)
03.12.2018 05:31 8,7 °C 89 % 1008,8 hPa 0,0 mm 7,8 km/h (2 Bft) W 261 ° 0 min 0,000 mm 0,0 UV-I 0 W/m² 7,0 °C 7,5 °C 11,3 km/h (2 Bft)
03.12.2018 05:32 8,7 °C 89 % 1008,8 hPa 0,0 mm 6,8 km/h (2 Bft) S-SW 211 ° 0 min 0,000 mm 0,0 UV-I 0 W/m² 7,0 °C 7,8 °C 9,7 km/h (2 Bft)
03.12.2018 05:33 8,7 °C 89 % 1008,8 hPa 0,0 mm 9,3 km/h (2 Bft) W-SW 248 ° 0 min 0,000 mm 0,0 UV-I 0 W/m² 7,0 °C 7,2 °C 14,5 km/h (3 Bft)
03.12.2018 05:34 8,7 °C 89 % 1008,8 hPa 0,0 mm 5,3 km/h (1 Bft) W 261 ° 0 min 0,000 mm 0,0 UV-I 0 W/m² 7,0 °C 8,2 °C 12,9 km/h (3 Bft)
03.12.2018 05:35 8,7 °C 89 % 1008,8 hPa 0,0 mm 10,0 km/h (2 Bft) W 267 ° 0 min 0,000 mm 0,0 UV-I 0 W/m² 7,0 °C 7,1 °C 14,5 km/h (3 Bft)
03.12.2018 05:36 8,7 °C 89 % 1008,8 hPa 0,0 mm 8,5 km/h (2 Bft) W 280 ° 0 min 0,000 mm 0,0 UV-I 0 W/m² 7,0 °C 7,4 °C 14,5 km/h (3 Bft)
03.12.2018 05:37 8,7 °C 89 % 1008,8 hPa 0,0 mm 10,8 km/h (2 Bft) W-SW 246 ° 0 min 0,000 mm 0,0 UV-I 0 W/m² 7,0 °C 6,9 °C 16,1 km/h (3 Bft)
03.12.2018 05:38 8,7 °C 89 % 1008,8 hPa 0,0 mm 11,8 km/h (2 Bft) W-SW 254 ° 0 min 0,000 mm 0,0 UV-I 0 W/m² 7,0 °C 6,8 °C 16,1 km/h (3 Bft)
03.12.2018 05:39 8,7 °C 89 % 1008,8 hPa 0,0 mm 11,5 km/h (2 Bft) W 261 ° 0 min 0,000 mm 0,0 UV-I 0 W/m² 7,0 °C 6,8 °C 12,9 km/h (3 Bft)
03.12.2018 05:40 8,7 °C 89 % 1008,8 hPa 0,0 mm 10,2 km/h (2 Bft) W-SW 257 ° 0 min 0,000 mm 0,0 UV-I 0 W/m² 7,0 °C 7,0 °C 14,5 km/h (3 Bft)
03.12.2018 05:41 8,7 °C 89 % 1008,8 hPa 0,0 mm 6,8 km/h (2 Bft) W-SW 246 ° 0 min 0,000 mm 0,0 UV-I 0 W/m² 7,0 °C 7,8 °C 11,3 km/h (2 Bft)
03.12.2018 05:42 8,7 °C 89 % 1008,8 hPa 0,0 mm 7,7 km/h (2 Bft) W-SW 244 ° 0 min 0,000 mm 0,0 UV-I 0 W/m² 7,0 °C 7,5 °C 14,5 km/h (3 Bft)
03.12.2018 05:43 8,7 °C 89 % 1008,9 hPa 0,0 mm 7,9 km/h (2 Bft) W-SW 254 ° 0 min 0,000 mm 0,0 UV-I 0 W/m² 7,0 °C 7,5 °C 12,9 km/h (3 Bft)
03.12.2018 05:44 8,7 °C 89 % 1009,0 hPa 0,0 mm 10,3 km/h (2 Bft) W 271 ° 0 min 0,000 mm 0,0 UV-I 0 W/m² 7,0 °C 7,0 °C 14,5 km/h (3 Bft)
03.12.2018 05:45 8,7 °C 89 % 1009,0 hPa 0,0 mm 11,7 km/h (2 Bft) W 264 ° 0 min 0,000 mm 0,0 UV-I 0 W/m² 7,0 °C 6,8 °C 14,5 km/h (3 Bft)
03.12.2018 05:46 8,7 °C 89 % 1009,0 hPa 0,0 mm 7,3 km/h (2 Bft) W-SW 257 ° 0 min 0,000 mm 0,0 UV-I 0 W/m² 7,0 °C 7,6 °C 12,9 km/h (3 Bft)
03.12.2018 05:47 8,7 °C 89 % 1009,0 hPa 0,0 mm 10,5 km/h (2 Bft) W 267 ° 0 min 0,000 mm 0,0 UV-I 0 W/m² 7,0 °C 7,0 °C 12,9 km/h (3 Bft)
03.12.2018 05:48 8,7 °C 89 % 1009,0 hPa 0,0 mm 9,5 km/h (2 Bft) W 271 ° 0 min 0,000 mm 0,0 UV-I 0 W/m² 7,0 °C 7,2 °C 12,9 km/h (3 Bft)
03.12.2018 05:49 8,7 °C 89 % 1009,0 hPa 0,0 mm 10,9 km/h (2 Bft) W-SW 246 ° 0 min 0,000 mm 0,0 UV-I 0 W/m² 7,0 °C 6,9 °C 14,5 km/h (3 Bft)
03.12.2018 05:50 8,7 °C 89 % 1009,0 hPa 0,0 mm 4,8 km/h (1 Bft) W-SW 240 ° 0 min 0,000 mm 0,0 UV-I 0 W/m² 7,0 °C 8,3 °C 11,3 km/h (2 Bft)
03.12.2018 05:51 8,7 °C 89 % 1009,0 hPa 0,0 mm 7,3 km/h (2 Bft) W 271 ° 0 min 0,000 mm 0,0 UV-I 0 W/m² 7,0 °C 7,6 °C 12,9 km/h (3 Bft)
03.12.2018 05:52 8,7 °C 89 % 1009,0 hPa 0,2 mm 12,9 km/h (3 Bft) W-SW 254 ° 0 min 0,000 mm 0,0 UV-I 0 W/m² 7,0 °C 6,6 °C 16,1 km/h (3 Bft)
03.12.2018 05:53 8,7 °C 89 % 1009,1 hPa 0,0 mm 11,3 km/h (2 Bft) W-SW 243 ° 0 min 0,000 mm 0,0 UV-I 0 W/m² 7,0 °C 6,9 °C 14,5 km/h (3 Bft)
03.12.2018 05:54 8,7 °C 89 % 1009,0 hPa 0,2 mm 8,6 km/h (2 Bft) W 259 ° 0 min 0,000 mm 0,0 UV-I 0 W/m² 7,0 °C 7,4 °C 14,5 km/h (3 Bft)
03.12.2018 05:55 8,7 °C 90 % 1009,0 hPa 0,0 mm 4,2 km/h (1 Bft) W-SW 250 ° 0 min 0,000 mm 0,0 UV-I 0 W/m² 7,2 °C 8,7 °C 6,4 km/h (2 Bft)
03.12.2018 05:56 8,7 °C 90 % 1009,0 hPa 0,0 mm 3,5 km/h (1 Bft) W-NW 283 ° 0 min 0,000 mm 0,0 UV-I 0 W/m² 7,2 °C 8,7 °C 6,4 km/h (2 Bft)
03.12.2018 05:57 8,7 °C 90 % 1008,9 hPa 0,0 mm 5,5 km/h (1 Bft) SW 235 ° 0 min 0,000 mm 0,0 UV-I 0 W/m² 7,2 °C 8,1 °C 9,7 km/h (2 Bft)
03.12.2018 05:58 8,7 °C 90 % 1008,9 hPa 0,0 mm 4,6 km/h (1 Bft) S 189 ° 0 min 0,000 mm 0,0 UV-I 0 W/m² 7,2 °C 8,4 °C 8,0 km/h (2 Bft)
03.12.2018 05:59 8,7 °C 90 % 1008,9 hPa 0,0 mm 1,3 km/h (1 Bft) S-SW 194 ° 0 min 0,000 mm 0,0 UV-I 0 W/m² 7,2 °C 8,7 °C 3,2 km/h (1 Bft)
03.12.2018 06:00 8,7 °C 90 % 1008,9 hPa 0,2 mm 2,7 km/h (1 Bft) W-SW 242 ° 0 min 0,000 mm 0,0 UV-I 0 W/m² 7,2 °C 8,7 °C 4,8 km/h (1 Bft)
03.12.2018 06:01 8,7 °C 90 % 1008,9 hPa 0,0 mm 6,0 km/h (2 Bft) SW 217 ° 0 min 0,000 mm 0,0 UV-I 0 W/m² 7,2 °C 8,0 °C 11,3 km/h (2 Bft)
03.12.2018 06:02 8,6 °C 90 % 1008,8 hPa 0,0 mm 4,8 km/h (1 Bft) W-SW 242 ° 0 min 0,000 mm 0,0 UV-I 0 W/m² 7,1 °C 8,2 °C 8,0 km/h (2 Bft)
03.12.2018 06:03 8,7 °C 90 % 1008,9 hPa 0,0 mm 7,3 km/h (2 Bft) W 265 ° 0 min 0,000 mm 0,0 UV-I 0 W/m² 7,2 °C 7,6 °C 11,3 km/h (2 Bft)
03.12.2018 06:04 8,7 °C 90 % 1008,8 hPa 0,0 mm 4,0 km/h (1 Bft) W 262 ° 0 min 0,000 mm 0,0 UV-I 0 W/m² 7,2 °C 8,7 °C 6,4 km/h (2 Bft)
03.12.2018 06:05 8,6 °C 90 % 1008,9 hPa 0,0 mm 7,6 km/h (2 Bft) W-SW 238 ° 0 min 0,000 mm 0,0 UV-I 0 W/m² 7,1 °C 7,5 °C 11,3 km/h (2 Bft)
03.12.2018 06:06 8,6 °C 90 % 1008,9 hPa 0,0 mm 4,4 km/h (1 Bft) W 263 ° 0 min 0,000 mm 0,0 UV-I 0 W/m² 7,1 °C 8,6 °C 9,7 km/h (2 Bft)
03.12.2018 06:07 8,6 °C 90 % 1008,9 hPa 0,0 mm 5,6 km/h (1 Bft) W-SW 250 ° 0 min 0,000 mm 0,0 UV-I 0 W/m² 7,1 °C 8,0 °C 9,7 km/h (2 Bft)
03.12.2018 06:08 8,6 °C 90 % 1008,9 hPa 0,0 mm 5,4 km/h (1 Bft) W 261 ° 0 min 0,000 mm 0,0 UV-I 0 W/m² 7,1 °C 8,0 °C 6,4 km/h (2 Bft)
03.12.2018 06:09 8,6 °C 90 % 1008,9 hPa 0,0 mm 5,5 km/h (1 Bft) W 263 ° 0 min 0,000 mm 0,0 UV-I 0 W/m² 7,1 °C 8,0 °C 9,7 km/h (2 Bft)
03.12.2018 06:10 8,6 °C 90 % 1009,0 hPa 0,2 mm 4,1 km/h (1 Bft) W-SW 258 ° 0 min 0,000 mm 0,0 UV-I 0 W/m² 7,1 °C 8,6 °C 4,8 km/h (1 Bft)
03.12.2018 06:11 8,6 °C 91 % 1009,0 hPa 0,0 mm 4,8 km/h (1 Bft) W 262 ° 0 min 0,000 mm 0,0 UV-I 0 W/m² 7,2 °C 8,2 °C 6,4 km/h (2 Bft)
03.12.2018 06:12 8,6 °C 91 % 1009,0 hPa 0,0 mm 4,2 km/h (1 Bft) W-SW 248 ° 0 min 0,000 mm 0,0 UV-I 0 W/m² 7,2 °C 8,6 °C 6,4 km/h (2 Bft)
03.12.2018 06:13 8,6 °C 91 % 1009,0 hPa 0,0 mm 5,4 km/h (1 Bft) W 271 ° 0 min 0,000 mm 0,0 UV-I 0 W/m² 7,2 °C 8,0 °C 9,7 km/h (2 Bft)
03.12.2018 06:14 8,6 °C 91 % 1009,0 hPa 0,0 mm 7,0 km/h (2 Bft) W 264 ° 0 min 0,000 mm 0,0 UV-I 0 W/m² 7,2 °C 7,6 °C 11,3 km/h (2 Bft)
03.12.2018 06:15 8,6 °C 91 % 1008,9 hPa 0,0 mm 4,0 km/h (1 Bft) W 261 ° 0 min 0,000 mm 0,0 UV-I 0 W/m² 7,2 °C 8,6 °C 4,8 km/h (1 Bft)
03.12.2018 06:16 8,5 °C 91 % 1008,9 hPa 0,0 mm 4,4 km/h (1 Bft) W 260 ° 0 min 0,000 mm 0,0 UV-I 0 W/m² 7,1 °C 8,5 °C 6,4 km/h (2 Bft)
03.12.2018 06:17 8,5 °C 91 % 1009,0 hPa 0,0 mm 5,0 km/h (1 Bft) W 263 ° 0 min 0,000 mm 0,0 UV-I 0 W/m² 7,1 °C 8,1 °C 6,4 km/h (2 Bft)
03.12.2018 06:18 8,4 °C 91 % 1009,0 hPa 0,0 mm 4,0 km/h (1 Bft) W-NW 282 ° 0 min 0,000 mm 0,0 UV-I 0 W/m² 7,0 °C 8,4 °C 4,8 km/h (1 Bft)
03.12.2018 06:19 8,4 °C 91 % 1009,0 hPa 0,0 mm 7,0 km/h (2 Bft) W 260 ° 0 min 0,000 mm 0,0 UV-I 0 W/m² 7,0 °C 7,4 °C 11,3 km/h (2 Bft)
03.12.2018 06:20 8,4 °C 91 % 1009,0 hPa 0,0 mm 9,7 km/h (2 Bft) W-SW 255 ° 0 min 0,000 mm 0,0 UV-I 0 W/m² 7,0 °C 6,8 °C 12,9 km/h (3 Bft)
03.12.2018 06:21 8,4 °C 91 % 1009,0 hPa 0,0 mm 4,9 km/h (1 Bft) W-SW 248 ° 0 min 0,000 mm 0,0 UV-I 0 W/m² 7,0 °C 8,0 °C 8,0 km/h (2 Bft)
03.12.2018 06:22 8,4 °C 91 % 1009,0 hPa 0,0 mm 5,9 km/h (2 Bft) W 262 ° 0 min 0,000 mm 0,0 UV-I 0 W/m² 7,0 °C 7,7 °C 11,3 km/h (2 Bft)
03.12.2018 06:23 8,4 °C 91 % 1009,0 hPa 0,0 mm 7,8 km/h (2 Bft) W-SW 257 ° 0 min 0,000 mm 0,0 UV-I 0 W/m² 7,0 °C 7,2 °C 12,9 km/h (3 Bft)
03.12.2018 06:24 8,4 °C 91 % 1008,9 hPa 0,0 mm 8,6 km/h (2 Bft) SW 228 ° 0 min 0,000 mm 0,0 UV-I 0 W/m² 7,0 °C 7,0 °C 12,9 km/h (3 Bft)
03.12.2018 06:25 8,3 °C 91 % 1009,0 hPa 0,0 mm 8,5 km/h (2 Bft) W-SW 240 ° 0 min 0,000 mm 0,0 UV-I 0 W/m² 6,9 °C 6,9 °C 14,5 km/h (3 Bft)
03.12.2018 06:26 8,3 °C 91 % 1009,0 hPa 0,0 mm 8,6 km/h (2 Bft) W 264 ° 0 min 0,000 mm 0,0 UV-I 0 W/m² 6,9 °C 6,9 °C 12,9 km/h (3 Bft)
03.12.2018 06:27 8,3 °C 91 % 1009,0 hPa 0,0 mm 5,9 km/h (2 Bft) W-SW 246 ° 0 min 0,000 mm 0,0 UV-I 0 W/m² 6,9 °C 7,5 °C 14,5 km/h (3 Bft)
03.12.2018 06:28 8,3 °C 91 % 1008,9 hPa 0,2 mm 7,8 km/h (2 Bft) W-SW 242 ° 0 min 0,000 mm 0,0 UV-I 0 W/m² 6,9 °C 7,1 °C 11,3 km/h (2 Bft)
03.12.2018 06:29 8,3 °C 91 % 1008,9 hPa 0,0 mm 5,2 km/h (1 Bft) SW 222 ° 0 min 0,000 mm 0,0 UV-I 0 W/m² 6,9 °C 7,8 °C 9,7 km/h (2 Bft)
03.12.2018 06:30 8,3 °C 92 % 1008,9 hPa 0,0 mm 4,5 km/h (1 Bft) SW 219 ° 0 min 0,000 mm 0,0 UV-I 0 W/m² 7,1 °C 8,3 °C 6,4 km/h (2 Bft)
03.12.2018 06:31 8,3 °C 91 % 1008,9 hPa 0,0 mm 6,7 km/h (2 Bft) S 186 ° 0 min 0,000 mm 0,0 UV-I 0 W/m² 6,9 °C 7,3 °C 12,9 km/h (3 Bft)
03.12.2018 06:32 8,2 °C 92 % 1008,8 hPa 0,0 mm 9,7 km/h (2 Bft) SW 236 ° 0 min 0,000 mm 0,0 UV-I 0 W/m² 7,0 °C 6,5 °C 17,7 km/h (3 Bft)
03.12.2018 06:33 8,2 °C 91 % 1008,8 hPa 0,0 mm 4,8 km/h (1 Bft) SW 229 ° 0 min 0,000 mm 0,0 UV-I 0 W/m² 6,8 °C 7,8 °C 6,4 km/h (2 Bft)
03.12.2018 06:34 8,2 °C 91 % 1008,7 hPa 0,0 mm 7,5 km/h (2 Bft) SW 236 ° 0 min 0,000 mm 0,0 UV-I 0 W/m² 6,8 °C 7,0 °C 14,5 km/h (3 Bft)
03.12.2018 06:35 8,2 °C 91 % 1008,8 hPa 0,0 mm 9,1 km/h (2 Bft) W 275 ° 0 min 0,000 mm 0,0 UV-I 0 W/m² 6,8 °C 6,7 °C 17,7 km/h (3 Bft)
03.12.2018 06:36 8,2 °C 91 % 1008,8 hPa 0,0 mm 7,7 km/h (2 Bft) W-SW 257 ° 0 min 0,000 mm 0,0 UV-I 0 W/m² 6,8 °C 7,0 °C 12,9 km/h (3 Bft)
03.12.2018 06:37 8,2 °C 91 % 1008,8 hPa 0,0 mm 4,8 km/h (1 Bft) W 265 ° 0 min 0,000 mm 0,0 UV-I 0 W/m² 6,8 °C 7,8 °C 11,3 km/h (2 Bft)
03.12.2018 06:38 8,2 °C 91 % 1008,8 hPa 0,0 mm 8,3 km/h (2 Bft) W-SW 252 ° 0 min 0,000 mm 0,0 UV-I 0 W/m² 6,8 °C 6,8 °C 11,3 km/h (2 Bft)
03.12.2018 06:39 8,2 °C 91 % 1008,8 hPa 0,0 mm 14,1 km/h (3 Bft) W 267 ° 0 min 0,000 mm 0,0 UV-I 0 W/m² 6,8 °C 5,8 °C 20,9 km/h (4 Bft)
03.12.2018 06:40 8,2 °C 91 % 1008,8 hPa 0,0 mm 9,7 km/h (2 Bft) W-SW 242 ° 0 min 0,000 mm 0,0 UV-I 0 W/m² 6,8 °C 6,5 °C 12,9 km/h (3 Bft)
03.12.2018 06:41 8,2 °C 91 % 1008,8 hPa 0,0 mm 6,9 km/h (2 Bft) W 278 ° 0 min 0,000 mm 0,0 UV-I 0 W/m² 6,8 °C 7,2 °C 11,3 km/h (2 Bft)
03.12.2018 06:42 8,2 °C 91 % 1008,8 hPa 0,0 mm 8,4 km/h (2 Bft) W-SW 257 ° 0 min 0,000 mm 0,0 UV-I 0 W/m² 6,8 °C 6,8 °C 12,9 km/h (3 Bft)
03.12.2018 06:43 8,1 °C 91 % 1008,8 hPa 0,0 mm 4,8 km/h (1 Bft) W-SW 246 ° 0 min 0,000 mm 0,0 UV-I 0 W/m² 6,7 °C 7,7 °C 6,4 km/h (2 Bft)
03.12.2018 06:44 8,1 °C 91 % 1008,8 hPa 0,0 mm 4,7 km/h (1 Bft) W-SW 240 ° 0 min 0,000 mm 0,0 UV-I 0 W/m² 6,7 °C 7,7 °C 9,7 km/h (2 Bft)
03.12.2018 06:45 8,1 °C 91 % 1008,7 hPa 0,0 mm 6,6 km/h (2 Bft) W-SW 240 ° 0 min 0,000 mm 0,0 UV-I 0 W/m² 6,7 °C 7,1 °C 12,9 km/h (3 Bft)
03.12.2018 06:46 8,1 °C 91 % 1008,8 hPa 0,0 mm 8,5 km/h (2 Bft) W 269 ° 0 min 0,000 mm 0,0 UV-I 0 W/m² 6,7 °C 6,7 °C 12,9 km/h (3 Bft)
03.12.2018 06:47 8,1 °C 91 % 1008,8 hPa 0,0 mm 6,3 km/h (2 Bft) W-SW 253 ° 0 min 0,000 mm 0,0 UV-I 0 W/m² 6,7 °C 7,2 °C 12,9 km/h (3 Bft)
03.12.2018 06:48 8,1 °C 91 % 1008,9 hPa 0,0 mm 8,6 km/h (2 Bft) W 271 ° 0 min 0,000 mm 0,0 UV-I 0 W/m² 6,7 °C 6,6 °C 12,9 km/h (3 Bft)
03.12.2018 06:49 8,1 °C 91 % 1008,9 hPa 0,0 mm 9,5 km/h (2 Bft) W-SW 254 ° 0 min 0,000 mm 0,0 UV-I 0 W/m² 6,7 °C 6,5 °C 12,9 km/h (3 Bft)
03.12.2018 06:50 8,1 °C 91 % 1008,8 hPa 0,0 mm 12,2 km/h (2 Bft) W-SW 242 ° 0 min 0,000 mm 0,0 UV-I 0 W/m² 6,7 °C 6,0 °C 16,1 km/h (3 Bft)
03.12.2018 06:51 8,1 °C 91 % 1008,8 hPa 0,0 mm 7,6 km/h (2 Bft) SW 236 ° 0 min 0,000 mm 0,0 UV-I 0 W/m² 6,7 °C 6,9 °C 12,9 km/h (3 Bft)
03.12.2018 06:52 8,1 °C 91 % 1008,9 hPa 0,0 mm 7,8 km/h (2 Bft) W-SW 255 ° 0 min 0,000 mm 0,0 UV-I 0 W/m² 6,7 °C 6,8 °C 11,3 km/h (2 Bft)
03.12.2018 06:53 8,1 °C 92 % 1008,9 hPa 0,0 mm 6,8 km/h (2 Bft) W 269 ° 0 min 0,000 mm 0,0 UV-I 0 W/m² 6,9 °C 7,1 °C 14,5 km/h (3 Bft)
03.12.2018 06:54 8,1 °C 92 % 1008,9 hPa 0,0 mm 13,3 km/h (3 Bft) W-SW 249 ° 0 min 0,000 mm 0,0 UV-I 0 W/m² 6,9 °C 5,8 °C 20,9 km/h (4 Bft)
03.12.2018 06:55 8,1 °C 92 % 1008,9 hPa 0,0 mm 10,9 km/h (2 Bft) W-SW 254 ° 0 min 0,000 mm 0,0 UV-I 0 W/m² 6,9 °C 6,2 °C 14,5 km/h (3 Bft)
03.12.2018 06:56 8,1 °C 92 % 1008,8 hPa 0,0 mm 5,2 km/h (1 Bft) W-SW 254 ° 0 min 0,000 mm 0,0 UV-I 0 W/m² 6,9 °C 7,5 °C 9,7 km/h (2 Bft)
03.12.2018 06:57 8,1 °C 92 % 1008,8 hPa 0,0 mm 5,7 km/h (1 Bft) W 262 ° 0 min 0,000 mm 0,0 UV-I 0 W/m² 6,9 °C 7,4 °C 9,7 km/h (2 Bft)
03.12.2018 06:58 8,1 °C 92 % 1008,9 hPa 0,0 mm 7,6 km/h (2 Bft) W-SW 250 ° 0 min 0,000 mm 0,0 UV-I 0 W/m² 6,9 °C 6,9 °C 17,7 km/h (3 Bft)
03.12.2018 06:59 8,1 °C 92 % 1008,8 hPa 0,0 mm 6,2 km/h (2 Bft) SW 222 ° 0 min 0,000 mm 0,0 UV-I 0 W/m² 6,9 °C 7,2 °C 11,3 km/h (2 Bft)
03.12.2018 07:00 8,1 °C 92 % 1008,8 hPa 0,0 mm 8,2 km/h (2 Bft) W-SW 258 ° 0 min 0,000 mm 0,0 UV-I 0 W/m² 6,9 °C 6,7 °C 12,9 km/h (3 Bft)
03.12.2018 07:01 8,1 °C 92 % 1008,8 hPa 0,0 mm 9,7 km/h (2 Bft) W-SW 246 ° 0 min 0,000 mm 0,0 UV-I 0 W/m² 6,9 °C 6,4 °C 12,9 km/h (3 Bft)
03.12.2018 07:02 8,1 °C 92 % 1008,8 hPa 0,0 mm 6,7 km/h (2 Bft) W 265 ° 0 min 0,000 mm 0,0 UV-I 0 W/m² 6,9 °C 7,1 °C 9,7 km/h (2 Bft)
03.12.2018 07:03 8,1 °C 92 % 1008,8 hPa 0,0 mm 8,2 km/h (2 Bft) W-SW 249 ° 0 min 0,000 mm 0,0 UV-I 0 W/m² 6,9 °C 6,7 °C 14,5 km/h (3 Bft)
03.12.2018 07:04 8,1 °C 92 % 1008,8 hPa 0,0 mm 9,0 km/h (2 Bft) W 269 ° 0 min 0,000 mm 0,0 UV-I 0 W/m² 6,9 °C 6,6 °C 16,1 km/h (3 Bft)
03.12.2018 07:05 8,2 °C 92 % 1008,8 hPa 0,0 mm 9,8 km/h (2 Bft) W 271 ° 0 min 0,000 mm 0,0 UV-I 0 W/m² 7,0 °C 6,5 °C 14,5 km/h (3 Bft)
03.12.2018 07:06 8,2 °C 92 % 1008,7 hPa 0,0 mm 6,9 km/h (2 Bft) S-SW 210 ° 0 min 0,000 mm 0,0 UV-I 0 W/m² 7,0 °C 7,2 °C 11,3 km/h (2 Bft)
03.12.2018 07:07 8,2 °C 92 % 1008,7 hPa 0,0 mm 9,0 km/h (2 Bft) W-SW 240 ° 0 min 0,000 mm 0,0 UV-I 0 W/m² 7,0 °C 6,7 °C 17,7 km/h (3 Bft)
03.12.2018 07:08 8,2 °C 92 % 1008,7 hPa 0,0 mm 5,3 km/h (1 Bft) SW 227 ° 0 min 0,000 mm 0,0 UV-I 0 W/m² 7,0 °C 7,6 °C 8,0 km/h (2 Bft)
03.12.2018 07:09 8,2 °C 92 % 1008,7 hPa 0,2 mm 13,2 km/h (3 Bft) W-SW 242 ° 0 min 0,000 mm 0,0 UV-I 0 W/m² 7,0 °C 5,9 °C 20,9 km/h (4 Bft)
03.12.2018 07:10 8,3 °C 91 % 1008,7 hPa 0,0 mm 13,3 km/h (3 Bft) W 267 ° 0 min 0,000 mm 0,0 UV-I 0 W/m² 6,9 °C 6,1 °C 24,1 km/h (4 Bft)
03.12.2018 07:11 8,3 °C 92 % 1008,6 hPa 0,0 mm 10,2 km/h (2 Bft) W-SW 254 ° 0 min 0,000 mm 0,0 UV-I 0 W/m² 7,1 °C 6,6 °C 17,7 km/h (3 Bft)
03.12.2018 07:12 8,3 °C 91 % 1008,6 hPa 0,0 mm 12,5 km/h (3 Bft) W-SW 252 ° 0 min 0,000 mm 0,0 UV-I 0 W/m² 6,9 °C 6,2 °C 16,1 km/h (3 Bft)
03.12.2018 07:13 8,3 °C 91 % 1008,6 hPa 0,0 mm 7,5 km/h (2 Bft) W-SW 241 ° 0 min 0,000 mm 0,0 UV-I 0 W/m² 6,9 °C 7,1 °C 12,9 km/h (3 Bft)
03.12.2018 07:14 8,3 °C 91 % 1008,6 hPa 0,0 mm 12,1 km/h (2 Bft) W 269 ° 0 min 0,000 mm 0,0 UV-I 0 W/m² 6,9 °C 6,2 °C 25,7 km/h (4 Bft)
03.12.2018 07:15 8,4 °C 91 % 1008,6 hPa 0,0 mm 15,6 km/h (3 Bft) SW 223 ° 0 min 0,000 mm 0,0 UV-I 0 W/m² 7,0 °C 5,9 °C 20,9 km/h (4 Bft)
03.12.2018 07:16 8,4 °C 91 % 1008,6 hPa 0,0 mm 12,0 km/h (2 Bft) W 262 ° 0 min 0,000 mm 0,0 UV-I 0 W/m² 7,0 °C 6,4 °C 19,3 km/h (3 Bft)
03.12.2018 07:17 8,4 °C 91 % 1008,6 hPa 0,0 mm 15,3 km/h (3 Bft) S-SW 210 ° 0 min 0,000 mm 0,0 UV-I 0 W/m² 7,0 °C 5,9 °C 20,9 km/h (4 Bft)
03.12.2018 07:18 8,4 °C 91 % 1008,6 hPa 0,0 mm 12,4 km/h (3 Bft) W-SW 240 ° 0 min 0,000 mm 0,0 UV-I 0 W/m² 7,0 °C 6,3 °C 17,7 km/h (3 Bft)
03.12.2018 07:19 8,4 °C 91 % 1008,6 hPa 0,0 mm 11,6 km/h (2 Bft) W-SW 246 ° 0 min 0,000 mm 0,0 UV-I 0 W/m² 7,0 °C 6,4 °C 16,1 km/h (3 Bft)
03.12.2018 07:20 8,5 °C 91 % 1008,6 hPa 0,0 mm 9,0 km/h (2 Bft) W 261 ° 0 min 0,000 mm 0,0 UV-I 0 W/m² 7,1 °C 7,0 °C 16,1 km/h (3 Bft)
03.12.2018 07:21 8,4 °C 91 % 1008,6 hPa 0,0 mm 13,2 km/h (3 Bft) W 281 ° 0 min 0,000 mm 0,0 UV-I 0 W/m² 7,0 °C 6,2 °C 17,7 km/h (3 Bft)
03.12.2018 07:22 8,6 °C 90 % 1008,6 hPa 0,0 mm 9,5 km/h (2 Bft) W 277 ° 0 min 0,000 mm 0,0 UV-I 0 W/m² 7,1 °C 7,1 °C 14,5 km/h (3 Bft)
03.12.2018 07:23 8,5 °C 90 % 1008,6 hPa 0,0 mm 10,9 km/h (2 Bft) W 260 ° 0 min 0,000 mm 0,0 UV-I 0 W/m² 7,0 °C 6,7 °C 17,7 km/h (3 Bft)
03.12.2018 07:24 8,5 °C 90 % 1008,6 hPa 0,0 mm 10,9 km/h (2 Bft) W-SW 257 ° 0 min 0,000 mm 0,0 UV-I 0 W/m² 7,0 °C 6,7 °C 14,5 km/h (3 Bft)
03.12.2018 07:25 8,5 °C 90 % 1008,6 hPa 0,0 mm 9,7 km/h (2 Bft) SW 231 ° 0 min 0,000 mm 0,0 UV-I 0 W/m² 7,0 °C 6,9 °C 12,9 km/h (3 Bft)
03.12.2018 07:26 8,5 °C 90 % 1008,6 hPa 0,0 mm 5,8 km/h (2 Bft) W-SW 243 ° 0 min 0,000 mm 0,0 UV-I 0 W/m² 7,0 °C 7,8 °C 11,3 km/h (2 Bft)
03.12.2018 07:27 8,5 °C 90 % 1008,6 hPa 0,0 mm 10,2 km/h (2 Bft) W-SW 244 ° 0 min 0,000 mm 0,0 UV-I 0 W/m² 7,0 °C 6,8 °C 16,1 km/h (3 Bft)
03.12.2018 07:28 8,6 °C 90 % 1008,6 hPa 0,0 mm 11,4 km/h (2 Bft) W 262 ° 0 min 0,000 mm 0,0 UV-I 0 W/m² 7,1 °C 6,7 °C 14,5 km/h (3 Bft)
03.12.2018 07:29 8,5 °C 90 % 1008,6 hPa 0,0 mm 9,9 km/h (2 Bft) W 263 ° 0 min 0,000 mm 0,0 UV-I 0 W/m² 7,0 °C 6,9 °C 12,9 km/h (3 Bft)
03.12.2018 07:30 8,5 °C 89 % 1008,6 hPa 0,0 mm 8,6 km/h (2 Bft) W-SW 240 ° 0 min 0,000 mm 0,0 UV-I 0 W/m² 6,8 °C 7,1 °C 12,9 km/h (3 Bft)
03.12.2018 07:31 8,6 °C 90 % 1008,5 hPa 0,0 mm 8,9 km/h (2 Bft) W 262 ° 0 min 0,000 mm 0,0 UV-I 0 W/m² 7,1 °C 7,2 °C 14,5 km/h (3 Bft)
03.12.2018 07:32 8,6 °C 89 % 1008,6 hPa 0,0 mm 5,8 km/h (2 Bft) W 263 ° 0 min 0,000 mm 0,0 UV-I 0 W/m² 6,9 °C 7,9 °C 9,7 km/h (2 Bft)
03.12.2018 07:33 8,6 °C 90 % 1008,6 hPa 0,0 mm 6,0 km/h (2 Bft) W 269 ° 0 min 0,000 mm 0,0 UV-I 0 W/m² 7,1 °C 7,9 °C 8,0 km/h (2 Bft)
03.12.2018 07:34 8,6 °C 90 % 1008,5 hPa 0,0 mm 8,1 km/h (2 Bft) W 266 ° 0 min 0,000 mm 0,0 UV-I 0 W/m² 7,1 °C 7,3 °C 12,9 km/h (3 Bft)
03.12.2018 07:35 8,6 °C 90 % 1008,5 hPa 0,0 mm 7,6 km/h (2 Bft) SW 218 ° 0 min 0,000 mm 0,0 UV-I 0 W/m² 7,1 °C 7,5 °C 16,1 km/h (3 Bft)
03.12.2018 07:36 8,6 °C 89 % 1008,4 hPa 0,0 mm 10,0 km/h (2 Bft) W-SW 254 ° 0 min 0,000 mm 0,0 UV-I 0 W/m² 6,9 °C 7,0 °C 16,1 km/h (3 Bft)
03.12.2018 07:37 8,6 °C 89 % 1008,4 hPa 0,0 mm 8,7 km/h (2 Bft) W 268 ° 0 min 0,000 mm 0,0 UV-I 0 W/m² 6,9 °C 7,2 °C 14,5 km/h (3 Bft)
03.12.2018 07:38 8,6 °C 89 % 1008,5 hPa 0,0 mm 14,6 km/h (3 Bft) SW 217 ° 0 min 0,000 mm 0,0 UV-I 0 W/m² 6,9 °C 6,2 °C 20,9 km/h (4 Bft)
03.12.2018 07:39 8,7 °C 89 % 1008,5 hPa 0,0 mm 10,3 km/h (2 Bft) W-SW 248 ° 0 min 0,000 mm 0,0 UV-I 0 W/m² 7,0 °C 7,0 °C 14,5 km/h (3 Bft)
03.12.2018 07:40 8,7 °C 89 % 1008,5 hPa 0,0 mm 10,2 km/h (2 Bft) W 261 ° 0 min 0,000 mm 0,0 UV-I 0 W/m² 7,0 °C 7,0 °C 16,1 km/h (3 Bft)
03.12.2018 07:41 8,7 °C 89 % 1008,5 hPa 0,0 mm 9,6 km/h (2 Bft) SW 227 ° 0 min 0,000 mm 0,0 UV-I 0 W/m² 7,0 °C 7,2 °C 19,3 km/h (3 Bft)
03.12.2018 07:42 8,7 °C 89 % 1008,5 hPa 0,0 mm 7,7 km/h (2 Bft) W 263 ° 0 min 0,000 mm 0,0 UV-I 0 W/m² 7,0 °C 7,5 °C 11,3 km/h (2 Bft)
03.12.2018 07:43 8,7 °C 89 % 1008,5 hPa 0,0 mm 10,3 km/h (2 Bft) W 263 ° 0 min 0,000 mm 0,0 UV-I 0 W/m² 7,0 °C 7,0 °C 14,5 km/h (3 Bft)
03.12.2018 07:44 8,7 °C 89 % 1008,6 hPa 0,0 mm 14,0 km/h (3 Bft) W-SW 258 ° 0 min 0,000 mm 0,0 UV-I 0 W/m² 7,0 °C 6,4 °C 20,9 km/h (4 Bft)
03.12.2018 07:45 8,8 °C 89 % 1008,6 hPa 0,0 mm 8,4 km/h (2 Bft) W-SW 256 ° 0 min 0,000 mm 0,0 UV-I 0 W/m² 7,1 °C 7,5 °C 16,1 km/h (3 Bft)
03.12.2018 07:46 8,8 °C 89 % 1008,7 hPa 0,0 mm 12,3 km/h (3 Bft) W 271 ° 0 min 0,000 mm 0,0 UV-I 0 W/m² 7,1 °C 6,8 °C 17,7 km/h (3 Bft)
03.12.2018 07:47 8,8 °C 89 % 1008,7 hPa 0,0 mm 15,5 km/h (3 Bft) W-SW 239 ° 0 min 0,000 mm 0,0 UV-I 0 W/m² 7,1 °C 6,4 °C 24,1 km/h (4 Bft)
03.12.2018 07:48 8,8 °C 89 % 1008,7 hPa 0,0 mm 10,3 km/h (2 Bft) W 267 ° 0 min 0,000 mm 0,0 UV-I 0 W/m² 7,1 °C 7,1 °C 16,1 km/h (3 Bft)
03.12.2018 07:49 8,8 °C 89 % 1008,7 hPa 0,0 mm 10,0 km/h (2 Bft) W 265 ° 0 min 0,000 mm 0,0 UV-I 0 W/m² 7,1 °C 7,2 °C 14,5 km/h (3 Bft)
03.12.2018 07:50 8,8 °C 89 % 1008,8 hPa 0,0 mm 9,4 km/h (2 Bft) SW 228 ° 0 min 0,000 mm 0,0 UV-I 0 W/m² 7,1 °C 7,3 °C 16,1 km/h (3 Bft)
03.12.2018 07:51 8,8 °C 89 % 1008,8 hPa 0,0 mm 9,1 km/h (2 Bft) W-SW 245 ° 0 min 0,000 mm 0,0 UV-I 0 W/m² 7,1 °C 7,4 °C 14,5 km/h (3 Bft)
03.12.2018 07:52 8,8 °C 89 % 1008,8 hPa 0,0 mm 7,8 km/h (2 Bft) W 267 ° 0 min 0,000 mm 0,0 UV-I 0 W/m² 7,1 °C 7,6 °C 11,3 km/h (2 Bft)
03.12.2018 07:53 8,8 °C 89 % 1008,8 hPa 0,0 mm 9,7 km/h (2 Bft) W 263 ° 0 min 0,000 mm 0,0 UV-I 0 W/m² 7,1 °C 7,3 °C 14,5 km/h (3 Bft)
03.12.2018 07:54 8,9 °C 89 % 1008,8 hPa 0,0 mm 10,6 km/h (2 Bft) W-SW 239 ° 0 min 0,000 mm 0,0 UV-I 0 W/m² 7,2 °C 7,2 °C 14,5 km/h (3 Bft)
03.12.2018 07:55 8,8 °C 89 % 1008,8 hPa 0,0 mm 14,0 km/h (3 Bft) W 273 ° 0 min 0,000 mm 0,0 UV-I 0 W/m² 7,1 °C 6,6 °C 20,9 km/h (4 Bft)
03.12.2018 07:56 8,8 °C 89 % 1008,8 hPa 0,0 mm 10,6 km/h (2 Bft) W-SW 244 ° 0 min 0,000 mm 0,0 UV-I 5 W/m² 7,1 °C 7,1 °C 16,1 km/h (3 Bft)
03.12.2018 07:57 8,8 °C 89 % 1008,8 hPa 0,0 mm 8,3 km/h (2 Bft) W-SW 252 ° 0 min 0,000 mm 0,0 UV-I 5 W/m² 7,1 °C 7,5 °C 14,5 km/h (3 Bft)
03.12.2018 07:58 8,8 °C 89 % 1008,8 hPa 0,0 mm 7,7 km/h (2 Bft) W-SW 250 ° 0 min 0,000 mm 0,0 UV-I 5 W/m² 7,1 °C 7,7 °C 11,3 km/h (2 Bft)
03.12.2018 07:59 8,8 °C 89 % 1008,8 hPa 0,0 mm 10,2 km/h (2 Bft) W 262 ° 0 min 0,000 mm 0,0 UV-I 7 W/m² 7,1 °C 7,2 °C 14,5 km/h (3 Bft)
03.12.2018 08:00 8,8 °C 89 % 1008,8 hPa 0,0 mm 11,2 km/h (2 Bft) W-SW 257 ° 0 min 0,000 mm 0,0 UV-I 9 W/m² 7,1 °C 7,0 °C 16,1 km/h (3 Bft)
03.12.2018 08:01 8,8 °C 89 % 1008,8 hPa 0,0 mm 9,8 km/h (2 Bft) W 264 ° 0 min 0,000 mm 0,0 UV-I 11 W/m² 7,1 °C 7,2 °C 12,9 km/h (3 Bft)
03.12.2018 08:02 8,8 °C 89 % 1008,8 hPa 0,0 mm 6,4 km/h (2 Bft) W-SW 254 ° 0 min 0,000 mm 0,0 UV-I 11 W/m² 7,1 °C 8,0 °C 11,3 km/h (2 Bft)
03.12.2018 08:03 8,8 °C 89 % 1008,8 hPa 0,0 mm 7,7 km/h (2 Bft) W-SW 246 ° 0 min 0,000 mm 0,0 UV-I 11 W/m² 7,1 °C 7,7 °C 12,9 km/h (3 Bft)
03.12.2018 08:04 8,8 °C 89 % 1008,7 hPa 0,0 mm 9,3 km/h (2 Bft) W-SW 242 ° 0 min 0,000 mm 0,0 UV-I 11 W/m² 7,1 °C 7,3 °C 16,1 km/h (3 Bft)
03.12.2018 08:05 8,8 °C 89 % 1008,8 hPa 0,0 mm 7,4 km/h (2 Bft) W-SW 257 ° 0 min 0,000 mm 0,0 UV-I 11 W/m² 7,1 °C 7,7 °C 11,3 km/h (2 Bft)
03.12.2018 08:06 8,8 °C 89 % 1008,8 hPa 0,0 mm 6,2 km/h (2 Bft) W 267 ° 0 min 0,000 mm 0,0 UV-I 11 W/m² 7,1 °C 8,0 °C 9,7 km/h (2 Bft)
03.12.2018 08:07 8,8 °C 89 % 1008,8 hPa 0,0 mm 7,6 km/h (2 Bft) W-SW 250 ° 0 min 0,000 mm 0,0 UV-I 11 W/m² 7,1 °C 7,7 °C 11,3 km/h (2 Bft)
03.12.2018 08:08 8,8 °C 89 % 1008,9 hPa 0,0 mm 9,4 km/h (2 Bft) W 269 ° 0 min 0,000 mm 0,0 UV-I 12 W/m² 7,1 °C 7,3 °C 14,5 km/h (3 Bft)
03.12.2018 08:09 8,8 °C 89 % 1008,9 hPa 0,0 mm 9,9 km/h (2 Bft) W 266 ° 0 min 0,000 mm 0,0 UV-I 12 W/m² 7,1 °C 7,2 °C 16,1 km/h (3 Bft)
03.12.2018 08:10 8,8 °C 88 % 1008,8 hPa 0,0 mm 5,5 km/h (1 Bft) W 266 ° 0 min 0,000 mm 0,0 UV-I 12 W/m² 6,9 °C 8,2 °C 9,7 km/h (2 Bft)
03.12.2018 08:11 8,8 °C 88 % 1008,8 hPa 0,0 mm 9,1 km/h (2 Bft) W 265 ° 0 min 0,000 mm 0,0 UV-I 12 W/m² 6,9 °C 7,4 °C 14,5 km/h (3 Bft)
03.12.2018 08:12 8,8 °C 88 % 1008,8 hPa 0,0 mm 10,7 km/h (2 Bft) W-SW 255 ° 0 min 0,000 mm 0,0 UV-I 14 W/m² 6,9 °C 7,1 °C 16,1 km/h (3 Bft)
03.12.2018 08:13 8,8 °C 88 % 1008,9 hPa 0,0 mm 7,7 km/h (2 Bft) W-SW 252 ° 0 min 0,000 mm 0,0 UV-I 14 W/m² 6,9 °C 7,7 °C 12,9 km/h (3 Bft)
03.12.2018 08:14 8,8 °C 88 % 1008,9 hPa 0,0 mm 11,3 km/h (2 Bft) W 279 ° 0 min 0,000 mm 0,0 UV-I 14 W/m² 6,9 °C 7,0 °C 14,5 km/h (3 Bft)
03.12.2018 08:15 8,8 °C 88 % 1008,9 hPa 0,0 mm 10,3 km/h (2 Bft) W 265 ° 0 min 0,000 mm 0,0 UV-I 14 W/m² 6,9 °C 7,1 °C 12,9 km/h (3 Bft)
03.12.2018 08:16 8,8 °C 88 % 1008,9 hPa 0,0 mm 6,2 km/h (2 Bft) SW 227 ° 0 min 0,000 mm 0,0 UV-I 14 W/m² 6,9 °C 8,0 °C 11,3 km/h (2 Bft)
03.12.2018 08:17 8,8 °C 88 % 1008,9 hPa 0,0 mm 7,0 km/h (2 Bft) W 270 ° 0 min 0,000 mm 0,0 UV-I 14 W/m² 6,9 °C 7,8 °C 12,9 km/h (3 Bft)
03.12.2018 08:18 8,8 °C 88 % 1008,9 hPa 0,0 mm 15,1 km/h (3 Bft) W 262 ° 0 min 0,000 mm 0,0 UV-I 14 W/m² 6,9 °C 6,4 °C 22,5 km/h (4 Bft)
03.12.2018 08:19 8,8 °C 88 % 1008,9 hPa 0,0 mm 13,3 km/h (3 Bft) W 266 ° 0 min 0,000 mm 0,0 UV-I 14 W/m² 6,9 °C 6,7 °C 17,7 km/h (3 Bft)
03.12.2018 08:20 8,8 °C 88 % 1009,0 hPa 0,0 mm 8,7 km/h (2 Bft) SW 236 ° 0 min 0,000 mm 0,0 UV-I 14 W/m² 6,9 °C 7,4 °C 16,1 km/h (3 Bft)
03.12.2018 08:21 8,8 °C 88 % 1009,0 hPa 0,0 mm 9,7 km/h (2 Bft) W-SW 244 ° 0 min 0,000 mm 0,0 UV-I 14 W/m² 6,9 °C 7,3 °C 17,7 km/h (3 Bft)
03.12.2018 08:22 8,8 °C 88 % 1008,9 hPa 0,0 mm 7,6 km/h (2 Bft) W-SW 254 ° 0 min 0,000 mm 0,0 UV-I 14 W/m² 6,9 °C 7,7 °C 12,9 km/h (3 Bft)
03.12.2018 08:23 8,8 °C 88 % 1008,9 hPa 0,0 mm 9,7 km/h (2 Bft) W 263 ° 0 min 0,000 mm 0,0 UV-I 14 W/m² 6,9 °C 7,3 °C 16,1 km/h (3 Bft)
03.12.2018 08:24 8,8 °C 88 % 1008,9 hPa 0,0 mm 7,8 km/h (2 Bft) W-SW 251 ° 0 min 0,000 mm 0,0 UV-I 14 W/m² 6,9 °C 7,6 °C 11,3 km/h (2 Bft)
03.12.2018 08:25 8,8 °C 88 % 1009,0 hPa 0,0 mm 6,1 km/h (2 Bft) W-SW 257 ° 0 min 0,000 mm 0,0 UV-I 16 W/m² 6,9 °C 8,1 °C 9,7 km/h (2 Bft)
03.12.2018 08:26 8,8 °C 88 % 1009,0 hPa 0,0 mm 12,1 km/h (2 Bft) W-SW 253 ° 0 min 0,000 mm 0,0 UV-I 18 W/m² 6,9 °C 6,8 °C 16,1 km/h (3 Bft)
03.12.2018 08:27 8,8 °C 88 % 1008,9 hPa 0,0 mm 5,6 km/h (1 Bft) W-SW 250 ° 0 min 0,000 mm 0,0 UV-I 19 W/m² 6,9 °C 8,2 °C 9,7 km/h (2 Bft)
03.12.2018 08:28 8,9 °C 88 % 1009,0 hPa 0,0 mm 10,6 km/h (2 Bft) W 272 ° 0 min 0,000 mm 0,0 UV-I 21 W/m² 7,0 °C 7,2 °C 14,5 km/h (3 Bft)
03.12.2018 08:29 8,8 °C 88 % 1009,0 hPa 0,0 mm 10,3 km/h (2 Bft) W-SW 256 ° 0 min 0,000 mm 0,0 UV-I 23 W/m² 6,9 °C 7,1 °C 16,1 km/h (3 Bft)
03.12.2018 08:30 8,8 °C 88 % 1009,0 hPa 0,0 mm 10,1 km/h (2 Bft) W 269 ° 0 min 0,000 mm 0,0 UV-I 23 W/m² 6,9 °C 7,2 °C 16,1 km/h (3 Bft)
03.12.2018 08:31 8,9 °C 88 % 1009,0 hPa 0,0 mm 15,3 km/h (3 Bft) W-SW 254 ° 0 min 0,000 mm 0,0 UV-I 23 W/m² 7,0 °C 6,5 °C 20,9 km/h (4 Bft)
03.12.2018 08:32 8,9 °C 88 % 1009,0 hPa 0,0 mm 13,7 km/h (3 Bft) W 259 ° 0 min 0,000 mm 0,0 UV-I 21 W/m² 7,0 °C 6,7 °C 17,7 km/h (3 Bft)
03.12.2018 08:33 8,8 °C 88 % 1009,0 hPa 0,0 mm 12,9 km/h (3 Bft) W 260 ° 0 min 0,000 mm 0,0 UV-I 21 W/m² 6,9 °C 6,7 °C 17,7 km/h (3 Bft)
03.12.2018 08:34 8,9 °C 88 % 1009,0 hPa 0,0 mm 12,0 km/h (2 Bft) W-SW 248 ° 0 min 0,000 mm 0,0 UV-I 21 W/m² 7,0 °C 7,0 °C 17,7 km/h (3 Bft)
03.12.2018 08:35 8,8 °C 88 % 1009,0 hPa 0,0 mm 11,2 km/h (2 Bft) W-SW 251 ° 0 min 0,000 mm 0,0 UV-I 23 W/m² 6,9 °C 7,0 °C 20,9 km/h (4 Bft)
03.12.2018 08:36 8,8 °C 88 % 1009,0 hPa 0,0 mm 9,9 km/h (2 Bft) W-SW 244 ° 0 min 0,000 mm 0,0 UV-I 23 W/m² 6,9 °C 7,2 °C 12,9 km/h (3 Bft)
03.12.2018 08:37 8,9 °C 88 % 1009,0 hPa 0,0 mm 13,9 km/h (3 Bft) W 263 ° 0 min 0,000 mm 0,0 UV-I 23 W/m² 7,0 °C 6,7 °C 17,7 km/h (3 Bft)
03.12.2018 08:38 8,9 °C 88 % 1009,1 hPa 0,0 mm 11,5 km/h (2 Bft) W 269 ° 0 min 0,000 mm 0,0 UV-I 25 W/m² 7,0 °C 7,1 °C 16,1 km/h (3 Bft)
03.12.2018 08:39 8,9 °C 88 % 1009,1 hPa 0,0 mm 12,6 km/h (3 Bft) W-SW 248 ° 0 min 0,000 mm 0,0 UV-I 25 W/m² 7,0 °C 6,9 °C 19,3 km/h (3 Bft)
03.12.2018 08:40 8,9 °C 88 % 1009,0 hPa 0,0 mm 13,0 km/h (3 Bft) W-NW 284 ° 0 min 0,000 mm 0,0 UV-I 23 W/m² 7,0 °C 6,8 °C 17,7 km/h (3 Bft)
03.12.2018 08:41 8,9 °C 88 % 1009,1 hPa 0,0 mm 10,2 km/h (2 Bft) W 262 ° 0 min 0,000 mm 0,0 UV-I 23 W/m² 7,0 °C 7,3 °C 16,1 km/h (3 Bft)
03.12.2018 08:42 8,9 °C 88 % 1009,1 hPa 0,0 mm 10,9 km/h (2 Bft) W 272 ° 0 min 0,000 mm 0,0 UV-I 21 W/m² 7,0 °C 7,2 °C 17,7 km/h (3 Bft)
03.12.2018 08:43 8,9 °C 88 % 1009,1 hPa 0,0 mm 11,4 km/h (2 Bft) W-SW 253 ° 0 min 0,000 mm 0,0 UV-I 21 W/m² 7,0 °C 7,1 °C 16,1 km/h (3 Bft)
03.12.2018 08:44 8,9 °C 88 % 1009,1 hPa 0,0 mm 10,5 km/h (2 Bft) W-SW 255 ° 0 min 0,000 mm 0,0 UV-I 23 W/m² 7,0 °C 7,2 °C 17,7 km/h (3 Bft)
03.12.2018 08:45 8,9 °C 88 % 1009,1 hPa 0,0 mm 9,9 km/h (2 Bft) W 265 ° 0 min 0,000 mm 0,0 UV-I 23 W/m² 7,0 °C 7,3 °C 16,1 km/h (3 Bft)
03.12.2018 08:46 9,0 °C 88 % 1009,1 hPa 0,0 mm 9,4 km/h (2 Bft) W 262 ° 0 min 0,000 mm 0,0 UV-I 25 W/m² 7,1 °C 7,5 °C 12,9 km/h (3 Bft)
03.12.2018 08:47 8,9 °C 88 % 1009,1 hPa 0,0 mm 11,3 km/h (2 Bft) W 265 ° 0 min 0,000 mm 0,0 UV-I 25 W/m² 7,0 °C 7,1 °C 14,5 km/h (3 Bft)
03.12.2018 08:48 8,9 °C 88 % 1009,2 hPa 0,0 mm 12,8 km/h (3 Bft) W-SW 257 ° 0 min 0,000 mm 0,0 UV-I 26 W/m² 7,0 °C 6,9 °C 17,7 km/h (3 Bft)
03.12.2018 08:49 9,0 °C 88 % 1009,2 hPa 0,0 mm 13,5 km/h (3 Bft) W 265 ° 0 min 0,000 mm 0,0 UV-I 25 W/m² 7,1 °C 6,9 °C 25,7 km/h (4 Bft)
03.12.2018 08:50 8,9 °C 88 % 1009,2 hPa 0,0 mm 10,3 km/h (2 Bft) W-SW 257 ° 0 min 0,000 mm 0,0 UV-I 26 W/m² 7,0 °C 7,3 °C 16,1 km/h (3 Bft)
03.12.2018 08:51 9,0 °C 88 % 1009,3 hPa 0,0 mm 12,4 km/h (3 Bft) W 265 ° 0 min 0,000 mm 0,0 UV-I 28 W/m² 7,1 °C 7,0 °C 16,1 km/h (3 Bft)
03.12.2018 08:52 9,0 °C 88 % 1009,3 hPa 0,0 mm 10,1 km/h (2 Bft) W-SW 257 ° 0 min 0,000 mm 0,0 UV-I 28 W/m² 7,1 °C 7,4 °C 16,1 km/h (3 Bft)
03.12.2018 08:53 9,0 °C 88 % 1009,3 hPa 0,0 mm 13,1 km/h (3 Bft) NW 323 ° 0 min 0,000 mm 0,0 UV-I 26 W/m² 7,1 °C 6,9 °C 19,3 km/h (3 Bft)
03.12.2018 08:54 9,1 °C 88 % 1009,3 hPa 0,0 mm 11,0 km/h (2 Bft) W 275 ° 0 min 0,000 mm 0,0 UV-I 25 W/m² 7,2 °C 7,4 °C 16,1 km/h (3 Bft)
03.12.2018 08:55 9,0 °C 88 % 1009,2 hPa 0,0 mm 17,9 km/h (3 Bft) SW 217 ° 0 min 0,000 mm 0,0 UV-I 23 W/m² 7,1 °C 6,3 °C 24,1 km/h (4 Bft)
03.12.2018 08:56 9,1 °C 88 % 1009,3 hPa 0,0 mm 12,9 km/h (3 Bft) W 261 ° 0 min 0,000 mm 0,0 UV-I 23 W/m² 7,2 °C 7,1 °C 19,3 km/h (3 Bft)
03.12.2018 08:57 9,1 °C 88 % 1009,3 hPa 0,0 mm 13,3 km/h (3 Bft) W 263 ° 0 min 0,000 mm 0,0 UV-I 19 W/m² 7,2 °C 7,0 °C 17,7 km/h (3 Bft)
03.12.2018 08:58 9,1 °C 88 % 1009,3 hPa 0,0 mm 12,5 km/h (3 Bft) W-SW 258 ° 0 min 0,000 mm 0,0 UV-I 21 W/m² 7,2 °C 7,1 °C 17,7 km/h (3 Bft)
03.12.2018 08:59 9,1 °C 87 % 1009,2 hPa 0,0 mm 11,6 km/h (2 Bft) W-SW 256 ° 0 min 0,000 mm 0,0 UV-I 21 W/m² 7,1 °C 7,3 °C 20,9 km/h (4 Bft)
03.12.2018 09:00 9,2 °C 87 % 1009,3 hPa 0,0 mm 12,1 km/h (2 Bft) W 270 ° 0 min 0,000 mm 0,0 UV-I 21 W/m² 7,2 °C 7,3 °C 16,1 km/h (3 Bft)
03.12.2018 09:01 9,2 °C 87 % 1009,2 hPa 0,0 mm 11,5 km/h (2 Bft) W 259 ° 0 min 0,026 mm 0,0 UV-I 21 W/m² 7,2 °C 7,4 °C 14,5 km/h (3 Bft)
03.12.2018 09:02 9,2 °C 88 % 1009,2 hPa 0,0 mm 12,5 km/h (3 Bft) W 260 ° 0 min 0,000 mm 0,0 UV-I 21 W/m² 7,3 °C 7,3 °C 19,3 km/h (3 Bft)
03.12.2018 09:03 9,2 °C 88 % 1009,3 hPa 0,0 mm 9,7 km/h (2 Bft) W 263 ° 0 min 0,000 mm 0,0 UV-I 21 W/m² 7,3 °C 7,7 °C 11,3 km/h (2 Bft)
03.12.2018 09:04 9,2 °C 87 % 1009,3 hPa 0,0 mm 5,8 km/h (2 Bft) W 262 ° 0 min 0,000 mm 0,0 UV-I 23 W/m² 7,2 °C 8,6 °C 9,7 km/h (2 Bft)
03.12.2018 09:05 9,2 °C 87 % 1009,3 hPa 0,0 mm 7,2 km/h (2 Bft) W 261 ° 0 min 0,000 mm 0,0 UV-I 25 W/m² 7,2 °C 8,2 °C 12,9 km/h (3 Bft)
03.12.2018 09:06 9,2 °C 87 % 1009,2 hPa 0,0 mm 10,5 km/h (2 Bft) W 266 ° 0 min 0,000 mm 0,0 UV-I 21 W/m² 7,2 °C 7,6 °C 16,1 km/h (3 Bft)
03.12.2018 09:07 9,2 °C 87 % 1009,3 hPa 0,0 mm 10,4 km/h (2 Bft) W-SW 257 ° 0 min 0,000 mm 0,0 UV-I 21 W/m² 7,2 °C 7,6 °C 14,5 km/h (3 Bft)
03.12.2018 09:08 9,2 °C 87 % 1009,2 hPa 0,0 mm 7,6 km/h (2 Bft) W 263 ° 0 min 0,000 mm 0,0 UV-I 21 W/m² 7,2 °C 8,2 °C 11,3 km/h (2 Bft)
03.12.2018 09:09 9,2 °C 87 % 1009,2 hPa 0,0 mm 9,7 km/h (2 Bft) W 271 ° 0 min 0,000 mm 0,0 UV-I 21 W/m² 7,2 °C 7,7 °C 16,1 km/h (3 Bft)
03.12.2018 09:10 9,2 °C 87 % 1009,2 hPa 0,0 mm 10,7 km/h (2 Bft) W 264 ° 0 min 0,000 mm 0,0 UV-I 23 W/m² 7,2 °C 7,6 °C 12,9 km/h (3 Bft)
03.12.2018 09:11 9,2 °C 87 % 1009,3 hPa 0,0 mm 13,9 km/h (3 Bft) W 266 ° 0 min 0,000 mm 0,0 UV-I 23 W/m² 7,2 °C 7,1 °C 19,3 km/h (3 Bft)
03.12.2018 09:12 9,2 °C 87 % 1009,3 hPa 0,0 mm 10,6 km/h (2 Bft) W 280 ° 0 min 0,000 mm 0,0 UV-I 23 W/m² 7,2 °C 7,6 °C 14,5 km/h (3 Bft)
03.12.2018 09:13 9,2 °C 87 % 1009,2 hPa 0,0 mm 9,9 km/h (2 Bft) W 265 ° 0 min 0,000 mm 0,0 UV-I 25 W/m² 7,2 °C 7,7 °C 12,9 km/h (3 Bft)
03.12.2018 09:14 9,2 °C 87 % 1009,2 hPa 0,0 mm 9,4 km/h (2 Bft) W-SW 255 ° 0 min 0,000 mm 0,0 UV-I 26 W/m² 7,2 °C 7,8 °C 14,5 km/h (3 Bft)
03.12.2018 09:15 9,2 °C 87 % 1009,3 hPa 0,0 mm 8,2 km/h (2 Bft) W-NW 283 ° 0 min 0,000 mm 0,0 UV-I 26 W/m² 7,2 °C 8,0 °C 11,3 km/h (2 Bft)
03.12.2018 09:16 9,2 °C 87 % 1009,2 hPa 0,0 mm 6,5 km/h (2 Bft) W-SW 256 ° 0 min 0,000 mm 0,0 UV-I 26 W/m² 7,2 °C 8,4 °C 12,9 km/h (3 Bft)
03.12.2018 09:17 9,2 °C 87 % 1009,2 hPa 0,0 mm 8,4 km/h (2 Bft) W-NW 284 ° 0 min 0,000 mm 0,0 UV-I 28 W/m² 7,2 °C 8,0 °C 12,9 km/h (3 Bft)
03.12.2018 09:18 9,2 °C 87 % 1009,2 hPa 0,0 mm 7,7 km/h (2 Bft) W-SW 258 ° 0 min 0,000 mm 0,0 UV-I 28 W/m² 7,2 °C 8,1 °C 14,5 km/h (3 Bft)
03.12.2018 09:19 9,1 °C 87 % 1009,2 hPa 0,0 mm 11,1 km/h (2 Bft) W 281 ° 0 min 0,000 mm 0,0 UV-I 28 W/m² 7,1 °C 7,4 °C 14,5 km/h (3 Bft)
03.12.2018 09:20 9,1 °C 87 % 1009,2 hPa 0,0 mm 12,6 km/h (3 Bft) W-SW 256 ° 0 min 0,000 mm 0,0 UV-I 28 W/m² 7,1 °C 7,1 °C 17,7 km/h (3 Bft)
03.12.2018 09:21 9,1 °C 87 % 1009,1 hPa 0,0 mm 15,0 km/h (3 Bft) W-NW 286 ° 0 min 0,000 mm 0,0 UV-I 28 W/m² 7,1 °C 6,8 °C 20,9 km/h (4 Bft)
03.12.2018 09:22 9,1 °C 87 % 1009,1 hPa 0,0 mm 8,3 km/h (2 Bft) W 261 ° 0 min 0,000 mm 0,0 UV-I 28 W/m² 7,1 °C 7,9 °C 12,9 km/h (3 Bft)
03.12.2018 09:23 9,1 °C 87 % 1009,1 hPa 0,0 mm 8,5 km/h (2 Bft) W-SW 258 ° 0 min 0,000 mm 0,0 UV-I 30 W/m² 7,1 °C 7,8 °C 12,9 km/h (3 Bft)
03.12.2018 09:24 9,1 °C 87 % 1009,1 hPa 0,0 mm 9,8 km/h (2 Bft) W-SW 238 ° 0 min 0,000 mm 0,0 UV-I 30 W/m² 7,1 °C 7,6 °C 19,3 km/h (3 Bft)
03.12.2018 09:25 9,1 °C 87 % 1009,0 hPa 0,0 mm 13,3 km/h (3 Bft) W 266 ° 0 min 0,000 mm 0,0 UV-I 30 W/m² 7,1 °C 7,0 °C 16,1 km/h (3 Bft)
03.12.2018 09:26 9,1 °C 87 % 1009,0 hPa 0,0 mm 8,8 km/h (2 Bft) W-SW 248 ° 0 min 0,000 mm 0,0 UV-I 32 W/m² 7,1 °C 7,8 °C 11,3 km/h (2 Bft)
03.12.2018 09:27 9,1 °C 87 % 1009,0 hPa 0,0 mm 7,8 km/h (2 Bft) W 265 ° 0 min 0,000 mm 0,0 UV-I 32 W/m² 7,1 °C 8,0 °C 12,9 km/h (3 Bft)
03.12.2018 09:28 9,1 °C 87 % 1009,0 hPa 0,0 mm 8,7 km/h (2 Bft) W 271 ° 0 min 0,000 mm 0,0 UV-I 35 W/m² 7,1 °C 7,8 °C 14,5 km/h (3 Bft)
03.12.2018 09:29 9,1 °C 87 % 1009,0 hPa 0,0 mm 7,7 km/h (2 Bft) W-NW 288 ° 0 min 0,000 mm 0,0 UV-I 39 W/m² 7,1 °C 8,0 °C 12,9 km/h (3 Bft)
03.12.2018 09:30 9,1 °C 87 % 1009,0 hPa 0,0 mm 8,9 km/h (2 Bft) W 269 ° 0 min 0,000 mm 0,0 UV-I 33 W/m² 7,1 °C 7,8 °C 12,9 km/h (3 Bft)
03.12.2018 09:31 9,1 °C 87 % 1009,0 hPa 0,0 mm 8,0 km/h (2 Bft) W 264 ° 0 min 0,000 mm 0,0 UV-I 32 W/m² 7,1 °C 7,9 °C 12,9 km/h (3 Bft)
03.12.2018 09:32 9,1 °C 87 % 1009,0 hPa 0,0 mm 11,7 km/h (2 Bft) W 274 ° 0 min 0,000 mm 0,0 UV-I 30 W/m² 7,1 °C 7,3 °C 19,3 km/h (3 Bft)
03.12.2018 09:33 9,1 °C 87 % 1009,0 hPa 0,0 mm 18,1 km/h (3 Bft) W 275 ° 0 min 0,000 mm 0,0 UV-I 30 W/m² 7,1 °C 6,4 °C 22,5 km/h (4 Bft)
03.12.2018 09:34 9,1 °C 87 % 1009,0 hPa 0,0 mm 12,3 km/h (3 Bft) W 263 ° 0 min 0,000 mm 0,0 UV-I 30 W/m² 7,1 °C 7,2 °C 16,1 km/h (3 Bft)
03.12.2018 09:35 9,1 °C 87 % 1009,0 hPa 0,0 mm 11,1 km/h (2 Bft) W 263 ° 0 min 0,000 mm 0,0 UV-I 32 W/m² 7,1 °C 7,4 °C 14,5 km/h (3 Bft)
03.12.2018 09:36 9,2 °C 87 % 1008,9 hPa 0,0 mm 9,5 km/h (2 Bft) W 266 ° 0 min 0,000 mm 0,0 UV-I 30 W/m² 7,2 °C 7,8 °C 16,1 km/h (3 Bft)
03.12.2018 09:37 9,2 °C 87 % 1009,0 hPa 0,0 mm 13,0 km/h (3 Bft) W-SW 238 ° 0 min 0,000 mm 0,0 UV-I 30 W/m² 7,2 °C 7,2 °C 16,1 km/h (3 Bft)
03.12.2018 09:38 9,2 °C 87 % 1009,0 hPa 0,0 mm 9,9 km/h (2 Bft) W 261 ° 0 min 0,000 mm 0,0 UV-I 30 W/m² 7,2 °C 7,7 °C 12,9 km/h (3 Bft)
03.12.2018 09:39 9,2 °C 87 % 1008,9 hPa 0,0 mm 11,1 km/h (2 Bft) W 263 ° 0 min 0,000 mm 0,0 UV-I 28 W/m² 7,2 °C 7,5 °C 16,1 km/h (3 Bft)
03.12.2018 09:40 9,2 °C 87 % 1009,0 hPa 0,0 mm 8,5 km/h (2 Bft) W-SW 254 ° 0 min 0,000 mm 0,0 UV-I 28 W/m² 7,2 °C 8,0 °C 11,3 km/h (2 Bft)
03.12.2018 09:41 9,2 °C 87 % 1008,9 hPa 0,0 mm 13,4 km/h (3 Bft) W 259 ° 0 min 0,000 mm 0,0 UV-I 26 W/m² 7,2 °C 7,1 °C 20,9 km/h (4 Bft)
03.12.2018 09:42 9,2 °C 87 % 1008,9 hPa 0,0 mm 15,4 km/h (3 Bft) W 269 ° 0 min 0,000 mm 0,0 UV-I 28 W/m² 7,2 °C 6,9 °C 22,5 km/h (4 Bft)
03.12.2018 09:43 9,2 °C 87 % 1008,9 hPa 0,0 mm 11,0 km/h (2 Bft) SW 232 ° 0 min 0,000 mm 0,0 UV-I 32 W/m² 7,2 °C 7,5 °C 19,3 km/h (3 Bft)
03.12.2018 09:44 9,2 °C 87 % 1008,9 hPa 0,0 mm 8,0 km/h (2 Bft) W 264 ° 0 min 0,000 mm 0,0 UV-I 33 W/m² 7,2 °C 8,1 °C 9,7 km/h (2 Bft)
03.12.2018 09:45 9,3 °C 87 % 1009,0 hPa 0,0 mm 8,6 km/h (2 Bft) W 269 ° 0 min 0,000 mm 0,0 UV-I 39 W/m² 7,2 °C 8,1 °C 11,3 km/h (2 Bft)
03.12.2018 09:46 9,3 °C 87 % 1008,9 hPa 0,0 mm 9,8 km/h (2 Bft) W-SW 248 ° 0 min 0,000 mm 0,0 UV-I 49 W/m² 7,2 °C 7,8 °C 17,7 km/h (3 Bft)
03.12.2018 09:47 9,3 °C 87 % 1008,9 hPa 0,0 mm 9,8 km/h (2 Bft) W 274 ° 0 min 0,000 mm 0,0 UV-I 51 W/m² 7,2 °C 7,8 °C 12,9 km/h (3 Bft)
03.12.2018 09:48 9,3 °C 87 % 1009,0 hPa 0,0 mm 13,3 km/h (3 Bft) W-SW 257 ° 0 min 0,000 mm 0,0 UV-I 51 W/m² 7,2 °C 7,3 °C 19,3 km/h (3 Bft)
03.12.2018 09:49 9,3 °C 87 % 1008,9 hPa 0,0 mm 12,0 km/h (2 Bft) W-SW 247 ° 0 min 0,000 mm 0,0 UV-I 49 W/m² 7,2 °C 7,5 °C 19,3 km/h (3 Bft)
03.12.2018 09:50 9,4 °C 87 % 1009,0 hPa 0,0 mm 9,1 km/h (2 Bft) W-SW 246 ° 0 min 0,000 mm 0,0 UV-I 44 W/m² 7,3 °C 8,1 °C 12,9 km/h (3 Bft)
03.12.2018 09:51 9,4 °C 87 % 1009,0 hPa 0,0 mm 12,0 km/h (2 Bft) W-SW 246 ° 0 min 0,000 mm 0,0 UV-I 39 W/m² 7,3 °C 7,6 °C 14,5 km/h (3 Bft)
03.12.2018 09:52 9,4 °C 87 % 1009,0 hPa 0,0 mm 10,5 km/h (2 Bft) W 262 ° 0 min 0,000 mm 0,0 UV-I 35 W/m² 7,3 °C 7,8 °C 22,5 km/h (4 Bft)
03.12.2018 09:53 9,4 °C 86 % 1009,0 hPa 0,0 mm 11,7 km/h (2 Bft) W-SW 257 ° 0 min 0,000 mm 0,0 UV-I 35 W/m² 7,2 °C 7,6 °C 14,5 km/h (3 Bft)
03.12.2018 09:54 9,4 °C 87 % 1009,0 hPa 0,0 mm 8,4 km/h (2 Bft) W-SW 248 ° 0 min 0,000 mm 0,0 UV-I 37 W/m² 7,3 °C 8,2 °C 11,3 km/h (2 Bft)
03.12.2018 09:55 9,4 °C 87 % 1009,0 hPa 0,0 mm 12,0 km/h (2 Bft) W 265 ° 0 min 0,000 mm 0,0 UV-I 39 W/m² 7,3 °C 7,6 °C 16,1 km/h (3 Bft)
03.12.2018 09:56 9,6 °C 86 % 1009,1 hPa 0,0 mm 10,1 km/h (2 Bft) W-SW 248 ° 0 min 0,000 mm 0,0 UV-I 37 W/m² 7,4 °C 8,1 °C 16,1 km/h (3 Bft)
03.12.2018 09:57 9,5 °C 86 % 1009,1 hPa 0,0 mm 12,2 km/h (2 Bft) W-NW 282 ° 0 min 0,000 mm 0,0 UV-I 37 W/m² 7,3 °C 7,7 °C 19,3 km/h (3 Bft)
03.12.2018 09:58 9,6 °C 86 % 1009,0 hPa 0,0 mm 11,3 km/h (2 Bft) W 280 ° 0 min 0,000 mm 0,0 UV-I 35 W/m² 7,4 °C 7,9 °C 16,1 km/h (3 Bft)
03.12.2018 09:59 9,6 °C 86 % 1009,1 hPa 0,0 mm 11,2 km/h (2 Bft) W 267 ° 0 min 0,000 mm 0,0 UV-I 37 W/m² 7,4 °C 8,0 °C 16,1 km/h (3 Bft)
03.12.2018 10:00 9,6 °C 86 % 1009,1 hPa 0,0 mm 9,3 km/h (2 Bft) W 259 ° 0 min 0,000 mm 0,0 UV-I 40 W/m² 7,4 °C 8,3 °C 12,9 km/h (3 Bft)
03.12.2018 10:01 9,6 °C 86 % 1009,1 hPa 0,0 mm 11,6 km/h (2 Bft) W 265 ° 0 min 0,025 mm 0,0 UV-I 54 W/m² 7,4 °C 7,9 °C 14,5 km/h (3 Bft)
03.12.2018 10:02 9,6 °C 86 % 1009,1 hPa 0,0 mm 7,2 km/h (2 Bft) W-SW 251 ° 0 min 0,000 mm 0,6 UV-I 83 W/m² 7,4 °C 8,7 °C 11,3 km/h (2 Bft)
03.12.2018 10:03 9,7 °C 86 % 1009,2 hPa 0,0 mm 7,2 km/h (2 Bft) W-SW 250 ° 0 min 0,000 mm 0,6 UV-I 104 W/m² 7,5 °C 8,8 °C 14,5 km/h (3 Bft)
03.12.2018 10:04 9,8 °C 86 % 1009,0 hPa 0,0 mm 10,8 km/h (2 Bft) W 259 ° 0 min 0,000 mm 0,6 UV-I 98 W/m² 7,6 °C 8,3 °C 16,1 km/h (3 Bft)
03.12.2018 10:05 9,9 °C 86 % 1009,1 hPa 0,0 mm 8,3 km/h (2 Bft) W-SW 238 ° 0 min 0,000 mm 0,6 UV-I 76 W/m² 7,7 °C 8,8 °C 12,9 km/h (3 Bft)
03.12.2018 10:06 10,1 °C 86 % 1009,1 hPa 0,0 mm 9,7 km/h (2 Bft) W 271 ° 0 min 0,000 mm 0,6 UV-I 70 W/m² 7,9 °C 10,1 °C 12,9 km/h (3 Bft)
03.12.2018 10:07 10,1 °C 85 % 1009,1 hPa 0,0 mm 10,9 km/h (2 Bft) W 263 ° 0 min 0,000 mm 0,6 UV-I 74 W/m² 7,7 °C 10,1 °C 14,5 km/h (3 Bft)
03.12.2018 10:08 10,2 °C 84 % 1009,1 hPa 0,0 mm 3,9 km/h (1 Bft) W-SW 252 ° 0 min 0,000 mm 0,6 UV-I 76 W/m² 7,6 °C 10,2 °C 6,4 km/h (2 Bft)
03.12.2018 10:09 10,3 °C 84 % 1009,1 hPa 0,0 mm 4,9 km/h (1 Bft) SW 231 ° 0 min 0,000 mm 0,6 UV-I 63 W/m² 7,7 °C 10,3 °C 14,5 km/h (3 Bft)
03.12.2018 10:10 10,3 °C 84 % 1009,1 hPa 0,0 mm 7,0 km/h (2 Bft) W 272 ° 0 min 0,000 mm 0,0 UV-I 35 W/m² 7,7 °C 10,3 °C 11,3 km/h (2 Bft)
03.12.2018 10:11 10,4 °C 84 % 1009,1 hPa 0,0 mm 13,0 km/h (3 Bft) W 268 ° 0 min 0,000 mm 0,0 UV-I 30 W/m² 7,8 °C 10,4 °C 17,7 km/h (3 Bft)
03.12.2018 10:12 10,4 °C 84 % 1009,1 hPa 0,0 mm 13,9 km/h (3 Bft) W-SW 239 ° 0 min 0,000 mm 0,0 UV-I 28 W/m² 7,8 °C 10,4 °C 20,9 km/h (4 Bft)
03.12.2018 10:13 10,4 °C 83 % 1009,2 hPa 0,0 mm 8,3 km/h (2 Bft) SW 227 ° 0 min 0,000 mm 0,0 UV-I 30 W/m² 7,6 °C 10,4 °C 14,5 km/h (3 Bft)
03.12.2018 10:14 10,4 °C 83 % 1009,2 hPa 0,0 mm 7,1 km/h (2 Bft) W-NW 285 ° 0 min 0,000 mm 0,0 UV-I 37 W/m² 7,6 °C 10,4 °C 11,3 km/h (2 Bft)
03.12.2018 10:15 10,4 °C 83 % 1009,2 hPa 0,0 mm 9,5 km/h (2 Bft) SW 233 ° 0 min 0,000 mm 0,0 UV-I 46 W/m² 7,6 °C 10,4 °C 16,1 km/h (3 Bft)
03.12.2018 10:16 10,4 °C 83 % 1009,2 hPa 0,0 mm 13,4 km/h (3 Bft) S-SW 209 ° 0 min 0,000 mm 0,0 UV-I 51 W/m² 7,6 °C 10,4 °C 25,7 km/h (4 Bft)
03.12.2018 10:17 10,4 °C 83 % 1009,1 hPa 0,0 mm 8,7 km/h (2 Bft) SW 222 ° 0 min 0,000 mm 0,0 UV-I 49 W/m² 7,6 °C 10,4 °C 14,5 km/h (3 Bft)
03.12.2018 10:18 10,4 °C 83 % 1009,2 hPa 0,0 mm 9,7 km/h (2 Bft) SW 227 ° 0 min 0,000 mm 0,0 UV-I 51 W/m² 7,6 °C 10,4 °C 16,1 km/h (3 Bft)
03.12.2018 10:19 10,4 °C 83 % 1009,2 hPa 0,0 mm 12,8 km/h (3 Bft) W 275 ° 0 min 0,000 mm 0,0 UV-I 51 W/m² 7,6 °C 10,4 °C 17,7 km/h (3 Bft)
03.12.2018 10:20 10,4 °C 83 % 1009,2 hPa 0,0 mm 6,1 km/h (2 Bft) W 275 ° 0 min 0,000 mm 0,7 UV-I 56 W/m² 7,6 °C 10,4 °C 11,3 km/h (2 Bft)
03.12.2018 10:21 10,4 °C 83 % 1009,2 hPa 0,0 mm 16,7 km/h (3 Bft) W 276 ° 0 min 0,000 mm 0,7 UV-I 70 W/m² 7,6 °C 10,4 °C 20,9 km/h (4 Bft)
03.12.2018 10:22 10,4 °C 83 % 1009,2 hPa 0,0 mm 9,1 km/h (2 Bft) W 261 ° 0 min 0,000 mm 0,7 UV-I 98 W/m² 7,6 °C 10,4 °C 12,9 km/h (3 Bft)
03.12.2018 10:23 10,4 °C 84 % 1009,2 hPa 0,0 mm 13,2 km/h (3 Bft) W 261 ° 0 min 0,000 mm 0,7 UV-I 97 W/m² 7,8 °C 10,4 °C 17,7 km/h (3 Bft)
03.12.2018 10:24 10,5 °C 84 % 1009,2 hPa 0,0 mm 6,9 km/h (2 Bft) W 277 ° 0 min 0,000 mm 0,7 UV-I 88 W/m² 7,9 °C 10,5 °C 12,9 km/h (3 Bft)
03.12.2018 10:25 10,6 °C 84 % 1009,2 hPa 0,0 mm 13,3 km/h (3 Bft) W 262 ° 0 min 0,000 mm 0,7 UV-I 69 W/m² 8,0 °C 10,6 °C 16,1 km/h (3 Bft)
03.12.2018 10:26 10,6 °C 84 % 1009,2 hPa 0,0 mm 10,6 km/h (2 Bft) SW 220 ° 0 min 0,000 mm 0,7 UV-I 69 W/m² 8,0 °C 10,6 °C 14,5 km/h (3 Bft)
03.12.2018 10:27 10,6 °C 83 % 1009,2 hPa 0,0 mm 9,8 km/h (2 Bft) W 261 ° 0 min 0,000 mm 0,7 UV-I 86 W/m² 7,8 °C 10,6 °C 17,7 km/h (3 Bft)
03.12.2018 10:28 10,7 °C 83 % 1009,2 hPa 0,0 mm 8,8 km/h (2 Bft) W-SW 253 ° 0 min 0,000 mm 0,7 UV-I 91 W/m² 7,9 °C 10,7 °C 14,5 km/h (3 Bft)
03.12.2018 10:29 10,7 °C 83 % 1009,2 hPa 0,0 mm 10,6 km/h (2 Bft) W-SW 254 ° 0 min 0,000 mm 0,8 UV-I 107 W/m² 7,9 °C 10,7 °C 16,1 km/h (3 Bft)
03.12.2018 10:30 10,8 °C 83 % 1009,2 hPa 0,0 mm 7,4 km/h (2 Bft) W-SW 244 ° 0 min 0,000 mm 0,8 UV-I 127 W/m² 8,0 °C 10,8 °C 14,5 km/h (3 Bft)
03.12.2018 10:31 10,8 °C 83 % 1009,1 hPa 0,0 mm 10,9 km/h (2 Bft) W 279 ° 0 min 0,000 mm 0,8 UV-I 125 W/m² 8,0 °C 10,8 °C 19,3 km/h (3 Bft)
03.12.2018 10:32 10,9 °C 83 % 1009,1 hPa 0,0 mm 7,5 km/h (2 Bft) SW 233 ° 0 min 0,000 mm 0,8 UV-I 127 W/m² 8,1 °C 10,9 °C 11,3 km/h (2 Bft)
03.12.2018 10:33 11,0 °C 82 % 1009,2 hPa 0,0 mm 11,2 km/h (2 Bft) W 265 ° 0 min 0,000 mm 0,8 UV-I 123 W/m² 8,0 °C 11,0 °C 16,1 km/h (3 Bft)
03.12.2018 10:34 11,1 °C 83 % 1009,1 hPa 0,0 mm 7,8 km/h (2 Bft) W 265 ° 0 min 0,000 mm 0,8 UV-I 102 W/m² 8,3 °C 11,1 °C 12,9 km/h (3 Bft)
03.12.2018 10:35 11,2 °C 83 % 1009,1 hPa 0,0 mm 11,5 km/h (2 Bft) W 263 ° 0 min 0,000 mm 0,8 UV-I 84 W/m² 8,4 °C 11,2 °C 16,1 km/h (3 Bft)
03.12.2018 10:36 11,2 °C 83 % 1009,2 hPa 0,0 mm 9,1 km/h (2 Bft) W-SW 258 ° 0 min 0,000 mm 0,8 UV-I 84 W/m² 8,4 °C 11,2 °C 14,5 km/h (3 Bft)
03.12.2018 10:37 11,3 °C 82 % 1009,2 hPa 0,0 mm 7,3 km/h (2 Bft) W-NW 282 ° 0 min 0,000 mm 0,8 UV-I 90 W/m² 8,3 °C 11,3 °C 11,3 km/h (2 Bft)
03.12.2018 10:38 11,3 °C 82 % 1009,2 hPa 0,0 mm 8,4 km/h (2 Bft) W-SW 252 ° 0 min 0,000 mm 0,8 UV-I 72 W/m² 8,3 °C 11,3 °C 17,7 km/h (3 Bft)
03.12.2018 10:39 11,3 °C 82 % 1009,2 hPa 0,0 mm 11,2 km/h (2 Bft) W 261 ° 0 min 0,000 mm 0,0 UV-I 28 W/m² 8,3 °C 11,3 °C 19,3 km/h (3 Bft)
03.12.2018 10:40 11,3 °C 81 % 1009,1 hPa 0,0 mm 9,2 km/h (2 Bft) W 268 ° 0 min 0,000 mm 0,0 UV-I 30 W/m² 8,2 °C 11,3 °C 14,5 km/h (3 Bft)
03.12.2018 10:41 11,3 °C 81 % 1009,1 hPa 0,0 mm 12,5 km/h (3 Bft) W-SW 241 ° 0 min 0,000 mm 0,0 UV-I 33 W/m² 8,2 °C 11,3 °C 16,1 km/h (3 Bft)
03.12.2018 10:42 11,2 °C 81 % 1009,1 hPa 0,0 mm 10,9 km/h (2 Bft) W-NW 286 ° 0 min 0,000 mm 0,0 UV-I 37 W/m² 8,1 °C 11,2 °C 14,5 km/h (3 Bft)
03.12.2018 10:43 11,2 °C 81 % 1009,1 hPa 0,0 mm 9,7 km/h (2 Bft) W-SW 248 ° 0 min 0,000 mm 0,0 UV-I 44 W/m² 8,1 °C 11,2 °C 14,5 km/h (3 Bft)
03.12.2018 10:44 11,2 °C 81 % 1009,1 hPa 0,0 mm 14,2 km/h (3 Bft) W 259 ° 0 min 0,000 mm 0,8 UV-I 62 W/m² 8,1 °C 11,2 °C 17,7 km/h (3 Bft)
03.12.2018 10:45 11,2 °C 81 % 1009,1 hPa 0,0 mm 12,9 km/h (3 Bft) W 261 ° 0 min 0,000 mm 0,8 UV-I 93 W/m² 8,1 °C 11,2 °C 17,7 km/h (3 Bft)
03.12.2018 10:46 11,2 °C 81 % 1009,1 hPa 0,0 mm 13,3 km/h (3 Bft) W 281 ° 0 min 0,000 mm 0,8 UV-I 113 W/m² 8,1 °C 11,2 °C 16,1 km/h (3 Bft)
03.12.2018 10:47 11,2 °C 81 % 1009,1 hPa 0,0 mm 14,7 km/h (3 Bft) W-SW 246 ° 0 min 0,000 mm 0,8 UV-I 109 W/m² 8,1 °C 11,2 °C 19,3 km/h (3 Bft)
03.12.2018 10:48 11,2 °C 81 % 1009,1 hPa 0,0 mm 10,4 km/h (2 Bft) W 280 ° 0 min 0,000 mm 0,8 UV-I 81 W/m² 8,1 °C 11,2 °C 16,1 km/h (3 Bft)
03.12.2018 10:49 11,3 °C 81 % 1009,1 hPa 0,0 mm 11,6 km/h (2 Bft) W-SW 252 ° 0 min 0,000 mm 0,8 UV-I 65 W/m² 8,2 °C 11,3 °C 14,5 km/h (3 Bft)
03.12.2018 10:50 11,3 °C 81 % 1009,2 hPa 0,0 mm 15,4 km/h (3 Bft) W-SW 257 ° 0 min 0,000 mm 0,8 UV-I 56 W/m² 8,2 °C 11,3 °C 22,5 km/h (4 Bft)
03.12.2018 10:51 11,3 °C 80 % 1009,0 hPa 0,0 mm 12,1 km/h (2 Bft) W 259 ° 0 min 0,000 mm 0,8 UV-I 33 W/m² 8,0 °C 11,3 °C 19,3 km/h (3 Bft)
03.12.2018 10:52 11,3 °C 80 % 1009,0 hPa 0,0 mm 10,5 km/h (2 Bft) W-SW 256 ° 0 min 0,000 mm 0,0 UV-I 35 W/m² 8,0 °C 11,3 °C 16,1 km/h (3 Bft)
03.12.2018 10:53 11,3 °C 80 % 1009,0 hPa 0,0 mm 10,1 km/h (2 Bft) W-NW 284 ° 0 min 0,000 mm 0,0 UV-I 39 W/m² 8,0 °C 11,3 °C 16,1 km/h (3 Bft)
03.12.2018 10:54 11,3 °C 80 % 1009,0 hPa 0,0 mm 10,9 km/h (2 Bft) W-NW 286 ° 0 min 0,000 mm 0,0 UV-I 42 W/m² 8,0 °C 11,3 °C 16,1 km/h (3 Bft)
03.12.2018 10:55 11,3 °C 80 % 1009,0 hPa 0,0 mm 12,0 km/h (2 Bft) W-SW 251 ° 0 min 0,000 mm 0,0 UV-I 46 W/m² 8,0 °C 11,3 °C 16,1 km/h (3 Bft)
03.12.2018 10:56 11,3 °C 80 % 1009,1 hPa 0,0 mm 10,0 km/h (2 Bft) W-SW 256 ° 0 min 0,000 mm 0,0 UV-I 40 W/m² 8,0 °C 11,3 °C 16,1 km/h (3 Bft)
03.12.2018 10:57 11,3 °C 80 % 1009,0 hPa 0,0 mm 15,0 km/h (3 Bft) W-SW 250 ° 0 min 0,000 mm 0,0 UV-I 40 W/m² 8,0 °C 11,3 °C 20,9 km/h (4 Bft)
03.12.2018 10:58 11,3 °C 80 % 1009,0 hPa 0,0 mm 10,9 km/h (2 Bft) NW 307 ° 0 min 0,000 mm 0,0 UV-I 44 W/m² 8,0 °C 11,3 °C 17,7 km/h (3 Bft)
03.12.2018 10:59 11,3 °C 80 % 1009,0 hPa 0,0 mm 13,7 km/h (3 Bft) W-NW 292 ° 0 min 0,000 mm 0,0 UV-I 51 W/m² 8,0 °C 11,3 °C 17,7 km/h (3 Bft)
03.12.2018 11:00 11,3 °C 80 % 1009,0 hPa 0,0 mm 12,2 km/h (2 Bft) W-SW 253 ° 0 min 0,000 mm 0,0 UV-I 54 W/m² 8,0 °C 11,3 °C 16,1 km/h (3 Bft)
03.12.2018 11:01 11,2 °C 80 % 1009,0 hPa 0,0 mm 14,9 km/h (3 Bft) W 261 ° 0 min 0,051 mm 0,0 UV-I 54 W/m² 7,9 °C 11,2 °C 32,2 km/h (5 Bft)
03.12.2018 11:02 11,2 °C 79 % 1009,0 hPa 0,0 mm 18,2 km/h (3 Bft) W 273 ° 0 min 0,000 mm 0,9 UV-I 65 W/m² 7,7 °C 11,2 °C 32,2 km/h (5 Bft)
03.12.2018 11:03 11,2 °C 79 % 1009,1 hPa 0,0 mm 13,3 km/h (3 Bft) NW 315 ° 0 min 0,000 mm 0,9 UV-I 70 W/m² 7,7 °C 11,2 °C 19,3 km/h (3 Bft)
03.12.2018 11:04 11,2 °C 79 % 1009,0 hPa 0,0 mm 11,7 km/h (2 Bft) W 276 ° 0 min 0,000 mm 0,9 UV-I 77 W/m² 7,7 °C 11,2 °C 12,9 km/h (3 Bft)
03.12.2018 11:05 11,2 °C 79 % 1009,1 hPa 0,0 mm 13,2 km/h (3 Bft) W 278 ° 0 min 0,000 mm 0,9 UV-I 83 W/m² 7,7 °C 11,2 °C 19,3 km/h (3 Bft)
03.12.2018 11:06 11,2 °C 80 % 1009,1 hPa 0,0 mm 16,4 km/h (3 Bft) W-SW 248 ° 0 min 0,000 mm 0,9 UV-I 86 W/m² 7,9 °C 11,2 °C 19,3 km/h (3 Bft)
03.12.2018 11:07 11,2 °C 80 % 1009,1 hPa 0,0 mm 10,1 km/h (2 Bft) W-SW 252 ° 0 min 0,000 mm 0,9 UV-I 84 W/m² 7,9 °C 11,2 °C 17,7 km/h (3 Bft)
03.12.2018 11:08 11,2 °C 80 % 1009,1 hPa 0,0 mm 20,0 km/h (4 Bft) W-SW 253 ° 0 min 0,000 mm 0,9 UV-I 74 W/m² 7,9 °C 11,2 °C 29,0 km/h (5 Bft)
03.12.2018 11:09 11,2 °C 79 % 1009,1 hPa 0,0 mm 15,0 km/h (3 Bft) W-NW 298 ° 0 min 0,000 mm 0,8 UV-I 76 W/m² 7,7 °C 11,2 °C 19,3 km/h (3 Bft)
03.12.2018 11:10 11,2 °C 79 % 1009,1 hPa 0,0 mm 18,9 km/h (3 Bft) SW 235 ° 0 min 0,000 mm 0,8 UV-I 79 W/m² 7,7 °C 11,2 °C 30,6 km/h (5 Bft)
03.12.2018 11:11 11,2 °C 80 % 1009,1 hPa 0,0 mm 16,4 km/h (3 Bft) W-SW 252 ° 0 min 0,000 mm 0,8 UV-I 63 W/m² 7,9 °C 11,2 °C 27,4 km/h (4 Bft)
03.12.2018 11:12 11,2 °C 80 % 1009,1 hPa 0,0 mm 9,7 km/h (2 Bft) W 262 ° 0 min 0,000 mm 0,0 UV-I 54 W/m² 7,9 °C 11,2 °C 17,7 km/h (3 Bft)
03.12.2018 11:13 11,2 °C 80 % 1009,0 hPa 0,0 mm 12,3 km/h (3 Bft) W-SW 252 ° 0 min 0,000 mm 0,0 UV-I 49 W/m² 7,9 °C 11,2 °C 16,1 km/h (3 Bft)
03.12.2018 11:14 11,1 °C 80 % 1009,0 hPa 0,0 mm 13,0 km/h (3 Bft) W 281 ° 0 min 0,000 mm 0,0 UV-I 53 W/m² 7,8 °C 11,1 °C 17,7 km/h (3 Bft)
03.12.2018 11:15 11,1 °C 80 % 1008,9 hPa 0,0 mm 13,1 km/h (3 Bft) SW 233 ° 0 min 0,000 mm 0,9 UV-I 56 W/m² 7,8 °C 11,1 °C 20,9 km/h (4 Bft)
03.12.2018 11:16 11,0 °C 80 % 1008,9 hPa 0,0 mm 13,8 km/h (3 Bft) W-NW 300 ° 0 min 0,000 mm 0,9 UV-I 67 W/m² 7,7 °C 11,0 °C 20,9 km/h (4 Bft)
03.12.2018 11:17 11,0 °C 80 % 1008,9 hPa 0,0 mm 14,7 km/h (3 Bft) W-SW 258 ° 0 min 0,000 mm 0,9 UV-I 76 W/m² 7,7 °C 11,0 °C 19,3 km/h (3 Bft)
03.12.2018 11:18 10,9 °C 81 % 1009,0 hPa 0,0 mm 9,8 km/h (2 Bft) W 263 ° 0 min 0,000 mm 0,9 UV-I 79 W/m² 7,8 °C 10,9 °C 14,5 km/h (3 Bft)
03.12.2018 11:19 10,9 °C 81 % 1009,0 hPa 0,0 mm 15,9 km/h (3 Bft) W 271 ° 0 min 0,000 mm 0,9 UV-I 65 W/m² 7,8 °C 10,9 °C 22,5 km/h (4 Bft)
03.12.2018 11:20 10,9 °C 82 % 1008,9 hPa 0,0 mm 12,2 km/h (2 Bft) W-NW 283 ° 0 min 0,000 mm 0,9 UV-I 65 W/m² 7,9 °C 10,9 °C 16,1 km/h (3 Bft)
03.12.2018 11:21 10,9 °C 81 % 1008,9 hPa 0,0 mm 8,5 km/h (2 Bft) W 281 ° 0 min 0,000 mm 1,0 UV-I 76 W/m² 7,8 °C 10,9 °C 14,5 km/h (3 Bft)
03.12.2018 11:22 11,0 °C 81 % 1009,0 hPa 0,0 mm 8,9 km/h (2 Bft) W-SW 251 ° 0 min 0,000 mm 1,0 UV-I 86 W/m² 7,9 °C 11,0 °C 14,5 km/h (3 Bft)
03.12.2018 11:23 11,1 °C 81 % 1009,0 hPa 0,0 mm 11,4 km/h (2 Bft) W-NW 302 ° 0 min 0,000 mm 1,0 UV-I 93 W/m² 8,0 °C 11,1 °C 19,3 km/h (3 Bft)
03.12.2018 11:24 11,1 °C 81 % 1008,9 hPa 0,0 mm 18,3 km/h (3 Bft) W-SW 248 ° 0 min 0,000 mm 1,0 UV-I 93 W/m² 8,0 °C 11,1 °C 25,7 km/h (4 Bft)
03.12.2018 11:25 11,2 °C 80 % 1009,0 hPa 0,0 mm 12,7 km/h (3 Bft) W-SW 242 ° 0 min 0,000 mm 1,0 UV-I 104 W/m² 7,9 °C 11,2 °C 19,3 km/h (3 Bft)
03.12.2018 11:26 11,2 °C 81 % 1009,0 hPa 0,0 mm 13,5 km/h (3 Bft) W-SW 257 ° 0 min 0,000 mm 1,0 UV-I 102 W/m² 8,1 °C 11,2 °C 19,3 km/h (3 Bft)
03.12.2018 11:27 11,3 °C 81 % 1008,9 hPa 0,0 mm 10,1 km/h (2 Bft) W 265 ° 0 min 0,000 mm 1,0 UV-I 98 W/m² 8,2 °C 11,3 °C 19,3 km/h (3 Bft)
03.12.2018 11:28 11,3 °C 81 % 1008,9 hPa 0,0 mm 13,9 km/h (3 Bft) W 264 ° 0 min 0,000 mm 1,0 UV-I 91 W/m² 8,2 °C 11,3 °C 19,3 km/h (3 Bft)
03.12.2018 11:29 11,4 °C 80 % 1008,8 hPa 0,0 mm 17,5 km/h (3 Bft) W-NW 291 ° 0 min 0,000 mm 1,0 UV-I 81 W/m² 8,1 °C 11,4 °C 20,9 km/h (4 Bft)
03.12.2018 11:30 11,4 °C 80 % 1008,8 hPa 0,0 mm 12,6 km/h (3 Bft) W 277 ° 0 min 0,000 mm 1,0 UV-I 74 W/m² 8,1 °C 11,4 °C 17,7 km/h (3 Bft)
03.12.2018 11:31 11,4 °C 80 % 1008,8 hPa 0,0 mm 11,1 km/h (2 Bft) W 271 ° 0 min 0,000 mm 1,0 UV-I 76 W/m² 8,1 °C 11,4 °C 14,5 km/h (3 Bft)
03.12.2018 11:32 11,4 °C 80 % 1008,7 hPa 0,0 mm 9,7 km/h (2 Bft) W-SW 251 ° 0 min 0,000 mm 1,0 UV-I 91 W/m² 8,1 °C 11,4 °C 17,7 km/h (3 Bft)
03.12.2018 11:33 11,4 °C 80 % 1008,7 hPa 0,0 mm 11,1 km/h (2 Bft) W 273 ° 0 min 0,000 mm 1,0 UV-I 90 W/m² 8,1 °C 11,4 °C 20,9 km/h (4 Bft)
03.12.2018 11:34 11,6 °C 80 % 1008,8 hPa 0,0 mm 7,2 km/h (2 Bft) W-NW 292 ° 0 min 0,000 mm 1,0 UV-I 88 W/m² 8,3 °C 11,6 °C 11,3 km/h (2 Bft)
03.12.2018 11:35 11,6 °C 79 % 1008,7 hPa 0,0 mm 7,6 km/h (2 Bft) W-SW 257 ° 0 min 0,000 mm 1,0 UV-I 97 W/m² 8,1 °C 11,6 °C 11,3 km/h (2 Bft)
03.12.2018 11:36 11,6 °C 80 % 1008,7 hPa 0,0 mm 13,1 km/h (3 Bft) W 275 ° 0 min 0,000 mm 1,0 UV-I 105 W/m² 8,3 °C 11,6 °C 19,3 km/h (3 Bft)
03.12.2018 11:37 11,6 °C 79 % 1008,8 hPa 0,0 mm 18,6 km/h (3 Bft) W 280 ° 0 min 0,000 mm 1,0 UV-I 114 W/m² 8,1 °C 11,6 °C 24,1 km/h (4 Bft)
03.12.2018 11:38 11,6 °C 78 % 1008,8 hPa 0,0 mm 14,4 km/h (3 Bft) W-SW 258 ° 0 min 0,000 mm 1,0 UV-I 114 W/m² 7,9 °C 11,6 °C 19,3 km/h (3 Bft)
03.12.2018 11:39 11,7 °C 79 % 1008,8 hPa 0,0 mm 13,1 km/h (3 Bft) W-NW 296 ° 0 min 0,000 mm 1,0 UV-I 114 W/m² 8,2 °C 11,7 °C 22,5 km/h (4 Bft)
03.12.2018 11:40 11,7 °C 79 % 1008,7 hPa 0,0 mm 12,6 km/h (3 Bft) W-NW 291 ° 0 min 0,000 mm 1,0 UV-I 121 W/m² 8,2 °C 11,7 °C 19,3 km/h (3 Bft)
03.12.2018 11:41 11,7 °C 79 % 1008,7 hPa 0,0 mm 10,6 km/h (2 Bft) W 264 ° 0 min 0,000 mm 1,0 UV-I 137 W/m² 8,2 °C 11,7 °C 19,3 km/h (3 Bft)
03.12.2018 11:42 11,7 °C 79 % 1008,7 hPa 0,0 mm 15,7 km/h (3 Bft) W-SW 254 ° 0 min 0,000 mm 1,1 UV-I 155 W/m² 8,2 °C 11,7 °C 20,9 km/h (4 Bft)
03.12.2018 11:43 11,7 °C 79 % 1008,7 hPa 0,0 mm 7,8 km/h (2 Bft) W-SW 247 ° 0 min 0,000 mm 1,1 UV-I 167 W/m² 8,2 °C 11,7 °C 16,1 km/h (3 Bft)
03.12.2018 11:44 11,8 °C 80 % 1008,7 hPa 0,0 mm 12,5 km/h (3 Bft) W 263 ° 0 min 0,000 mm 1,1 UV-I 149 W/m² 8,5 °C 11,8 °C 17,7 km/h (3 Bft)
03.12.2018 11:45 11,8 °C 80 % 1008,7 hPa 0,0 mm 13,3 km/h (3 Bft) W 263 ° 0 min 0,000 mm 1,0 UV-I 132 W/m² 8,5 °C 11,8 °C 19,3 km/h (3 Bft)
03.12.2018 11:46 11,8 °C 79 % 1008,7 hPa 0,0 mm 9,3 km/h (2 Bft) W-NW 289 ° 0 min 0,000 mm 1,0 UV-I 121 W/m² 8,3 °C 11,8 °C 16,1 km/h (3 Bft)
03.12.2018 11:47 11,9 °C 79 % 1008,7 hPa 0,0 mm 6,4 km/h (2 Bft) W-NW 286 ° 0 min 0,000 mm 1,0 UV-I 111 W/m² 8,4 °C 11,9 °C 11,3 km/h (2 Bft)
03.12.2018 11:48 11,9 °C 79 % 1008,6 hPa 0,0 mm 12,3 km/h (3 Bft) W 263 ° 0 min 0,000 mm 1,0 UV-I 104 W/m² 8,4 °C 11,9 °C 16,1 km/h (3 Bft)
03.12.2018 11:49 11,9 °C 78 % 1008,6 hPa 0,0 mm 10,3 km/h (2 Bft) W-NW 283 ° 0 min 0,000 mm 1,1 UV-I 116 W/m² 8,2 °C 11,9 °C 14,5 km/h (3 Bft)
03.12.2018 11:50 11,9 °C 79 % 1008,6 hPa 0,0 mm 14,3 km/h (3 Bft) W-NW 294 ° 0 min 0,000 mm 1,1 UV-I 120 W/m² 8,4 °C 11,9 °C 17,7 km/h (3 Bft)
03.12.2018 11:51 12,0 °C 78 % 1008,6 hPa 0,0 mm 9,4 km/h (2 Bft) W-NW 285 ° 0 min 0,000 mm 1,1 UV-I 125 W/m² 8,3 °C 12,0 °C 14,5 km/h (3 Bft)
03.12.2018 11:52 12,0 °C 78 % 1008,6 hPa 0,0 mm 15,2 km/h (3 Bft) W 261 ° 0 min 0,000 mm 1,1 UV-I 130 W/m² 8,3 °C 12,0 °C 20,9 km/h (4 Bft)
03.12.2018 11:53 12,1 °C 78 % 1008,6 hPa 0,0 mm 14,9 km/h (3 Bft) W 279 ° 0 min 0,000 mm 1,1 UV-I 132 W/m² 8,4 °C 12,1 °C 19,3 km/h (3 Bft)
03.12.2018 11:54 12,1 °C 77 % 1008,5 hPa 0,0 mm 12,0 km/h (2 Bft) W 259 ° 0 min 0,000 mm 1,2 UV-I 141 W/m² 8,2 °C 12,1 °C 20,9 km/h (4 Bft)
03.12.2018 11:55 12,2 °C 77 % 1008,5 hPa 0,0 mm 14,2 km/h (3 Bft) W-NW 284 ° 0 min 0,000 mm 1,2 UV-I 146 W/m² 8,3 °C 12,2 °C 20,9 km/h (4 Bft)
03.12.2018 11:56 12,2 °C 77 % 1008,5 hPa 0,0 mm 12,8 km/h (3 Bft) W-SW 253 ° 0 min 0,000 mm 1,2 UV-I 144 W/m² 8,3 °C 12,2 °C 17,7 km/h (3 Bft)
03.12.2018 11:57 12,2 °C 76 % 1008,5 hPa 0,0 mm 15,1 km/h (3 Bft) W 265 ° 0 min 0,000 mm 1,2 UV-I 149 W/m² 8,1 °C 12,2 °C 19,3 km/h (3 Bft)
03.12.2018 11:58 12,3 °C 76 % 1008,4 hPa 0,0 mm 13,6 km/h (3 Bft) W 275 ° 0 min 0,000 mm 1,1 UV-I 146 W/m² 8,2 °C 12,3 °C 17,7 km/h (3 Bft)
03.12.2018 11:59 12,3 °C 77 % 1008,4 hPa 0,0 mm 12,3 km/h (3 Bft) W-NW 284 ° 0 min 0,000 mm 1,1 UV-I 144 W/m² 8,4 °C 12,3 °C 16,1 km/h (3 Bft)
03.12.2018 12:00 12,3 °C 77 % 1008,3 hPa 0,0 mm 14,0 km/h (3 Bft) W-NW 293 ° 0 min 0,000 mm 1,2 UV-I 148 W/m² 8,4 °C 12,3 °C 22,5 km/h (4 Bft)
03.12.2018 12:01 12,3 °C 77 % 1008,3 hPa 0,0 mm 14,2 km/h (3 Bft) W-NW 300 ° 0 min 0,076 mm 1,2 UV-I 153 W/m² 8,4 °C 12,3 °C 20,9 km/h (4 Bft)
03.12.2018 12:02 12,4 °C 77 % 1008,3 hPa 0,0 mm 10,8 km/h (2 Bft) W 273 ° 0 min 0,000 mm 1,2 UV-I 155 W/m² 8,5 °C 12,4 °C 16,1 km/h (3 Bft)
03.12.2018 12:03 12,4 °C 77 % 1008,2 hPa 0,0 mm 10,1 km/h (2 Bft) W 261 ° 0 min 0,000 mm 1,2 UV-I 172 W/m² 8,5 °C 12,4 °C 14,5 km/h (3 Bft)
03.12.2018 12:04 12,4 °C 77 % 1008,2 hPa 0,0 mm 12,3 km/h (3 Bft) W 267 ° 0 min 0,000 mm 1,2 UV-I 171 W/m² 8,5 °C 12,4 °C 24,1 km/h (4 Bft)
03.12.2018 12:05 12,4 °C 75 % 1008,2 hPa 0,0 mm 22,5 km/h (4 Bft) W 268 ° 0 min 0,000 mm 1,2 UV-I 171 W/m² 8,1 °C 12,4 °C 30,6 km/h (5 Bft)
03.12.2018 12:06 12,5 °C 76 % 1008,2 hPa 0,0 mm 18,2 km/h (3 Bft) W 259 ° 0 min 0,000 mm 1,2 UV-I 151 W/m² 8,4 °C 12,5 °C 25,7 km/h (4 Bft)
03.12.2018 12:07 12,5 °C 75 % 1008,2 hPa 0,0 mm 15,4 km/h (3 Bft) NW 307 ° 0 min 0,000 mm 1,2 UV-I 158 W/m² 8,2 °C 12,5 °C 24,1 km/h (4 Bft)
03.12.2018 12:08 12,5 °C 75 % 1008,2 hPa 0,0 mm 11,7 km/h (2 Bft) W-SW 253 ° 0 min 0,000 mm 1,2 UV-I 162 W/m² 8,2 °C 12,5 °C 19,3 km/h (3 Bft)
03.12.2018 12:09 12,5 °C 76 % 1008,2 hPa 0,0 mm 16,5 km/h (3 Bft) W 265 ° 0 min 0,000 mm 1,2 UV-I 171 W/m² 8,4 °C 12,5 °C 22,5 km/h (4 Bft)
03.12.2018 12:10 12,6 °C 75 % 1008,2 hPa 0,0 mm 17,0 km/h (3 Bft) W-SW 244 ° 0 min 0,000 mm 1,2 UV-I 181 W/m² 8,3 °C 12,6 °C 24,1 km/h (4 Bft)
03.12.2018 12:11 12,6 °C 75 % 1008,1 hPa 0,0 mm 11,1 km/h (2 Bft) SW 223 ° 0 min 0,000 mm 1,2 UV-I 193 W/m² 8,3 °C 12,6 °C 14,5 km/h (3 Bft)
03.12.2018 12:12 12,6 °C 75 % 1008,1 hPa 0,0 mm 12,5 km/h (3 Bft) W 272 ° 0 min 0,000 mm 1,2 UV-I 204 W/m² 8,3 °C 12,6 °C 19,3 km/h (3 Bft)
03.12.2018 12:13 12,6 °C 76 % 1008,1 hPa 0,0 mm 19,3 km/h (3 Bft) W-SW 249 ° 0 min 0,000 mm 1,2 UV-I 197 W/m² 8,5 °C 12,6 °C 32,2 km/h (5 Bft)
03.12.2018 12:14 12,6 °C 75 % 1008,1 hPa 0,0 mm 19,7 km/h (3 Bft) W-SW 252 ° 0 min 0,000 mm 1,2 UV-I 185 W/m² 8,3 °C 12,6 °C 27,4 km/h (4 Bft)
03.12.2018 12:15 12,6 °C 75 % 1008,1 hPa 0,0 mm 15,8 km/h (3 Bft) W-SW 257 ° 0 min 0,000 mm 1,2 UV-I 188 W/m² 8,3 °C 12,6 °C 20,9 km/h (4 Bft)
03.12.2018 12:16 12,7 °C 75 % 1008,0 hPa 0,0 mm 19,4 km/h (3 Bft) W 268 ° 0 min 0,000 mm 1,1 UV-I 178 W/m² 8,4 °C 12,7 °C 24,1 km/h (4 Bft)
03.12.2018 12:17 12,7 °C 75 % 1007,9 hPa 0,0 mm 14,8 km/h (3 Bft) SW 234 ° 0 min 0,000 mm 1,1 UV-I 146 W/m² 8,4 °C 12,7 °C 22,5 km/h (4 Bft)
03.12.2018 12:18 12,6 °C 74 % 1007,9 hPa 0,0 mm 19,7 km/h (3 Bft) W 262 ° 0 min 0,000 mm 1,1 UV-I 135 W/m² 8,1 °C 12,6 °C 25,7 km/h (4 Bft)
03.12.2018 12:19 12,6 °C 74 % 1007,9 hPa 0,0 mm 12,1 km/h (2 Bft) W-NW 294 ° 0 min 0,000 mm 1,1 UV-I 125 W/m² 8,1 °C 12,6 °C 17,7 km/h (3 Bft)
03.12.2018 12:20 12,6 °C 75 % 1007,8 hPa 0,0 mm 13,5 km/h (3 Bft) SW 236 ° 0 min 0,000 mm 1,1 UV-I 120 W/m² 8,3 °C 12,6 °C 17,7 km/h (3 Bft)
03.12.2018 12:21 12,6 °C 75 % 1007,8 hPa 0,0 mm 15,0 km/h (3 Bft) W-NW 300 ° 0 min 0,000 mm 1,1 UV-I 121 W/m² 8,3 °C 12,6 °C 19,3 km/h (3 Bft)
03.12.2018 12:22 12,6 °C 75 % 1007,8 hPa 0,0 mm 14,1 km/h (3 Bft) W 263 ° 0 min 0,000 mm 1,1 UV-I 121 W/m² 8,3 °C 12,6 °C 22,5 km/h (4 Bft)
03.12.2018 12:23 12,6 °C 75 % 1007,8 hPa 0,0 mm 16,6 km/h (3 Bft) W 265 ° 0 min 0,000 mm 1,1 UV-I 116 W/m² 8,3 °C 12,6 °C 20,9 km/h (4 Bft)
03.12.2018 12:24 12,5 °C 75 % 1007,8 hPa 0,0 mm 20,0 km/h (4 Bft) W-SW 254 ° 0 min 0,000 mm 1,1 UV-I 128 W/m² 8,2 °C 12,5 °C 24,1 km/h (4 Bft)
03.12.2018 12:25 12,4 °C 75 % 1007,8 hPa 0,0 mm 16,8 km/h (3 Bft) W 268 ° 0 min 0,000 mm 1,0 UV-I 134 W/m² 8,1 °C 12,4 °C 22,5 km/h (4 Bft)
03.12.2018 12:26 12,4 °C 75 % 1007,8 hPa 0,0 mm 10,9 km/h (2 Bft) NW 317 ° 0 min 0,000 mm 1,0 UV-I 130 W/m² 8,1 °C 12,4 °C 17,7 km/h (3 Bft)
03.12.2018 12:27 12,4 °C 75 % 1007,8 hPa 0,0 mm 12,5 km/h (3 Bft) W-NW 286 ° 0 min 0,000 mm 1,0 UV-I 142 W/m² 8,1 °C 12,4 °C 17,7 km/h (3 Bft)
03.12.2018 12:28 12,5 °C 75 % 1007,8 hPa 0,0 mm 18,4 km/h (3 Bft) W 263 ° 0 min 0,000 mm 1,0 UV-I 156 W/m² 8,2 °C 12,5 °C 24,1 km/h (4 Bft)
03.12.2018 12:29 12,4 °C 75 % 1007,8 hPa 0,0 mm 16,3 km/h (3 Bft) W-NW 288 ° 0 min 0,000 mm 1,0 UV-I 153 W/m² 8,1 °C 12,4 °C 22,5 km/h (4 Bft)
03.12.2018 12:30 12,5 °C 75 % 1007,7 hPa 0,0 mm 11,8 km/h (2 Bft) W-SW 245 ° 0 min 0,000 mm 1,0 UV-I 135 W/m² 8,2 °C 12,5 °C 20,9 km/h (4 Bft)
03.12.2018 12:31 12,5 °C 75 % 1007,7 hPa 0,0 mm 12,1 km/h (2 Bft) NW 309 ° 0 min 0,000 mm 1,0 UV-I 127 W/m² 8,2 °C 12,5 °C 16,1 km/h (3 Bft)
03.12.2018 12:32 12,5 °C 75 % 1007,7 hPa 0,0 mm 13,9 km/h (3 Bft) W 261 ° 0 min 0,000 mm 1,1 UV-I 127 W/m² 8,2 °C 12,5 °C 17,7 km/h (3 Bft)
03.12.2018 12:33 12,5 °C 75 % 1007,6 hPa 0,0 mm 12,5 km/h (3 Bft) W 279 ° 0 min 0,000 mm 1,1 UV-I 118 W/m² 8,2 °C 12,5 °C 16,1 km/h (3 Bft)
03.12.2018 12:34 12,5 °C 76 % 1007,6 hPa 0,0 mm 10,4 km/h (2 Bft) W 271 ° 0 min 0,000 mm 1,1 UV-I 121 W/m² 8,4 °C 12,5 °C 17,7 km/h (3 Bft)
03.12.2018 12:35 12,5 °C 76 % 1007,5 hPa 0,0 mm 6,6 km/h (2 Bft) W 279 ° 0 min 0,000 mm 1,1 UV-I 130 W/m² 8,4 °C 12,5 °C 11,3 km/h (2 Bft)
03.12.2018 12:36 12,4 °C 76 % 1007,6 hPa 0,0 mm 10,5 km/h (2 Bft) W-NW 284 ° 0 min 0,000 mm 1,1 UV-I 130 W/m² 8,3 °C 12,4 °C 14,5 km/h (3 Bft)
03.12.2018 12:37 12,5 °C 75 % 1007,6 hPa 0,0 mm 9,4 km/h (2 Bft) W 259 ° 0 min 0,000 mm 1,1 UV-I 127 W/m² 8,2 °C 12,5 °C 20,9 km/h (4 Bft)
03.12.2018 12:38 12,5 °C 75 % 1007,6 hPa 0,0 mm 12,3 km/h (3 Bft) W 279 ° 0 min 0,000 mm 1,1 UV-I 128 W/m² 8,2 °C 12,5 °C 17,7 km/h (3 Bft)
03.12.2018 12:39 12,5 °C 76 % 1007,6 hPa 0,0 mm 10,0 km/h (2 Bft) W-SW 256 ° 0 min 0,000 mm 1,1 UV-I 139 W/m² 8,4 °C 12,5 °C 14,5 km/h (3 Bft)
03.12.2018 12:40 12,5 °C 77 % 1007,6 hPa 0,0 mm 6,4 km/h (2 Bft) W 269 ° 0 min 0,000 mm 1,1 UV-I 148 W/m² 8,6 °C 12,5 °C 9,7 km/h (2 Bft)
03.12.2018 12:41 12,5 °C 77 % 1007,5 hPa 0,0 mm 10,5 km/h (2 Bft) SW 232 ° 0 min 0,000 mm 1,0 UV-I 142 W/m² 8,6 °C 12,5 °C 16,1 km/h (3 Bft)
03.12.2018 12:42 12,6 °C 76 % 1007,6 hPa 0,0 mm 8,8 km/h (2 Bft) W-NW 284 ° 0 min 0,000 mm 1,1 UV-I 167 W/m² 8,5 °C 12,6 °C 12,9 km/h (3 Bft)
03.12.2018 12:43 12,6 °C 75 % 1007,6 hPa 0,0 mm 12,0 km/h (2 Bft) W-SW 255 ° 0 min 0,000 mm 1,1 UV-I 169 W/m² 8,3 °C 12,6 °C 16,1 km/h (3 Bft)
03.12.2018 12:44 12,6 °C 75 % 1007,6 hPa 0,0 mm 10,0 km/h (2 Bft) W 279 ° 0 min 0,000 mm 1,1 UV-I 160 W/m² 8,3 °C 12,6 °C 16,1 km/h (3 Bft)
03.12.2018 12:45 12,7 °C 76 % 1007,6 hPa 0,0 mm 10,4 km/h (2 Bft) W 269 ° 0 min 0,000 mm 1,1 UV-I 146 W/m² 8,6 °C 12,7 °C 16,1 km/h (3 Bft)
03.12.2018 12:46 12,7 °C 75 % 1007,6 hPa 0,0 mm 12,9 km/h (3 Bft) W 267 ° 0 min 0,000 mm 1,1 UV-I 144 W/m² 8,4 °C 12,7 °C 20,9 km/h (4 Bft)
03.12.2018 12:47 12,7 °C 75 % 1007,6 hPa 0,0 mm 15,9 km/h (3 Bft) W-NW 290 ° 0 min 0,000 mm 1,1 UV-I 155 W/m² 8,4 °C 12,7 °C 20,9 km/h (4 Bft)
03.12.2018 12:48 12,7 °C 74 % 1007,6 hPa 0,0 mm 11,5 km/h (2 Bft) W-NW 283 ° 0 min 0,000 mm 1,1 UV-I 156 W/m² 8,2 °C 12,7 °C 17,7 km/h (3 Bft)
03.12.2018 12:49 12,8 °C 75 % 1007,5 hPa 0,0 mm 10,9 km/h (2 Bft) W 261 ° 0 min 0,000 mm 1,1 UV-I 156 W/m² 8,5 °C 12,8 °C 16,1 km/h (3 Bft)
03.12.2018 12:50 12,8 °C 73 % 1007,5 hPa 0,0 mm 8,8 km/h (2 Bft) W-NW 284 ° 0 min 0,000 mm 1,1 UV-I 155 W/m² 8,1 °C 12,8 °C 14,5 km/h (3 Bft)
03.12.2018 12:51 12,8 °C 75 % 1007,6 hPa 0,0 mm 9,7 km/h (2 Bft) W 262 ° 0 min 0,000 mm 1,1 UV-I 158 W/m² 8,5 °C 12,8 °C 12,9 km/h (3 Bft)
03.12.2018 12:52 12,8 °C 75 % 1007,5 hPa 0,0 mm 11,7 km/h (2 Bft) W 261 ° 0 min 0,000 mm 1,1 UV-I 158 W/m² 8,5 °C 12,8 °C 14,5 km/h (3 Bft)
03.12.2018 12:53 12,8 °C 75 % 1007,5 hPa 0,0 mm 15,9 km/h (3 Bft) W-NW 287 ° 0 min 0,000 mm 1,1 UV-I 158 W/m² 8,5 °C 12,8 °C 24,1 km/h (4 Bft)
03.12.2018 12:54 12,8 °C 74 % 1007,4 hPa 0,0 mm 12,7 km/h (3 Bft) SW 226 ° 0 min 0,000 mm 1,0 UV-I 130 W/m² 8,3 °C 12,8 °C 22,5 km/h (4 Bft)
03.12.2018 12:55 12,9 °C 73 % 1007,5 hPa 0,0 mm 18,3 km/h (3 Bft) W-SW 254 ° 0 min 0,000 mm 1,0 UV-I 130 W/m² 8,2 °C 12,9 °C 30,6 km/h (5 Bft)
03.12.2018 12:56 12,9 °C 74 % 1007,4 hPa 0,0 mm 12,7 km/h (3 Bft) W 267 ° 0 min 0,000 mm 1,0 UV-I 134 W/m² 8,4 °C 12,9 °C 19,3 km/h (3 Bft)
03.12.2018 12:57 12,9 °C 74 % 1007,5 hPa 0,0 mm 13,3 km/h (3 Bft) W 264 ° 0 min 0,000 mm 1,0 UV-I 137 W/m² 8,4 °C 12,9 °C 19,3 km/h (3 Bft)
03.12.2018 12:58 12,9 °C 74 % 1007,4 hPa 0,0 mm 10,1 km/h (2 Bft) W-SW 252 ° 0 min 0,000 mm 1,0 UV-I 135 W/m² 8,4 °C 12,9 °C 16,1 km/h (3 Bft)
03.12.2018 12:59 12,8 °C 74 % 1007,3 hPa 0,0 mm 15,2 km/h (3 Bft) W-NW 303 ° 0 min 0,000 mm 1,0 UV-I 134 W/m² 8,3 °C 12,8 °C 22,5 km/h (4 Bft)
03.12.2018 13:00 12,8 °C 74 % 1007,3 hPa 0,0 mm 7,1 km/h (2 Bft) W-SW 255 ° 0 min 0,000 mm 1,0 UV-I 141 W/m² 8,3 °C 12,8 °C 11,3 km/h (2 Bft)
03.12.2018 13:01 12,8 °C 74 % 1007,2 hPa 0,0 mm 11,4 km/h (2 Bft) W 271 ° 0 min 0,102 mm 1,0 UV-I 141 W/m² 8,3 °C 12,8 °C 12,9 km/h (3 Bft)
03.12.2018 13:02 12,8 °C 74 % 1007,2 hPa 0,0 mm 9,3 km/h (2 Bft) W 271 ° 0 min 0,000 mm 1,0 UV-I 151 W/m² 8,3 °C 12,8 °C 16,1 km/h (3 Bft)
03.12.2018 13:03 12,8 °C 75 % 1007,3 hPa 0,0 mm 16,1 km/h (3 Bft) W 276 ° 0 min 0,000 mm 1,0 UV-I 156 W/m² 8,5 °C 12,8 °C 17,7 km/h (3 Bft)
03.12.2018 13:04 12,8 °C 75 % 1007,2 hPa 0,0 mm 14,3 km/h (3 Bft) W 264 ° 0 min 0,000 mm 1,0 UV-I 158 W/m² 8,5 °C 12,8 °C 17,7 km/h (3 Bft)
03.12.2018 13:05 12,8 °C 76 % 1007,2 hPa 0,0 mm 9,9 km/h (2 Bft) W 278 ° 0 min 0,000 mm 1,0 UV-I 160 W/m² 8,7 °C 12,8 °C 16,1 km/h (3 Bft)
03.12.2018 13:06 12,8 °C 75 % 1007,2 hPa 0,0 mm 8,6 km/h (2 Bft) SW 221 ° 0 min 0,000 mm 1,0 UV-I 158 W/m² 8,5 °C 12,8 °C 14,5 km/h (3 Bft)
03.12.2018 13:07 12,8 °C 73 % 1007,2 hPa 0,0 mm 7,3 km/h (2 Bft) W-SW 250 ° 0 min 0,000 mm 1,0 UV-I 156 W/m² 8,1 °C 12,8 °C 11,3 km/h (2 Bft)
03.12.2018 13:08 12,8 °C 74 % 1007,2 hPa 0,0 mm 9,7 km/h (2 Bft) W-SW 248 ° 0 min 0,000 mm 1,0 UV-I 156 W/m² 8,3 °C 12,8 °C 14,5 km/h (3 Bft)
03.12.2018 13:09 12,8 °C 75 % 1007,3 hPa 0,0 mm 10,1 km/h (2 Bft) W 274 ° 0 min 0,000 mm 1,0 UV-I 156 W/m² 8,5 °C 12,8 °C 16,1 km/h (3 Bft)
03.12.2018 13:10 12,8 °C 74 % 1007,2 hPa 0,0 mm 9,6 km/h (2 Bft) W 259 ° 0 min 0,000 mm 0,9 UV-I 151 W/m² 8,3 °C 12,8 °C 12,9 km/h (3 Bft)
03.12.2018 13:11 12,9 °C 74 % 1007,2 hPa 0,0 mm 4,4 km/h (1 Bft) W 269 ° 0 min 0,000 mm 0,9 UV-I 148 W/m² 8,4 °C 12,9 °C 8,0 km/h (2 Bft)
03.12.2018 13:12 12,9 °C 75 % 1007,2 hPa 0,0 mm 8,0 km/h (2 Bft) W 274 ° 0 min 0,000 mm 0,9 UV-I 146 W/m² 8,6 °C 12,9 °C 11,3 km/h (2 Bft)
03.12.2018 13:13 12,9 °C 76 % 1007,2 hPa 0,0 mm 7,5 km/h (2 Bft) W 259 ° 0 min 0,000 mm 0,9 UV-I 153 W/m² 8,8 °C 12,9 °C 12,9 km/h (3 Bft)
03.12.2018 13:14 12,9 °C 75 % 1007,2 hPa 0,0 mm 7,2 km/h (2 Bft) W 273 ° 0 min 0,000 mm 0,9 UV-I 148 W/m² 8,6 °C 12,9 °C 11,3 km/h (2 Bft)
03.12.2018 13:15 12,8 °C 75 % 1007,1 hPa 0,0 mm 5,9 km/h (2 Bft) W-NW 292 ° 0 min 0,000 mm 0,9 UV-I 149 W/m² 8,5 °C 12,8 °C 14,5 km/h (3 Bft)
03.12.2018 13:16 12,8 °C 75 % 1007,1 hPa 0,0 mm 13,3 km/h (3 Bft) W 275 ° 0 min 0,000 mm 0,9 UV-I 149 W/m² 8,5 °C 12,8 °C 22,5 km/h (4 Bft)
03.12.2018 13:17 12,9 °C 75 % 1007,2 hPa 0,0 mm 9,7 km/h (2 Bft) W-SW 242 ° 0 min 0,000 mm 0,9 UV-I 141 W/m² 8,6 °C 12,9 °C 17,7 km/h (3 Bft)
03.12.2018 13:18 12,9 °C 74 % 1007,1 hPa 0,0 mm 11,1 km/h (2 Bft) W-SW 248 ° 0 min 0,000 mm 0,9 UV-I 132 W/m² 8,4 °C 12,9 °C 16,1 km/h (3 Bft)
03.12.2018 13:19 12,9 °C 74 % 1007,1 hPa 0,0 mm 13,1 km/h (3 Bft) W-NW 283 ° 0 min 0,000 mm 0,9 UV-I 135 W/m² 8,4 °C 12,9 °C 16,1 km/h (3 Bft)
03.12.2018 13:20 12,8 °C 74 % 1007,0 hPa 0,0 mm 12,8 km/h (3 Bft) W-SW 252 ° 0 min 0,000 mm 0,9 UV-I 137 W/m² 8,3 °C 12,8 °C 17,7 km/h (3 Bft)
03.12.2018 13:21 12,8 °C 75 % 1007,1 hPa 0,0 mm 10,9 km/h (2 Bft) SW 236 ° 0 min 0,000 mm 0,9 UV-I 134 W/m² 8,5 °C 12,8 °C 17,7 km/h (3 Bft)
03.12.2018 13:22 12,8 °C 75 % 1007,0 hPa 0,0 mm 10,5 km/h (2 Bft) W-SW 256 ° 0 min 0,000 mm 0,8 UV-I 125 W/m² 8,5 °C 12,8 °C 16,1 km/h (3 Bft)
03.12.2018 13:23 12,8 °C 73 % 1007,0 hPa 0,0 mm 12,5 km/h (3 Bft) W 271 ° 0 min 0,000 mm 0,8 UV-I 127 W/m² 8,1 °C 12,8 °C 14,5 km/h (3 Bft)
03.12.2018 13:24 12,8 °C 74 % 1007,1 hPa 0,0 mm 12,0 km/h (2 Bft) W 269 ° 0 min 0,000 mm 0,7 UV-I 127 W/m² 8,3 °C 12,8 °C 16,1 km/h (3 Bft)
03.12.2018 13:25 12,8 °C 74 % 1007,1 hPa 0,0 mm 12,0 km/h (2 Bft) W 261 ° 0 min 0,000 mm 0,7 UV-I 109 W/m² 8,3 °C 12,8 °C 16,1 km/h (3 Bft)
03.12.2018 13:26 12,8 °C 74 % 1007,1 hPa 0,0 mm 7,0 km/h (2 Bft) W 261 ° 0 min 0,000 mm 0,7 UV-I 107 W/m² 8,3 °C 12,8 °C 11,3 km/h (2 Bft)
03.12.2018 13:27 12,8 °C 74 % 1007,1 hPa 0,0 mm 12,7 km/h (3 Bft) W-SW 247 ° 0 min 0,000 mm 0,7 UV-I 107 W/m² 8,3 °C 12,8 °C 19,3 km/h (3 Bft)
03.12.2018 13:28 12,8 °C 74 % 1007,2 hPa 0,0 mm 4,2 km/h (1 Bft) W 267 ° 0 min 0,000 mm 0,7 UV-I 114 W/m² 8,3 °C 12,8 °C 11,3 km/h (2 Bft)
03.12.2018 13:29 12,8 °C 75 % 1007,2 hPa 0,0 mm 11,3 km/h (2 Bft) W-SW 242 ° 0 min 0,000 mm 0,7 UV-I 111 W/m² 8,5 °C 12,8 °C 17,7 km/h (3 Bft)
03.12.2018 13:30 12,8 °C 74 % 1007,1 hPa 0,0 mm 13,5 km/h (3 Bft) SW 232 ° 0 min 0,000 mm 0,7 UV-I 116 W/m² 8,3 °C 12,8 °C 17,7 km/h (3 Bft)
03.12.2018 13:31 12,8 °C 74 % 1007,1 hPa 0,0 mm 15,7 km/h (3 Bft) W 261 ° 0 min 0,000 mm 0,7 UV-I 114 W/m² 8,3 °C 12,8 °C 20,9 km/h (4 Bft)
03.12.2018 13:32 12,8 °C 74 % 1007,1 hPa 0,0 mm 15,2 km/h (3 Bft) W 259 ° 0 min 0,000 mm 0,7 UV-I 113 W/m² 8,3 °C 12,8 °C 16,1 km/h (3 Bft)
03.12.2018 13:33 12,8 °C 73 % 1007,1 hPa 0,0 mm 9,7 km/h (2 Bft) W 263 ° 0 min 0,000 mm 0,7 UV-I 120 W/m² 8,1 °C 12,8 °C 14,5 km/h (3 Bft)
03.12.2018 13:34 12,8 °C 73 % 1007,1 hPa 0,0 mm 14,2 km/h (3 Bft) W-NW 303 ° 0 min 0,000 mm 0,7 UV-I 125 W/m² 8,1 °C 12,8 °C 20,9 km/h (4 Bft)
03.12.2018 13:35 12,8 °C 73 % 1007,1 hPa 0,0 mm 12,7 km/h (3 Bft) W 265 ° 0 min 0,000 mm 0,7 UV-I 123 W/m² 8,1 °C 12,8 °C 19,3 km/h (3 Bft)
03.12.2018 13:36 12,8 °C 74 % 1007,0 hPa 0,0 mm 10,1 km/h (2 Bft) W-SW 244 ° 0 min 0,000 mm 0,8 UV-I 128 W/m² 8,3 °C 12,8 °C 14,5 km/h (3 Bft)
03.12.2018 13:37 12,8 °C 73 % 1007,0 hPa 0,0 mm 12,9 km/h (3 Bft) W 269 ° 0 min 0,000 mm 0,8 UV-I 125 W/m² 8,1 °C 12,8 °C 19,3 km/h (3 Bft)
03.12.2018 13:38 12,8 °C 73 % 1007,0 hPa 0,0 mm 11,3 km/h (2 Bft) W 266 ° 0 min 0,000 mm 0,8 UV-I 125 W/m² 8,1 °C 12,8 °C 16,1 km/h (3 Bft)
03.12.2018 13:39 12,8 °C 73 % 1006,9 hPa 0,0 mm 8,5 km/h (2 Bft) W 267 ° 0 min 0,000 mm 0,8 UV-I 130 W/m² 8,1 °C 12,8 °C 14,5 km/h (3 Bft)
03.12.2018 13:40 12,8 °C 73 % 1006,8 hPa 0,0 mm 11,9 km/h (2 Bft) W-SW 258 ° 0 min 0,000 mm 0,8 UV-I 128 W/m² 8,1 °C 12,8 °C 17,7 km/h (3 Bft)
03.12.2018 13:41 12,7 °C 73 % 1006,8 hPa 0,0 mm 10,4 km/h (2 Bft) W 259 ° 0 min 0,000 mm 0,8 UV-I 130 W/m² 8,0 °C 12,7 °C 14,5 km/h (3 Bft)
03.12.2018 13:42 12,7 °C 73 % 1006,8 hPa 0,0 mm 10,1 km/h (2 Bft) W 269 ° 0 min 0,000 mm 0,8 UV-I 127 W/m² 8,0 °C 12,7 °C 16,1 km/h (3 Bft)
03.12.2018 13:43 12,7 °C 73 % 1006,8 hPa 0,0 mm 9,2 km/h (2 Bft) W 273 ° 0 min 0,000 mm 0,7 UV-I 123 W/m² 8,0 °C 12,7 °C 11,3 km/h (2 Bft)
03.12.2018 13:44 12,7 °C 73 % 1006,8 hPa 0,0 mm 10,3 km/h (2 Bft) W 279 ° 0 min 0,000 mm 0,7 UV-I 123 W/m² 8,0 °C 12,7 °C 20,9 km/h (4 Bft)
03.12.2018 13:45 12,7 °C 73 % 1006,8 hPa 0,0 mm 14,5 km/h (3 Bft) NW 315 ° 0 min 0,000 mm 0,7 UV-I 125 W/m² 8,0 °C 12,7 °C 17,7 km/h (3 Bft)
03.12.2018 13:46 12,7 °C 73 % 1006,7 hPa 0,0 mm 8,0 km/h (2 Bft) W 277 ° 0 min 0,000 mm 0,7 UV-I 123 W/m² 8,0 °C 12,7 °C 14,5 km/h (3 Bft)
03.12.2018 13:47 12,7 °C 74 % 1006,8 hPa 0,0 mm 17,2 km/h (3 Bft) W 275 ° 0 min 0,000 mm 0,7 UV-I 123 W/m² 8,2 °C 12,7 °C 25,7 km/h (4 Bft)
03.12.2018 13:48 12,7 °C 72 % 1006,7 hPa 0,0 mm 10,4 km/h (2 Bft) W 275 ° 0 min 0,000 mm 0,7 UV-I 125 W/m² 7,8 °C 12,7 °C 16,1 km/h (3 Bft)
03.12.2018 13:49 12,7 °C 72 % 1006,7 hPa 0,0 mm 5,8 km/h (2 Bft) W-SW 250 ° 0 min 0,000 mm 0,7 UV-I 123 W/m² 7,8 °C 12,7 °C 11,3 km/h (2 Bft)
03.12.2018 13:50 12,7 °C 73 % 1006,7 hPa 0,0 mm 11,3 km/h (2 Bft) W 267 ° 0 min 0,000 mm 0,7 UV-I 121 W/m² 8,0 °C 12,7 °C 14,5 km/h (3 Bft)
03.12.2018 13:51 12,7 °C 73 % 1006,6 hPa 0,0 mm 8,6 km/h (2 Bft) W-NW 287 ° 0 min 0,000 mm 0,7 UV-I 118 W/m² 8,0 °C 12,7 °C 20,9 km/h (4 Bft)
03.12.2018 13:52 12,7 °C 73 % 1006,6 hPa 0,0 mm 7,9 km/h (2 Bft) W-NW 289 ° 0 min 0,000 mm 0,7 UV-I 114 W/m² 8,0 °C 12,7 °C 14,5 km/h (3 Bft)
03.12.2018 13:53 12,7 °C 73 % 1006,5 hPa 0,0 mm 11,2 km/h (2 Bft) W 264 ° 0 min 0,000 mm 0,7 UV-I 113 W/m² 8,0 °C 12,7 °C 14,5 km/h (3 Bft)
03.12.2018 13:54 12,7 °C 73 % 1006,6 hPa 0,0 mm 14,3 km/h (3 Bft) W-SW 256 ° 0 min 0,000 mm 0,7 UV-I 111 W/m² 8,0 °C 12,7 °C 19,3 km/h (3 Bft)
03.12.2018 13:55 12,7 °C 73 % 1006,7 hPa 0,0 mm 16,0 km/h (3 Bft) W 260 ° 0 min 0,000 mm 0,7 UV-I 111 W/m² 8,0 °C 12,7 °C 20,9 km/h (4 Bft)
03.12.2018 13:56 12,7 °C 73 % 1006,5 hPa 0,0 mm 7,6 km/h (2 Bft) W 267 ° 0 min 0,000 mm 0,7 UV-I 109 W/m² 8,0 °C 12,7 °C 12,9 km/h (3 Bft)
03.12.2018 13:57 12,7 °C 72 % 1006,6 hPa 0,0 mm 13,3 km/h (3 Bft) W-NW 288 ° 0 min 0,000 mm 0,7 UV-I 105 W/m² 7,8 °C 12,7 °C 19,3 km/h (3 Bft)
03.12.2018 13:58 12,6 °C 73 % 1006,5 hPa 0,0 mm 12,3 km/h (3 Bft) W-NW 290 ° 0 min 0,000 mm 0,6 UV-I 105 W/m² 7,9 °C 12,6 °C 19,3 km/h (3 Bft)
03.12.2018 13:59 12,6 °C 73 % 1006,6 hPa 0,0 mm 6,9 km/h (2 Bft) W 271 ° 0 min 0,000 mm 0,6 UV-I 102 W/m² 7,9 °C 12,6 °C 19,3 km/h (3 Bft)
03.12.2018 14:00 12,6 °C 74 % 1006,6 hPa 0,0 mm 7,8 km/h (2 Bft) W 261 ° 0 min 0,000 mm 0,6 UV-I 100 W/m² 8,1 °C 12,6 °C 14,5 km/h (3 Bft)
03.12.2018 14:01 12,6 °C 73 % 1006,6 hPa 0,0 mm 11,8 km/h (2 Bft) SW 217 ° 0 min 0,101 mm 0,6 UV-I 100 W/m² 7,9 °C 12,6 °C 17,7 km/h (3 Bft)
03.12.2018 14:02 12,6 °C 73 % 1006,5 hPa 0,0 mm 8,4 km/h (2 Bft) W-SW 240 ° 0 min 0,000 mm 0,6 UV-I 100 W/m² 7,9 °C 12,6 °C 12,9 km/h (3 Bft)
03.12.2018 14:03 12,6 °C 72 % 1006,6 hPa 0,0 mm 20,4 km/h (4 Bft) W-NW 290 ° 0 min 0,000 mm 0,6 UV-I 100 W/m² 7,7 °C 12,6 °C 32,2 km/h (5 Bft)
03.12.2018 14:04 12,6 °C 72 % 1006,4 hPa 0,0 mm 17,6 km/h (3 Bft) W-NW 285 ° 0 min 0,000 mm 0,6 UV-I 98 W/m² 7,7 °C 12,6 °C 25,7 km/h (4 Bft)
03.12.2018 14:05 12,6 °C 72 % 1006,5 hPa 0,0 mm 14,1 km/h (3 Bft) W 263 ° 0 min 0,000 mm 0,6 UV-I 100 W/m² 7,7 °C 12,6 °C 20,9 km/h (4 Bft)
03.12.2018 14:06 12,6 °C 73 % 1006,4 hPa 0,0 mm 7,5 km/h (2 Bft) W-SW 238 ° 0 min 0,000 mm 0,6 UV-I 100 W/m² 7,9 °C 12,6 °C 14,5 km/h (3 Bft)
03.12.2018 14:07 12,6 °C 73 % 1006,4 hPa 0,0 mm 12,5 km/h (3 Bft) W 261 ° 0 min 0,000 mm 0,6 UV-I 100 W/m² 7,9 °C 12,6 °C 22,5 km/h (4 Bft)
03.12.2018 14:08 12,6 °C 73 % 1006,4 hPa 0,0 mm 13,7 km/h (3 Bft) W 265 ° 0 min 0,000 mm 0,6 UV-I 104 W/m² 7,9 °C 12,6 °C 16,1 km/h (3 Bft)
03.12.2018 14:09 12,6 °C 73 % 1006,4 hPa 0,0 mm 13,3 km/h (3 Bft) W 275 ° 0 min 0,000 mm 0,6 UV-I 102 W/m² 7,9 °C 12,6 °C 17,7 km/h (3 Bft)
03.12.2018 14:10 12,6 °C 72 % 1006,3 hPa 0,0 mm 13,1 km/h (3 Bft) W 267 ° 0 min 0,000 mm 0,6 UV-I 98 W/m² 7,7 °C 12,6 °C 19,3 km/h (3 Bft)
03.12.2018 14:11 12,6 °C 73 % 1006,3 hPa 0,0 mm 15,4 km/h (3 Bft) W 269 ° 0 min 0,000 mm 0,6 UV-I 98 W/m² 7,9 °C 12,6 °C 19,3 km/h (3 Bft)
03.12.2018 14:12 12,6 °C 72 % 1006,3 hPa 0,0 mm 18,4 km/h (3 Bft) W 274 ° 0 min 0,000 mm 0,6 UV-I 98 W/m² 7,7 °C 12,6 °C 24,1 km/h (4 Bft)
03.12.2018 14:13 12,6 °C 72 % 1006,3 hPa 0,0 mm 17,6 km/h (3 Bft) W-SW 255 ° 0 min 0,000 mm 0,6 UV-I 98 W/m² 7,7 °C 12,6 °C 25,7 km/h (4 Bft)
03.12.2018 14:14 12,6 °C 72 % 1006,3 hPa 0,0 mm 18,4 km/h (3 Bft) W 266 ° 0 min 0,000 mm 0,6 UV-I 98 W/m² 7,7 °C 12,6 °C 25,7 km/h (4 Bft)
03.12.2018 14:15 12,6 °C 72 % 1006,3 hPa 0,0 mm 14,6 km/h (3 Bft) W 269 ° 0 min 0,000 mm 0,6 UV-I 100 W/m² 7,7 °C 12,6 °C 20,9 km/h (4 Bft)
03.12.2018 14:16 12,5 °C 73 % 1006,2 hPa 0,0 mm 14,3 km/h (3 Bft) W 259 ° 0 min 0,000 mm 0,6 UV-I 100 W/m² 7,8 °C 12,5 °C 27,4 km/h (4 Bft)
03.12.2018 14:17 12,5 °C 73 % 1006,3 hPa 0,0 mm 17,1 km/h (3 Bft) W 272 ° 0 min 0,000 mm 0,6 UV-I 102 W/m² 7,8 °C 12,5 °C 27,4 km/h (4 Bft)
03.12.2018 14:18 12,5 °C 72 % 1006,3 hPa 0,0 mm 13,7 km/h (3 Bft) W-SW 254 ° 0 min 0,000 mm 0,6 UV-I 102 W/m² 7,6 °C 12,5 °C 22,5 km/h (4 Bft)
03.12.2018 14:19 12,5 °C 73 % 1006,2 hPa 0,0 mm 14,4 km/h (3 Bft) SW 221 ° 0 min 0,000 mm 0,6 UV-I 102 W/m² 7,8 °C 12,5 °C 20,9 km/h (4 Bft)
03.12.2018 14:20 12,5 °C 72 % 1006,3 hPa 0,0 mm 22,1 km/h (4 Bft) W-NW 282 ° 0 min 0,000 mm 0,5 UV-I 102 W/m² 7,6 °C 12,5 °C 27,4 km/h (4 Bft)
03.12.2018 14:21 12,5 °C 72 % 1006,2 hPa 0,0 mm 12,0 km/h (2 Bft) W-NW 292 ° 0 min 0,000 mm 0,5 UV-I 102 W/m² 7,6 °C 12,5 °C 16,1 km/h (3 Bft)
03.12.2018 14:22 12,5 °C 73 % 1006,2 hPa 0,0 mm 9,3 km/h (2 Bft) W 263 ° 0 min 0,000 mm 0,5 UV-I 100 W/m² 7,8 °C 12,5 °C 16,1 km/h (3 Bft)
03.12.2018 14:23 12,4 °C 73 % 1006,2 hPa 0,0 mm 19,2 km/h (3 Bft) W-NW 290 ° 0 min 0,000 mm 0,5 UV-I 97 W/m² 7,7 °C 12,4 °C 29,0 km/h (5 Bft)
03.12.2018 14:24 12,4 °C 73 % 1006,2 hPa 0,0 mm 12,5 km/h (3 Bft) W 263 ° 0 min 0,000 mm 0,5 UV-I 95 W/m² 7,7 °C 12,4 °C 22,5 km/h (4 Bft)
03.12.2018 14:25 12,4 °C 72 % 1006,2 hPa 0,0 mm 10,1 km/h (2 Bft) W-SW 248 ° 0 min 0,000 mm 0,5 UV-I 93 W/m² 7,5 °C 12,4 °C 14,5 km/h (3 Bft)
03.12.2018 14:26 12,4 °C 73 % 1006,2 hPa 0,0 mm 11,7 km/h (2 Bft) W 259 ° 0 min 0,000 mm 0,5 UV-I 91 W/m² 7,7 °C 12,4 °C 16,1 km/h (3 Bft)
03.12.2018 14:27 12,4 °C 73 % 1006,1 hPa 0,0 mm 9,5 km/h (2 Bft) W-NW 302 ° 0 min 0,000 mm 0,5 UV-I 88 W/m² 7,7 °C 12,4 °C 19,3 km/h (3 Bft)
03.12.2018 14:28 12,4 °C 73 % 1006,2 hPa 0,0 mm 17,6 km/h (3 Bft) W 271 ° 0 min 0,000 mm 0,5 UV-I 86 W/m² 7,7 °C 12,4 °C 22,5 km/h (4 Bft)
03.12.2018 14:29 12,4 °C 73 % 1006,2 hPa 0,0 mm 11,5 km/h (2 Bft) W 267 ° 0 min 0,000 mm 0,5 UV-I 84 W/m² 7,7 °C 12,4 °C 17,7 km/h (3 Bft)
03.12.2018 14:30 12,3 °C 73 % 1006,2 hPa 0,0 mm 8,6 km/h (2 Bft) W-SW 246 ° 0 min 0,000 mm 0,5 UV-I 83 W/m² 7,6 °C 12,3 °C 14,5 km/h (3 Bft)
03.12.2018 14:31 12,3 °C 73 % 1006,2 hPa 0,0 mm 12,2 km/h (2 Bft) W-SW 254 ° 0 min 0,000 mm 0,5 UV-I 83 W/m² 7,6 °C 12,3 °C 14,5 km/h (3 Bft)
03.12.2018 14:32 12,3 °C 73 % 1006,1 hPa 0,0 mm 11,4 km/h (2 Bft) W 277 ° 0 min 0,000 mm 0,5 UV-I 81 W/m² 7,6 °C 12,3 °C 19,3 km/h (3 Bft)
03.12.2018 14:33 12,3 °C 73 % 1006,1 hPa 0,0 mm 12,9 km/h (3 Bft) W 261 ° 0 min 0,000 mm 0,5 UV-I 79 W/m² 7,6 °C 12,3 °C 19,3 km/h (3 Bft)
03.12.2018 14:34 12,3 °C 73 % 1006,1 hPa 0,0 mm 17,7 km/h (3 Bft) W 268 ° 0 min 0,000 mm 0,5 UV-I 77 W/m² 7,6 °C 12,3 °C 27,4 km/h (4 Bft)
03.12.2018 14:35 12,3 °C 73 % 1006,1 hPa 0,0 mm 9,5 km/h (2 Bft) W-SW 254 ° 0 min 0,000 mm 0,5 UV-I 77 W/m² 7,6 °C 12,3 °C 14,5 km/h (3 Bft)
03.12.2018 14:36 12,3 °C 74 % 1006,1 hPa 0,0 mm 8,2 km/h (2 Bft) W-SW 244 ° 0 min 0,000 mm 0,0 UV-I 77 W/m² 7,8 °C 12,3 °C 14,5 km/h (3 Bft)
03.12.2018 14:37 12,3 °C 74 % 1006,1 hPa 0,0 mm 9,4 km/h (2 Bft) W 265 ° 0 min 0,000 mm 0,0 UV-I 77 W/m² 7,8 °C 12,3 °C 19,3 km/h (3 Bft)
03.12.2018 14:38 12,3 °C 73 % 1006,1 hPa 0,0 mm 9,5 km/h (2 Bft) W-SW 252 ° 0 min 0,000 mm 0,0 UV-I 76 W/m² 7,6 °C 12,3 °C 19,3 km/h (3 Bft)
03.12.2018 14:39 12,3 °C 73 % 1006,1 hPa 0,0 mm 12,5 km/h (3 Bft) W 270 ° 0 min 0,000 mm 0,0 UV-I 74 W/m² 7,6 °C 12,3 °C 19,3 km/h (3 Bft)
03.12.2018 14:40 12,3 °C 73 % 1006,1 hPa 0,0 mm 12,8 km/h (3 Bft) SW 217 ° 0 min 0,000 mm 0,0 UV-I 74 W/m² 7,6 °C 12,3 °C 20,9 km/h (4 Bft)
03.12.2018 14:41 12,2 °C 74 % 1006,0 hPa 0,0 mm 9,7 km/h (2 Bft) W-SW 253 ° 0 min 0,000 mm 0,0 UV-I 74 W/m² 7,7 °C 12,2 °C 19,3 km/h (3 Bft)
03.12.2018 14:42 12,2 °C 74 % 1006,0 hPa 0,0 mm 10,3 km/h (2 Bft) SW 227 ° 0 min 0,000 mm 0,0 UV-I 76 W/m² 7,7 °C 12,2 °C 16,1 km/h (3 Bft)
03.12.2018 14:43 12,2 °C 73 % 1006,1 hPa 0,0 mm 6,9 km/h (2 Bft) W 273 ° 0 min 0,000 mm 0,0 UV-I 76 W/m² 7,5 °C 12,2 °C 12,9 km/h (3 Bft)
03.12.2018 14:44 12,2 °C 73 % 1006,0 hPa 0,0 mm 11,5 km/h (2 Bft) W-SW 250 ° 0 min 0,000 mm 0,0 UV-I 76 W/m² 7,5 °C 12,2 °C 20,9 km/h (4 Bft)
03.12.2018 14:45 12,2 °C 73 % 1006,0 hPa 0,0 mm 8,9 km/h (2 Bft) W 270 ° 0 min 0,000 mm 0,0 UV-I 76 W/m² 7,5 °C 12,2 °C 14,5 km/h (3 Bft)
03.12.2018 14:46 12,2 °C 73 % 1005,9 hPa 0,0 mm 8,9 km/h (2 Bft) W 270 ° 0 min 0,000 mm 0,0 UV-I 76 W/m² 7,5 °C 12,2 °C 16,1 km/h (3 Bft)
03.12.2018 14:47 12,2 °C 73 % 1006,0 hPa 0,0 mm 9,4 km/h (2 Bft) W-SW 238 ° 0 min 0,000 mm 0,0 UV-I 74 W/m² 7,5 °C 12,2 °C 11,3 km/h (2 Bft)
03.12.2018 14:48 12,2 °C 73 % 1005,9 hPa 0,0 mm 5,0 km/h (1 Bft) W-SW 242 ° 0 min 0,000 mm 0,0 UV-I 74 W/m² 7,5 °C 12,2 °C 17,7 km/h (3 Bft)
03.12.2018 14:49 12,3 °C 73 % 1005,9 hPa 0,0 mm 10,3 km/h (2 Bft) W-SW 244 ° 0 min 0,000 mm 0,0 UV-I 72 W/m² 7,6 °C 12,3 °C 20,9 km/h (4 Bft)
03.12.2018 14:50 12,2 °C 73 % 1005,9 hPa 0,0 mm 10,7 km/h (2 Bft) W-SW 248 ° 0 min 0,000 mm 0,0 UV-I 72 W/m² 7,5 °C 12,2 °C 14,5 km/h (3 Bft)
03.12.2018 14:51 12,3 °C 73 % 1005,9 hPa 0,0 mm 9,3 km/h (2 Bft) W-SW 258 ° 0 min 0,000 mm 0,0 UV-I 69 W/m² 7,6 °C 12,3 °C 17,7 km/h (3 Bft)
03.12.2018 14:52 12,2 °C 73 % 1005,8 hPa 0,0 mm 11,2 km/h (2 Bft) W 261 ° 0 min 0,000 mm 0,0 UV-I 67 W/m² 7,5 °C 12,2 °C 17,7 km/h (3 Bft)
03.12.2018 14:53 12,2 °C 73 % 1005,8 hPa 0,0 mm 12,2 km/h (2 Bft) W 269 ° 0 min 0,000 mm 0,0 UV-I 65 W/m² 7,5 °C 12,2 °C 20,9 km/h (4 Bft)
03.12.2018 14:54 12,2 °C 74 % 1005,7 hPa 0,0 mm 9,6 km/h (2 Bft) W-NW 283 ° 0 min 0,000 mm 0,0 UV-I 65 W/m² 7,7 °C 12,2 °C 14,5 km/h (3 Bft)
03.12.2018 14:55 12,2 °C 73 % 1005,8 hPa 0,0 mm 10,5 km/h (2 Bft) W 263 ° 0 min 0,000 mm 0,0 UV-I 63 W/m² 7,5 °C 12,2 °C 14,5 km/h (3 Bft)
03.12.2018 14:56 12,2 °C 73 % 1005,8 hPa 0,0 mm 10,2 km/h (2 Bft) W-NW 294 ° 0 min 0,000 mm 0,0 UV-I 63 W/m² 7,5 °C 12,2 °C 19,3 km/h (3 Bft)
03.12.2018 14:57 12,1 °C 74 % 1005,8 hPa 0,0 mm 8,9 km/h (2 Bft) SW 236 ° 0 min 0,000 mm 0,0 UV-I 62 W/m² 7,6 °C 12,1 °C 14,5 km/h (3 Bft)
03.12.2018 14:58 12,1 °C 73 % 1005,8 hPa 0,0 mm 8,0 km/h (2 Bft) W-SW 252 ° 0 min 0,000 mm 0,0 UV-I 62 W/m² 7,4 °C 12,1 °C 12,9 km/h (3 Bft)
03.12.2018 14:59 12,2 °C 72 % 1005,8 hPa 0,0 mm 12,3 km/h (3 Bft) W 271 ° 0 min 0,000 mm 0,0 UV-I 58 W/m² 7,3 °C 12,2 °C 16,1 km/h (3 Bft)
03.12.2018 15:00 12,2 °C 73 % 1005,8 hPa 0,0 mm 7,9 km/h (2 Bft) W 269 ° 0 min 0,000 mm 0,0 UV-I 58 W/m² 7,5 °C 12,2 °C 14,5 km/h (3 Bft)
03.12.2018 15:01 12,2 °C 73 % 1005,9 hPa 0,0 mm 13,6 km/h (3 Bft) W 259 ° 0 min 0,077 mm 0,0 UV-I 56 W/m² 7,5 °C 12,2 °C 19,3 km/h (3 Bft)
03.12.2018 15:02 12,2 °C 73 % 1006,0 hPa 0,0 mm 9,0 km/h (2 Bft) W 268 ° 0 min 0,000 mm 0,0 UV-I 54 W/m² 7,5 °C 12,2 °C 16,1 km/h (3 Bft)
03.12.2018 15:03 12,1 °C 73 % 1006,1 hPa 0,0 mm 8,2 km/h (2 Bft) W 263 ° 0 min 0,000 mm 0,0 UV-I 53 W/m² 7,4 °C 12,1 °C 11,3 km/h (2 Bft)
03.12.2018 15:04 12,2 °C 73 % 1006,0 hPa 0,0 mm 7,8 km/h (2 Bft) W 271 ° 0 min 0,000 mm 0,0 UV-I 53 W/m² 7,5 °C 12,2 °C 11,3 km/h (2 Bft)
03.12.2018 15:05 12,1 °C 74 % 1005,9 hPa 0,0 mm 9,8 km/h (2 Bft) W-SW 245 ° 0 min 0,000 mm 0,0 UV-I 53 W/m² 7,6 °C 12,1 °C 16,1 km/h (3 Bft)
03.12.2018 15:06 12,1 °C 73 % 1006,0 hPa 0,0 mm 10,5 km/h (2 Bft) SW 227 ° 0 min 0,000 mm 0,0 UV-I 53 W/m² 7,4 °C 12,1 °C 16,1 km/h (3 Bft)
03.12.2018 15:07 12,1 °C 74 % 1006,0 hPa 0,0 mm 8,1 km/h (2 Bft) W 261 ° 0 min 0,000 mm 0,0 UV-I 53 W/m² 7,6 °C 12,1 °C 11,3 km/h (2 Bft)
03.12.2018 15:08 12,1 °C 73 % 1006,0 hPa 0,0 mm 11,6 km/h (2 Bft) W 265 ° 0 min 0,000 mm 0,0 UV-I 53 W/m² 7,4 °C 12,1 °C 14,5 km/h (3 Bft)
03.12.2018 15:09 12,1 °C 73 % 1006,1 hPa 0,0 mm 16,0 km/h (3 Bft) W 269 ° 0 min 0,000 mm 0,0 UV-I 53 W/m² 7,4 °C 12,1 °C 22,5 km/h (4 Bft)
03.12.2018 15:10 12,1 °C 73 % 1006,0 hPa 0,0 mm 16,5 km/h (3 Bft) W-SW 250 ° 0 min 0,000 mm 0,0 UV-I 53 W/m² 7,4 °C 12,1 °C 19,3 km/h (3 Bft)
03.12.2018 15:11 12,1 °C 73 % 1006,0 hPa 0,0 mm 9,5 km/h (2 Bft) W-SW 253 ° 0 min 0,000 mm 0,0 UV-I 53 W/m² 7,4 °C 12,1 °C 11,3 km/h (2 Bft)
03.12.2018 15:12 12,1 °C 73 % 1006,0 hPa 0,0 mm 11,4 km/h (2 Bft) W 273 ° 0 min 0,000 mm 0,0 UV-I 53 W/m² 7,4 °C 12,1 °C 17,7 km/h (3 Bft)
03.12.2018 15:13 12,1 °C 73 % 1006,0 hPa 0,0 mm 11,6 km/h (2 Bft) W 262 ° 0 min 0,000 mm 0,0 UV-I 53 W/m² 7,4 °C 12,1 °C 16,1 km/h (3 Bft)
03.12.2018 15:14 12,1 °C 72 % 1006,1 hPa 0,0 mm 13,7 km/h (3 Bft) W 265 ° 0 min 0,000 mm 0,0 UV-I 53 W/m² 7,2 °C 12,1 °C 20,9 km/h (4 Bft)
03.12.2018 15:15 12,1 °C 72 % 1006,0 hPa 0,0 mm 13,1 km/h (3 Bft) W-NW 284 ° 0 min 0,000 mm 0,0 UV-I 53 W/m² 7,2 °C 12,1 °C 19,3 km/h (3 Bft)
03.12.2018 15:16 12,1 °C 72 % 1005,9 hPa 0,0 mm 12,9 km/h (3 Bft) W 271 ° 0 min 0,000 mm 0,0 UV-I 53 W/m² 7,2 °C 12,1 °C 16,1 km/h (3 Bft)
03.12.2018 15:17 12,1 °C 72 % 1006,0 hPa 0,0 mm 17,4 km/h (3 Bft) W 276 ° 0 min 0,000 mm 0,0 UV-I 53 W/m² 7,2 °C 12,1 °C 25,7 km/h (4 Bft)
03.12.2018 15:18 12,1 °C 72 % 1006,1 hPa 0,0 mm 15,6 km/h (3 Bft) W-SW 252 ° 0 min 0,000 mm 0,0 UV-I 53 W/m² 7,2 °C 12,1 °C 19,3 km/h (3 Bft)
03.12.2018 15:19 12,1 °C 72 % 1006,1 hPa 0,0 mm 17,2 km/h (3 Bft) W 273 ° 0 min 0,000 mm 0,0 UV-I 51 W/m² 7,2 °C 12,1 °C 22,5 km/h (4 Bft)
03.12.2018 15:20 12,2 °C 72 % 1006,1 hPa 0,0 mm 9,9 km/h (2 Bft) W 263 ° 0 min 0,000 mm 0,0 UV-I 49 W/m² 7,3 °C 12,2 °C 17,7 km/h (3 Bft)
03.12.2018 15:21 12,2 °C 72 % 1006,1 hPa 0,0 mm 9,9 km/h (2 Bft) NW 304 ° 0 min 0,000 mm 0,0 UV-I 49 W/m² 7,3 °C 12,2 °C 14,5 km/h (3 Bft)
03.12.2018 15:22 12,2 °C 71 % 1006,1 hPa 0,0 mm 8,2 km/h (2 Bft) W-SW 239 ° 0 min 0,000 mm 0,0 UV-I 49 W/m² 7,1 °C 12,2 °C 12,9 km/h (3 Bft)
03.12.2018 15:23 12,2 °C 71 % 1006,1 hPa 0,0 mm 13,9 km/h (3 Bft) W-NW 287 ° 0 min 0,000 mm 0,0 UV-I 51 W/m² 7,1 °C 12,2 °C 27,4 km/h (4 Bft)
03.12.2018 15:24 12,2 °C 72 % 1006,1 hPa 0,0 mm 10,2 km/h (2 Bft) W 261 ° 0 min 0,000 mm 0,0 UV-I 54 W/m² 7,3 °C 12,2 °C 14,5 km/h (3 Bft)
03.12.2018 15:25 12,2 °C 72 % 1006,2 hPa 0,0 mm 9,6 km/h (2 Bft) W 271 ° 0 min 0,000 mm 0,0 UV-I 56 W/m² 7,3 °C 12,2 °C 17,7 km/h (3 Bft)
03.12.2018 15:26 12,2 °C 72 % 1006,2 hPa 0,0 mm 15,7 km/h (3 Bft) W 262 ° 0 min 0,000 mm 0,0 UV-I 60 W/m² 7,3 °C 12,2 °C 25,7 km/h (4 Bft)
03.12.2018 15:27 12,2 °C 71 % 1006,3 hPa 0,0 mm 22,1 km/h (4 Bft) W 280 ° 0 min 0,000 mm 0,0 UV-I 56 W/m² 7,1 °C 12,2 °C 32,2 km/h (5 Bft)
03.12.2018 15:28 12,3 °C 70 % 1006,1 hPa 0,0 mm 13,4 km/h (3 Bft) W-SW 257 ° 0 min 0,000 mm 0,0 UV-I 53 W/m² 7,0 °C 12,3 °C 22,5 km/h (4 Bft)
03.12.2018 15:29 12,3 °C 70 % 1006,2 hPa 0,0 mm 10,4 km/h (2 Bft) SW 227 ° 0 min 0,000 mm 0,0 UV-I 51 W/m² 7,0 °C 12,3 °C 17,7 km/h (3 Bft)
03.12.2018 15:30 12,4 °C 70 % 1006,1 hPa 0,0 mm 10,9 km/h (2 Bft) W 269 ° 0 min 0,000 mm 0,0 UV-I 51 W/m² 7,1 °C 12,4 °C 17,7 km/h (3 Bft)
03.12.2018 15:31 12,4 °C 70 % 1006,1 hPa 0,0 mm 6,3 km/h (2 Bft) SW 236 ° 0 min 0,000 mm 0,0 UV-I 49 W/m² 7,1 °C 12,4 °C 14,5 km/h (3 Bft)
03.12.2018 15:32 12,4 °C 70 % 1006,1 hPa 0,0 mm 9,0 km/h (2 Bft) SW 232 ° 0 min 0,000 mm 0,0 UV-I 49 W/m² 7,1 °C 12,4 °C 14,5 km/h (3 Bft)
03.12.2018 15:33 12,4 °C 70 % 1006,1 hPa 0,0 mm 14,8 km/h (3 Bft) W-NW 286 ° 0 min 0,000 mm 0,0 UV-I 47 W/m² 7,1 °C 12,4 °C 20,9 km/h (4 Bft)
03.12.2018 15:34 12,4 °C 70 % 1006,1 hPa 0,0 mm 11,7 km/h (2 Bft) W 260 ° 0 min 0,000 mm 0,0 UV-I 46 W/m² 7,1 °C 12,4 °C 17,7 km/h (3 Bft)
03.12.2018 15:35 12,4 °C 70 % 1006,1 hPa 0,0 mm 14,1 km/h (3 Bft) W 270 ° 0 min 0,000 mm 0,0 UV-I 46 W/m² 7,1 °C 12,4 °C 19,3 km/h (3 Bft)
03.12.2018 15:36 12,4 °C 70 % 1006,0 hPa 0,0 mm 13,1 km/h (3 Bft) SW 231 ° 0 min 0,000 mm 0,0 UV-I 44 W/m² 7,1 °C 12,4 °C 20,9 km/h (4 Bft)
03.12.2018 15:37 12,3 °C 70 % 1006,0 hPa 0,0 mm 12,0 km/h (2 Bft) NW 305 ° 0 min 0,000 mm 0,0 UV-I 42 W/m² 7,0 °C 12,3 °C 19,3 km/h (3 Bft)
03.12.2018 15:38 12,3 °C 70 % 1006,0 hPa 0,0 mm 17,1 km/h (3 Bft) W-NW 285 ° 0 min 0,000 mm 0,0 UV-I 39 W/m² 7,0 °C 12,3 °C 27,4 km/h (4 Bft)
03.12.2018 15:39 12,3 °C 70 % 1006,0 hPa 0,0 mm 13,6 km/h (3 Bft) W 259 ° 0 min 0,000 mm 0,0 UV-I 39 W/m² 7,0 °C 12,3 °C 17,7 km/h (3 Bft)
03.12.2018 15:40 12,3 °C 70 % 1006,0 hPa 0,0 mm 10,3 km/h (2 Bft) W 271 ° 0 min 0,000 mm 0,0 UV-I 37 W/m² 7,0 °C 12,3 °C 16,1 km/h (3 Bft)
03.12.2018 15:41 12,3 °C 70 % 1006,1 hPa 0,0 mm 12,1 km/h (2 Bft) W 271 ° 0 min 0,000 mm 0,0 UV-I 35 W/m² 7,0 °C 12,3 °C 16,1 km/h (3 Bft)
03.12.2018 15:42 12,3 °C 70 % 1006,1 hPa 0,0 mm 12,1 km/h (2 Bft) W 264 ° 0 min 0,000 mm 0,0 UV-I 33 W/m² 7,0 °C 12,3 °C 16,1 km/h (3 Bft)
03.12.2018 15:43 12,3 °C 70 % 1006,2 hPa 0,0 mm 11,3 km/h (2 Bft) W 267 ° 0 min 0,000 mm 0,0 UV-I 30 W/m² 7,0 °C 12,3 °C 14,5 km/h (3 Bft)
03.12.2018 15:44 12,3 °C 70 % 1006,2 hPa 0,0 mm 12,7 km/h (3 Bft) W-SW 250 ° 0 min 0,000 mm 0,0 UV-I 26 W/m² 7,0 °C 12,3 °C 17,7 km/h (3 Bft)
03.12.2018 15:45 12,3 °C 71 % 1006,2 hPa 0,0 mm 10,7 km/h (2 Bft) W 263 ° 0 min 0,000 mm 0,0 UV-I 25 W/m² 7,2 °C 12,3 °C 16,1 km/h (3 Bft)
03.12.2018 15:46 12,3 °C 70 % 1006,2 hPa 0,0 mm 15,0 km/h (3 Bft) W 273 ° 0 min 0,000 mm 0,0 UV-I 23 W/m² 7,0 °C 12,3 °C 25,7 km/h (4 Bft)
03.12.2018 15:47 12,3 °C 70 % 1006,2 hPa 0,0 mm 10,9 km/h (2 Bft) W 263 ° 0 min 0,000 mm 0,0 UV-I 23 W/m² 7,0 °C 12,3 °C 17,7 km/h (3 Bft)
03.12.2018 15:48 12,3 °C 71 % 1006,3 hPa 0,0 mm 8,9 km/h (2 Bft) W-NW 298 ° 0 min 0,000 mm 0,0 UV-I 25 W/m² 7,2 °C 12,3 °C 17,7 km/h (3 Bft)
03.12.2018 15:49 12,3 °C 71 % 1006,2 hPa 0,0 mm 13,3 km/h (3 Bft) W-NW 292 ° 0 min 0,000 mm 0,0 UV-I 23 W/m² 7,2 °C 12,3 °C 20,9 km/h (4 Bft)
03.12.2018 15:50 12,3 °C 71 % 1006,2 hPa 0,0 mm 11,3 km/h (2 Bft) W 263 ° 0 min 0,000 mm 0,0 UV-I 21 W/m² 7,2 °C 12,3 °C 19,3 km/h (3 Bft)
03.12.2018 15:51 12,3 °C 71 % 1006,3 hPa 0,0 mm 15,0 km/h (3 Bft) W 267 ° 0 min 0,000 mm 0,0 UV-I 19 W/m² 7,2 °C 12,3 °C 19,3 km/h (3 Bft)
03.12.2018 15:52 12,3 °C 71 % 1006,2 hPa 0,0 mm 11,1 km/h (2 Bft) W 274 ° 0 min 0,000 mm 0,0 UV-I 19 W/m² 7,2 °C 12,3 °C 16,1 km/h (3 Bft)
03.12.2018 15:53 12,3 °C 71 % 1006,3 hPa 0,0 mm 10,2 km/h (2 Bft) W-SW 257 ° 0 min 0,000 mm 0,0 UV-I 18 W/m² 7,2 °C 12,3 °C 16,1 km/h (3 Bft)
03.12.2018 15:54 12,2 °C 71 % 1006,3 hPa 0,0 mm 12,1 km/h (2 Bft) W 269 ° 0 min 0,000 mm 0,0 UV-I 18 W/m² 7,1 °C 12,2 °C 20,9 km/h (4 Bft)
03.12.2018 15:55 12,2 °C 71 % 1006,3 hPa 0,0 mm 10,7 km/h (2 Bft) W 274 ° 0 min 0,000 mm 0,0 UV-I 16 W/m² 7,1 °C 12,2 °C 16,1 km/h (3 Bft)
03.12.2018 15:56 12,2 °C 71 % 1006,3 hPa 0,0 mm 9,7 km/h (2 Bft) W 278 ° 0 min 0,000 mm 0,0 UV-I 14 W/m² 7,1 °C 12,2 °C 12,9 km/h (3 Bft)
03.12.2018 15:57 12,2 °C 71 % 1006,3 hPa 0,0 mm 12,7 km/h (3 Bft) W 275 ° 0 min 0,000 mm 0,0 UV-I 14 W/m² 7,1 °C 12,2 °C 19,3 km/h (3 Bft)
03.12.2018 15:58 12,2 °C 72 % 1006,3 hPa 0,0 mm 16,7 km/h (3 Bft) W 273 ° 0 min 0,000 mm 0,0 UV-I 14 W/m² 7,3 °C 12,2 °C 24,1 km/h (4 Bft)
03.12.2018 15:59 12,1 °C 72 % 1006,3 hPa 0,0 mm 11,3 km/h (2 Bft) W 263 ° 0 min 0,000 mm 0,0 UV-I 12 W/m² 7,2 °C 12,1 °C 17,7 km/h (3 Bft)
03.12.2018 16:00 12,1 °C 72 % 1006,3 hPa 0,0 mm 6,2 km/h (2 Bft) W 273 ° 0 min 0,000 mm 0,0 UV-I 12 W/m² 7,2 °C 12,1 °C 9,7 km/h (2 Bft)
03.12.2018 16:01 12,1 °C 72 % 1006,3 hPa 0,0 mm 5,4 km/h (1 Bft) W-SW 250 ° 0 min 0,050 mm 0,0 UV-I 12 W/m² 7,2 °C 12,1 °C 9,7 km/h (2 Bft)
03.12.2018 16:02 12,1 °C 72 % 1006,3 hPa 0,0 mm 9,8 km/h (2 Bft) W-SW 254 ° 0 min 0,000 mm 0,0 UV-I 12 W/m² 7,2 °C 12,1 °C 12,9 km/h (3 Bft)
03.12.2018 16:03 12,1 °C 72 % 1006,2 hPa 0,0 mm 8,0 km/h (2 Bft) W-NW 300 ° 0 min 0,000 mm 0,0 UV-I 11 W/m² 7,2 °C 12,1 °C 17,7 km/h (3 Bft)
03.12.2018 16:04 12,1 °C 72 % 1006,3 hPa 0,0 mm 12,7 km/h (3 Bft) W-NW 300 ° 0 min 0,000 mm 0,0 UV-I 11 W/m² 7,2 °C 12,1 °C 17,7 km/h (3 Bft)
03.12.2018 16:05 12,0 °C 72 % 1006,3 hPa 0,0 mm 11,2 km/h (2 Bft) W-NW 298 ° 0 min 0,000 mm 0,0 UV-I 11 W/m² 7,1 °C 12,0 °C 14,5 km/h (3 Bft)
03.12.2018 16:06 12,0 °C 72 % 1006,4 hPa 0,0 mm 12,7 km/h (3 Bft) W-NW 294 ° 0 min 0,000 mm 0,0 UV-I 11 W/m² 7,1 °C 12,0 °C 16,1 km/h (3 Bft)
03.12.2018 16:07 11,9 °C 73 % 1006,2 hPa 0,0 mm 13,1 km/h (3 Bft) W 266 ° 0 min 0,000 mm 0,0 UV-I 11 W/m² 7,2 °C 11,9 °C 16,1 km/h (3 Bft)
03.12.2018 16:08 11,9 °C 73 % 1006,3 hPa 0,0 mm 13,2 km/h (3 Bft) W-NW 284 ° 0 min 0,000 mm 0,0 UV-I 9 W/m² 7,2 °C 11,9 °C 20,9 km/h (4 Bft)
03.12.2018 16:09 11,9 °C 73 % 1006,4 hPa 0,0 mm 15,5 km/h (3 Bft) W 277 ° 0 min 0,000 mm 0,0 UV-I 9 W/m² 7,2 °C 11,9 °C 22,5 km/h (4 Bft)
03.12.2018 16:10 11,9 °C 73 % 1006,4 hPa 0,0 mm 11,3 km/h (2 Bft) W 259 ° 0 min 0,000 mm 0,0 UV-I 9 W/m² 7,2 °C 11,9 °C 17,7 km/h (3 Bft)
03.12.2018 16:11 11,8 °C 73 % 1006,3 hPa 0,0 mm 13,7 km/h (3 Bft) W-NW 286 ° 0 min 0,000 mm 0,0 UV-I 7 W/m² 7,1 °C 11,8 °C 20,9 km/h (4 Bft)
03.12.2018 16:12 11,8 °C 73 % 1006,4 hPa 0,0 mm 8,0 km/h (2 Bft) W 259 ° 0 min 0,000 mm 0,0 UV-I 7 W/m² 7,1 °C 11,8 °C 12,9 km/h (3 Bft)
03.12.2018 16:13 11,8 °C 74 % 1006,4 hPa 0,0 mm 13,0 km/h (3 Bft) W 260 ° 0 min 0,000 mm 0,0 UV-I 7 W/m² 7,3 °C 11,8 °C 16,1 km/h (3 Bft)
03.12.2018 16:14 11,8 °C 74 % 1006,4 hPa 0,0 mm 5,9 km/h (2 Bft) NW 305 ° 0 min 0,000 mm 0,0 UV-I 5 W/m² 7,3 °C 11,8 °C 11,3 km/h (2 Bft)
03.12.2018 16:15 11,8 °C 74 % 1006,4 hPa 0,0 mm 8,9 km/h (2 Bft) W 276 ° 0 min 0,000 mm 0,0 UV-I 5 W/m² 7,3 °C 11,8 °C 17,7 km/h (3 Bft)
03.12.2018 16:16 11,7 °C 74 % 1006,5 hPa 0,0 mm 15,4 km/h (3 Bft) W-NW 284 ° 0 min 0,000 mm 0,0 UV-I 5 W/m² 7,2 °C 11,7 °C 22,5 km/h (4 Bft)
03.12.2018 16:17 11,7 °C 74 % 1006,4 hPa 0,0 mm 16,6 km/h (3 Bft) W-SW 246 ° 0 min 0,000 mm 0,0 UV-I 0 W/m² 7,2 °C 11,7 °C 22,5 km/h (4 Bft)
03.12.2018 16:18 11,7 °C 75 % 1006,5 hPa 0,0 mm 16,8 km/h (3 Bft) NW 313 ° 0 min 0,000 mm 0,0 UV-I 0 W/m² 7,4 °C 11,7 °C 20,9 km/h (4 Bft)
03.12.2018 16:19 11,7 °C 75 % 1006,5 hPa 0,0 mm 10,3 km/h (2 Bft) W-SW 245 ° 0 min 0,000 mm 0,0 UV-I 0 W/m² 7,4 °C 11,7 °C 14,5 km/h (3 Bft)
03.12.2018 16:20 11,7 °C 75 % 1006,5 hPa 0,0 mm 9,3 km/h (2 Bft) W 263 ° 0 min 0,000 mm 0,0 UV-I 0 W/m² 7,4 °C 11,7 °C 14,5 km/h (3 Bft)
03.12.2018 16:21 11,6 °C 75 % 1006,5 hPa 0,0 mm 10,0 km/h (2 Bft) W-SW 256 ° 0 min 0,000 mm 0,0 UV-I 0 W/m² 7,3 °C 11,6 °C 14,5 km/h (3 Bft)
03.12.2018 16:22 11,6 °C 75 % 1006,5 hPa 0,0 mm 11,9 km/h (2 Bft) W 261 ° 0 min 0,000 mm 0,0 UV-I 0 W/m² 7,3 °C 11,6 °C 16,1 km/h (3 Bft)
03.12.2018 16:23 11,6 °C 75 % 1006,5 hPa 0,0 mm 10,6 km/h (2 Bft) W 268 ° 0 min 0,000 mm 0,0 UV-I 0 W/m² 7,3 °C 11,6 °C 14,5 km/h (3 Bft)
03.12.2018 16:24 11,6 °C 75 % 1006,6 hPa 0,0 mm 16,7 km/h (3 Bft) W 275 ° 0 min 0,000 mm 0,0 UV-I 0 W/m² 7,3 °C 11,6 °C 20,9 km/h (4 Bft)
03.12.2018 16:25 11,6 °C 76 % 1006,6 hPa 0,0 mm 11,9 km/h (2 Bft) W 270 ° 0 min 0,000 mm 0,0 UV-I 0 W/m² 7,5 °C 11,6 °C 17,7 km/h (3 Bft)
03.12.2018 16:26 11,6 °C 76 % 1006,5 hPa 0,0 mm 12,5 km/h (3 Bft) W-NW 289 ° 0 min 0,000 mm 0,0 UV-I 0 W/m² 7,5 °C 11,6 °C 19,3 km/h (3 Bft)
03.12.2018 16:27 11,5 °C 76 % 1006,5 hPa 0,0 mm 13,7 km/h (3 Bft) W-SW 246 ° 0 min 0,000 mm 0,0 UV-I 0 W/m² 7,4 °C 11,5 °C 17,7 km/h (3 Bft)
03.12.2018 16:28 11,5 °C 76 % 1006,5 hPa 0,0 mm 17,1 km/h (3 Bft) W 265 ° 0 min 0,000 mm 0,0 UV-I 0 W/m² 7,4 °C 11,5 °C 22,5 km/h (4 Bft)
03.12.2018 16:29 11,5 °C 76 % 1006,4 hPa 0,0 mm 11,7 km/h (2 Bft) W-SW 243 ° 0 min 0,000 mm 0,0 UV-I 0 W/m² 7,4 °C 11,5 °C 17,7 km/h (3 Bft)
03.12.2018 16:30 11,4 °C 76 % 1006,4 hPa 0,0 mm 5,9 km/h (2 Bft) W-SW 257 ° 0 min 0,000 mm 0,0 UV-I 0 W/m² 7,3 °C 11,4 °C 9,7 km/h (2 Bft)
03.12.2018 16:31 11,4 °C 76 % 1006,4 hPa 0,0 mm 10,6 km/h (2 Bft) W-SW 238 ° 0 min 0,000 mm 0,0 UV-I 0 W/m² 7,3 °C 11,4 °C 16,1 km/h (3 Bft)
03.12.2018 16:32 11,4 °C 76 % 1006,4 hPa 0,0 mm 10,1 km/h (2 Bft) W-SW 256 ° 0 min 0,000 mm 0,0 UV-I 0 W/m² 7,3 °C 11,4 °C 17,7 km/h (3 Bft)
03.12.2018 16:33 11,3 °C 76 % 1006,4 hPa 0,0 mm 9,0 km/h (2 Bft) W-SW 246 ° 0 min 0,000 mm 0,0 UV-I 0 W/m² 7,2 °C 11,3 °C 14,5 km/h (3 Bft)
03.12.2018 16:34 11,4 °C 77 % 1006,4 hPa 0,0 mm 6,6 km/h (2 Bft) W-SW 247 ° 0 min 0,000 mm 0,0 UV-I 0 W/m² 7,5 °C 11,4 °C 11,3 km/h (2 Bft)
03.12.2018 16:35 11,3 °C 77 % 1006,3 hPa 0,0 mm 5,6 km/h (1 Bft) W 259 ° 0 min 0,000 mm 0,0 UV-I 0 W/m² 7,4 °C 11,3 °C 9,7 km/h (2 Bft)
03.12.2018 16:36 11,3 °C 77 % 1006,3 hPa 0,0 mm 6,3 km/h (2 Bft) W 273 ° 0 min 0,000 mm 0,0 UV-I 0 W/m² 7,4 °C 11,3 °C 9,7 km/h (2 Bft)
03.12.2018 16:37 11,3 °C 77 % 1006,3 hPa 0,0 mm 6,1 km/h (2 Bft) W 265 ° 0 min 0,000 mm 0,0 UV-I 0 W/m² 7,4 °C 11,3 °C 9,7 km/h (2 Bft)
03.12.2018 16:38 11,3 °C 77 % 1006,3 hPa 0,0 mm 6,8 km/h (2 Bft) W-SW 258 ° 0 min 0,000 mm 0,0 UV-I 0 W/m² 7,4 °C 11,3 °C 11,3 km/h (2 Bft)
03.12.2018 16:39 11,3 °C 77 % 1006,2 hPa 0,0 mm 7,0 km/h (2 Bft) W 271 ° 0 min 0,000 mm 0,0 UV-I 0 W/m² 7,4 °C 11,3 °C 11,3 km/h (2 Bft)
03.12.2018 16:40 11,3 °C 77 % 1006,2 hPa 0,0 mm 6,0 km/h (2 Bft) W 273 ° 0 min 0,000 mm 0,0 UV-I 0 W/m² 7,4 °C 11,3 °C 9,7 km/h (2 Bft)
03.12.2018 16:41 11,3 °C 77 % 1006,2 hPa 0,0 mm 8,2 km/h (2 Bft) SW 229 ° 0 min 0,000 mm 0,0 UV-I 0 W/m² 7,4 °C 11,3 °C 12,9 km/h (3 Bft)
03.12.2018 16:42 11,2 °C 77 % 1006,2 hPa 0,0 mm 4,3 km/h (1 Bft) W-SW 244 ° 0 min 0,000 mm 0,0 UV-I 0 W/m² 7,3 °C 11,2 °C 8,0 km/h (2 Bft)
03.12.2018 16:43 11,2 °C 77 % 1006,2 hPa 0,0 mm 5,6 km/h (1 Bft) W-SW 237 ° 0 min 0,000 mm 0,0 UV-I 0 W/m² 7,3 °C 11,2 °C 9,7 km/h (2 Bft)
03.12.2018 16:44 11,2 °C 77 % 1006,2 hPa 0,0 mm 4,8 km/h (1 Bft) W-SW 251 ° 0 min 0,000 mm 0,0 UV-I 0 W/m² 7,3 °C 11,2 °C 8,0 km/h (2 Bft)
03.12.2018 16:45 11,2 °C 77 % 1006,2 hPa 0,0 mm 5,9 km/h (2 Bft) W 265 ° 0 min 0,000 mm 0,0 UV-I 0 W/m² 7,3 °C 11,2 °C 6,4 km/h (2 Bft)
03.12.2018 16:46 11,2 °C 77 % 1006,2 hPa 0,0 mm 6,8 km/h (2 Bft) SW 222 ° 0 min 0,000 mm 0,0 UV-I 0 W/m² 7,3 °C 11,2 °C 14,5 km/h (3 Bft)
03.12.2018 16:47 11,2 °C 77 % 1006,2 hPa 0,0 mm 5,7 km/h (1 Bft) W-SW 258 ° 0 min 0,000 mm 0,0 UV-I 0 W/m² 7,3 °C 11,2 °C 8,0 km/h (2 Bft)
03.12.2018 16:48 11,2 °C 77 % 1006,3 hPa 0,0 mm 9,0 km/h (2 Bft) W-SW 250 ° 0 min 0,000 mm 0,0 UV-I 0 W/m² 7,3 °C 11,2 °C 12,9 km/h (3 Bft)
03.12.2018 16:49 11,2 °C 77 % 1006,2 hPa 0,0 mm 6,5 km/h (2 Bft) W 265 ° 0 min 0,000 mm 0,0 UV-I 0 W/m² 7,3 °C 11,2 °C 9,7 km/h (2 Bft)
03.12.2018 16:50 11,1 °C 77 % 1006,2 hPa 0,0 mm 8,4 km/h (2 Bft) W-SW 252 ° 0 min 0,000 mm 0,0 UV-I 0 W/m² 7,2 °C 11,1 °C 12,9 km/h (3 Bft)
03.12.2018 16:51 11,1 °C 77 % 1006,2 hPa 0,0 mm 7,4 km/h (2 Bft) S-SW 198 ° 0 min 0,000 mm 0,0 UV-I 0 W/m² 7,2 °C 11,1 °C 14,5 km/h (3 Bft)
03.12.2018 16:52 11,1 °C 77 % 1006,2 hPa 0,0 mm 8,4 km/h (2 Bft) W-SW 255 ° 0 min 0,000 mm 0,0 UV-I 0 W/m² 7,2 °C 11,1 °C 12,9 km/h (3 Bft)
03.12.2018 16:53 11,1 °C 76 % 1006,1 hPa 0,0 mm 5,0 km/h (1 Bft) W-SW 243 ° 0 min 0,000 mm 0,0 UV-I 0 W/m² 7,0 °C 11,1 °C 8,0 km/h (2 Bft)
03.12.2018 16:54 11,1 °C 76 % 1006,2 hPa 0,0 mm 3,9 km/h (1 Bft) W-SW 251 ° 0 min 0,000 mm 0,0 UV-I 0 W/m² 7,0 °C 11,1 °C 6,4 km/h (2 Bft)
03.12.2018 16:55 11,0 °C 76 % 1006,1 hPa 0,0 mm 5,9 km/h (2 Bft) W-SW 237 ° 0 min 0,000 mm 0,0 UV-I 0 W/m² 6,9 °C 11,0 °C 12,9 km/h (3 Bft)
03.12.2018 16:56 11,0 °C 76 % 1006,1 hPa 0,0 mm 5,5 km/h (1 Bft) W 262 ° 0 min 0,000 mm 0,0 UV-I 0 W/m² 6,9 °C 11,0 °C 11,3 km/h (2 Bft)
03.12.2018 16:57 11,0 °C 76 % 1006,1 hPa 0,0 mm 4,7 km/h (1 Bft) W 270 ° 0 min 0,000 mm 0,0 UV-I 0 W/m² 6,9 °C 11,0 °C 12,9 km/h (3 Bft)
03.12.2018 16:58 11,0 °C 76 % 1006,2 hPa 0,0 mm 8,2 km/h (2 Bft) SW 220 ° 0 min 0,000 mm 0,0 UV-I 0 W/m² 6,9 °C 11,0 °C 11,3 km/h (2 Bft)
03.12.2018 16:59 11,0 °C 77 % 1006,2 hPa 0,0 mm 6,2 km/h (2 Bft) W-SW 254 ° 0 min 0,000 mm 0,0 UV-I 0 W/m² 7,1 °C 11,0 °C 9,7 km/h (2 Bft)
03.12.2018 17:00 11,0 °C 77 % 1006,2 hPa 0,0 mm 5,2 km/h (1 Bft) W-SW 246 ° 0 min 0,000 mm 0,0 UV-I 0 W/m² 7,1 °C 11,0 °C 6,4 km/h (2 Bft)
03.12.2018 17:01 10,9 °C 77 % 1006,2 hPa 0,0 mm 4,0 km/h (1 Bft) W-SW 246 ° 0 min 0,026 mm 0,0 UV-I 0 W/m² 7,0 °C 10,9 °C 4,8 km/h (1 Bft)
03.12.2018 17:02 10,9 °C 77 % 1006,2 hPa 0,0 mm 8,4 km/h (2 Bft) W 266 ° 0 min 0,000 mm 0,0 UV-I 0 W/m² 7,0 °C 10,9 °C 14,5 km/h (3 Bft)
03.12.2018 17:03 10,9 °C 76 % 1006,1 hPa 0,0 mm 8,5 km/h (2 Bft) W-SW 240 ° 0 min 0,000 mm 0,0 UV-I 0 W/m² 6,8 °C 10,9 °C 14,5 km/h (3 Bft)
03.12.2018 17:04 10,9 °C 76 % 1006,1 hPa 0,0 mm 7,6 km/h (2 Bft) W 264 ° 0 min 0,000 mm 0,0 UV-I 0 W/m² 6,8 °C 10,9 °C 12,9 km/h (3 Bft)
03.12.2018 17:05 10,9 °C 76 % 1006,1 hPa 0,0 mm 10,1 km/h (2 Bft) NW 309 ° 0 min 0,000 mm 0,0 UV-I 0 W/m² 6,8 °C 10,9 °C 16,1 km/h (3 Bft)
03.12.2018 17:06 10,9 °C 76 % 1006,1 hPa 0,0 mm 5,0 km/h (1 Bft) W-SW 243 ° 0 min 0,000 mm 0,0 UV-I 0 W/m² 6,8 °C 10,9 °C 12,9 km/h (3 Bft)
03.12.2018 17:07 10,9 °C 76 % 1006,1 hPa 0,0 mm 5,0 km/h (1 Bft) W 281 ° 0 min 0,000 mm 0,0 UV-I 0 W/m² 6,8 °C 10,9 °C 6,4 km/h (2 Bft)
03.12.2018 17:08 10,9 °C 76 % 1006,1 hPa 0,0 mm 10,1 km/h (2 Bft) W-SW 246 ° 0 min 0,000 mm 0,0 UV-I 0 W/m² 6,8 °C 10,9 °C 17,7 km/h (3 Bft)
03.12.2018 17:09 10,9 °C 76 % 1006,1 hPa 0,0 mm 9,6 km/h (2 Bft) W-NW 283 ° 0 min 0,000 mm 0,0 UV-I 0 W/m² 6,8 °C 10,9 °C 16,1 km/h (3 Bft)
03.12.2018 17:10 10,9 °C 76 % 1006,1 hPa 0,0 mm 8,1 km/h (2 Bft) W 274 ° 0 min 0,000 mm 0,0 UV-I 0 W/m² 6,8 °C 10,9 °C 12,9 km/h (3 Bft)
03.12.2018 17:11 10,9 °C 76 % 1006,2 hPa 0,0 mm 11,2 km/h (2 Bft) SW 223 ° 0 min 0,000 mm 0,0 UV-I 0 W/m² 6,8 °C 10,9 °C 14,5 km/h (3 Bft)
03.12.2018 17:12 10,9 °C 76 % 1006,1 hPa 0,0 mm 10,6 km/h (2 Bft) W 275 ° 0 min 0,000 mm 0,0 UV-I 0 W/m² 6,8 °C 10,9 °C 14,5 km/h (3 Bft)
03.12.2018 17:13 10,9 °C 76 % 1006,1 hPa 0,0 mm 10,6 km/h (2 Bft) W 278 ° 0 min 0,000 mm 0,0 UV-I 0 W/m² 6,8 °C 10,9 °C 14,5 km/h (3 Bft)
03.12.2018 17:14 10,9 °C 76 % 1006,1 hPa 0,0 mm 8,0 km/h (2 Bft) W-SW 252 ° 0 min 0,000 mm 0,0 UV-I 0 W/m² 6,8 °C 10,9 °C 12,9 km/h (3 Bft)
03.12.2018 17:15 11,0 °C 76 % 1006,1 hPa 0,0 mm 10,9 km/h (2 Bft) W 269 ° 0 min 0,000 mm 0,0 UV-I 0 W/m² 6,9 °C 11,0 °C 16,1 km/h (3 Bft)
03.12.2018 17:16 11,0 °C 76 % 1006,1 hPa 0,0 mm 13,8 km/h (3 Bft) W 277 ° 0 min 0,000 mm 0,0 UV-I 0 W/m² 6,9 °C 11,0 °C 19,3 km/h (3 Bft)
03.12.2018 17:17 11,0 °C 76 % 1006,1 hPa 0,0 mm 9,5 km/h (2 Bft) SW 225 ° 0 min 0,000 mm 0,0 UV-I 0 W/m² 6,9 °C 11,0 °C 12,9 km/h (3 Bft)
03.12.2018 17:18 11,0 °C 75 % 1006,0 hPa 0,0 mm 6,6 km/h (2 Bft) SW 229 ° 0 min 0,000 mm 0,0 UV-I 0 W/m² 6,7 °C 11,0 °C 14,5 km/h (3 Bft)
03.12.2018 17:19 10,9 °C 75 % 1006,0 hPa 0,0 mm 14,0 km/h (3 Bft) W 269 ° 0 min 0,000 mm 0,0 UV-I 0 W/m² 6,6 °C 10,9 °C 20,9 km/h (4 Bft)
03.12.2018 17:20 11,0 °C 75 % 1006,0 hPa 0,0 mm 11,0 km/h (2 Bft) W 265 ° 0 min 0,000 mm 0,0 UV-I 0 W/m² 6,7 °C 11,0 °C 19,3 km/h (3 Bft)
03.12.2018 17:21 11,0 °C 75 % 1005,9 hPa 0,0 mm 9,5 km/h (2 Bft) W-SW 240 ° 0 min 0,000 mm 0,0 UV-I 0 W/m² 6,7 °C 11,0 °C 17,7 km/h (3 Bft)
03.12.2018 17:22 11,0 °C 75 % 1005,9 hPa 0,0 mm 6,4 km/h (2 Bft) W 267 ° 0 min 0,000 mm 0,0 UV-I 0 W/m² 6,7 °C 11,0 °C 12,9 km/h (3 Bft)
03.12.2018 17:23 11,0 °C 75 % 1005,9 hPa 0,0 mm 8,0 km/h (2 Bft) W-SW 257 ° 0 min 0,000 mm 0,0 UV-I 0 W/m² 6,7 °C 11,0 °C 16,1 km/h (3 Bft)
03.12.2018 17:24 11,0 °C 75 % 1005,9 hPa 0,0 mm 8,5 km/h (2 Bft) W-SW 254 ° 0 min 0,000 mm 0,0 UV-I 0 W/m² 6,7 °C 11,0 °C 14,5 km/h (3 Bft)
03.12.2018 17:25 11,0 °C 75 % 1005,9 hPa 0,0 mm 12,2 km/h (2 Bft) W-SW 240 ° 0 min 0,000 mm 0,0 UV-I 0 W/m² 6,7 °C 11,0 °C 19,3 km/h (3 Bft)
03.12.2018 17:26 11,0 °C 75 % 1005,8 hPa 0,0 mm 10,5 km/h (2 Bft) W-SW 251 ° 0 min 0,000 mm 0,0 UV-I 0 W/m² 6,7 °C 11,0 °C 17,7 km/h (3 Bft)
03.12.2018 17:27 11,0 °C 75 % 1005,8 hPa 0,0 mm 9,1 km/h (2 Bft) W 270 ° 0 min 0,000 mm 0,0 UV-I 0 W/m² 6,7 °C 11,0 °C 14,5 km/h (3 Bft)
03.12.2018 17:28 11,0 °C 75 % 1006,0 hPa 0,0 mm 9,3 km/h (2 Bft) W 261 ° 0 min 0,000 mm 0,0 UV-I 0 W/m² 6,7 °C 11,0 °C 12,9 km/h (3 Bft)
03.12.2018 17:29 10,9 °C 75 % 1006,0 hPa 0,0 mm 10,2 km/h (2 Bft) W-SW 241 ° 0 min 0,000 mm 0,0 UV-I 0 W/m² 6,6 °C 10,9 °C 16,1 km/h (3 Bft)
03.12.2018 17:30 10,9 °C 75 % 1006,0 hPa 0,0 mm 7,3 km/h (2 Bft) W 267 ° 0 min 0,000 mm 0,0 UV-I 0 W/m² 6,6 °C 10,9 °C 11,3 km/h (2 Bft)
03.12.2018 17:31 10,9 °C 75 % 1006,0 hPa 0,0 mm 9,7 km/h (2 Bft) W 265 ° 0 min 0,000 mm 0,0 UV-I 0 W/m² 6,6 °C 10,9 °C 12,9 km/h (3 Bft)
03.12.2018 17:32 10,9 °C 75 % 1006,2 hPa 0,0 mm 8,9 km/h (2 Bft) W-SW 243 ° 0 min 0,000 mm 0,0 UV-I 0 W/m² 6,6 °C 10,9 °C 12,9 km/h (3 Bft)
03.12.2018 17:33 10,9 °C 75 % 1006,2 hPa 0,0 mm 15,1 km/h (3 Bft) W 263 ° 0 min 0,000 mm 0,0 UV-I 0 W/m² 6,6 °C 10,9 °C 20,9 km/h (4 Bft)
03.12.2018 17:34 10,9 °C 75 % 1006,1 hPa 0,0 mm 15,0 km/h (3 Bft) W 260 ° 0 min 0,000 mm 0,0 UV-I 0 W/m² 6,6 °C 10,9 °C 24,1 km/h (4 Bft)
03.12.2018 17:35 10,9 °C 75 % 1006,2 hPa 0,0 mm 7,3 km/h (2 Bft) SW 234 ° 0 min 0,000 mm 0,0 UV-I 0 W/m² 6,6 °C 10,9 °C 17,7 km/h (3 Bft)
03.12.2018 17:36 10,9 °C 75 % 1006,3 hPa 0,0 mm 13,4 km/h (3 Bft) W 279 ° 0 min 0,000 mm 0,0 UV-I 0 W/m² 6,6 °C 10,9 °C 19,3 km/h (3 Bft)
03.12.2018 17:37 10,9 °C 74 % 1006,2 hPa 0,0 mm 14,9 km/h (3 Bft) SW 236 ° 0 min 0,000 mm 0,0 UV-I 0 W/m² 6,5 °C 10,9 °C 22,5 km/h (4 Bft)
03.12.2018 17:38 10,9 °C 74 % 1006,1 hPa 0,0 mm 10,5 km/h (2 Bft) W-SW 240 ° 0 min 0,000 mm 0,0 UV-I 0 W/m² 6,5 °C 10,9 °C 14,5 km/h (3 Bft)
03.12.2018 17:39 11,0 °C 74 % 1006,3 hPa 0,0 mm 17,7 km/h (3 Bft) W 259 ° 0 min 0,000 mm 0,0 UV-I 0 W/m² 6,5 °C 11,0 °C 22,5 km/h (4 Bft)
03.12.2018 17:40 11,0 °C 74 % 1006,3 hPa 0,0 mm 7,5 km/h (2 Bft) W 265 ° 0 min 0,000 mm 0,0 UV-I 0 W/m² 6,5 °C 11,0 °C 12,9 km/h (3 Bft)
03.12.2018 17:41 11,0 °C 74 % 1006,2 hPa 0,0 mm 9,4 km/h (2 Bft) W 267 ° 0 min 0,000 mm 0,0 UV-I 0 W/m² 6,5 °C 11,0 °C 14,5 km/h (3 Bft)
03.12.2018 17:42 11,0 °C 74 % 1006,3 hPa 0,0 mm 9,9 km/h (2 Bft) W 273 ° 0 min 0,000 mm 0,0 UV-I 0 W/m² 6,5 °C 11,0 °C 17,7 km/h (3 Bft)
03.12.2018 17:43 11,0 °C 74 % 1006,2 hPa 0,0 mm 11,7 km/h (2 Bft) W-NW 292 ° 0 min 0,000 mm 0,0 UV-I 0 W/m² 6,5 °C 11,0 °C 19,3 km/h (3 Bft)
03.12.2018 17:44 11,1 °C 74 % 1006,2 hPa 0,0 mm 7,4 km/h (2 Bft) W-SW 253 ° 0 min 0,000 mm 0,0 UV-I 0 W/m² 6,6 °C 11,1 °C 12,9 km/h (3 Bft)
03.12.2018 17:45 11,1 °C 74 % 1006,2 hPa 0,0 mm 15,6 km/h (3 Bft) W 271 ° 0 min 0,000 mm 0,0 UV-I 0 W/m² 6,6 °C 11,1 °C 20,9 km/h (4 Bft)
03.12.2018 17:46 11,1 °C 74 % 1006,2 hPa 0,0 mm 12,8 km/h (3 Bft) SW 226 ° 0 min 0,000 mm 0,0 UV-I 0 W/m² 6,6 °C 11,1 °C 20,9 km/h (4 Bft)
03.12.2018 17:47 11,1 °C 74 % 1006,1 hPa 0,0 mm 8,4 km/h (2 Bft) W 270 ° 0 min 0,000 mm 0,0 UV-I 0 W/m² 6,6 °C 11,1 °C 12,9 km/h (3 Bft)
03.12.2018 17:48 11,2 °C 74 % 1006,1 hPa 0,0 mm 9,8 km/h (2 Bft) W 267 ° 0 min 0,000 mm 0,0 UV-I 0 W/m² 6,7 °C 11,2 °C 14,5 km/h (3 Bft)
03.12.2018 17:49 11,2 °C 73 % 1006,1 hPa 0,0 mm 5,6 km/h (1 Bft) W-SW 240 ° 0 min 0,000 mm 0,0 UV-I 0 W/m² 6,5 °C 11,2 °C 12,9 km/h (3 Bft)
03.12.2018 17:50 11,2 °C 73 % 1006,1 hPa 0,0 mm 4,6 km/h (1 Bft) W 263 ° 0 min 0,000 mm 0,0 UV-I 0 W/m² 6,5 °C 11,2 °C 9,7 km/h (2 Bft)
03.12.2018 17:51 11,2 °C 73 % 1006,1 hPa 0,0 mm 5,0 km/h (1 Bft) W-SW 238 ° 0 min 0,000 mm 0,0 UV-I 0 W/m² 6,5 °C 11,2 °C 17,7 km/h (3 Bft)
03.12.2018 17:52 11,2 °C 73 % 1006,1 hPa 0,0 mm 11,6 km/h (2 Bft) W 264 ° 0 min 0,000 mm 0,0 UV-I 0 W/m² 6,5 °C 11,2 °C 17,7 km/h (3 Bft)
03.12.2018 17:53 11,2 °C 73 % 1006,1 hPa 0,0 mm 11,5 km/h (2 Bft) W 262 ° 0 min 0,000 mm 0,0 UV-I 0 W/m² 6,5 °C 11,2 °C 16,1 km/h (3 Bft)
03.12.2018 17:54 11,2 °C 73 % 1006,1 hPa 0,0 mm 8,4 km/h (2 Bft) W 278 ° 0 min 0,000 mm 0,0 UV-I 0 W/m² 6,5 °C 11,2 °C 16,1 km/h (3 Bft)
03.12.2018 17:55 11,2 °C 73 % 1006,3 hPa 0,0 mm 14,0 km/h (3 Bft) W 274 ° 0 min 0,000 mm 0,0 UV-I 0 W/m² 6,5 °C 11,2 °C 19,3 km/h (3 Bft)
03.12.2018 17:56 11,2 °C 73 % 1006,1 hPa 0,0 mm 6,8 km/h (2 Bft) S-SW 195 ° 0 min 0,000 mm 0,0 UV-I 0 W/m² 6,5 °C 11,2 °C 11,3 km/h (2 Bft)
03.12.2018 17:57 11,2 °C 73 % 1006,0 hPa 0,0 mm 5,2 km/h (1 Bft) SW 236 ° 0 min 0,000 mm 0,0 UV-I 0 W/m² 6,5 °C 11,2 °C 6,4 km/h (2 Bft)
03.12.2018 17:58 11,2 °C 73 % 1006,0 hPa 0,0 mm 4,7 km/h (1 Bft) S-SW 211 ° 0 min 0,000 mm 0,0 UV-I 0 W/m² 6,5 °C 11,2 °C 8,0 km/h (2 Bft)
03.12.2018 17:59 11,2 °C 73 % 1006,0 hPa 0,0 mm 4,6 km/h (1 Bft) W-SW 249 ° 0 min 0,000 mm 0,0 UV-I 0 W/m² 6,5 °C 11,2 °C 6,4 km/h (2 Bft)
03.12.2018 18:00 11,2 °C 73 % 1006,0 hPa 0,0 mm 5,2 km/h (1 Bft) W-SW 246 ° 0 min 0,000 mm 0,0 UV-I 0 W/m² 6,5 °C 11,2 °C 9,7 km/h (2 Bft)
03.12.2018 18:01 11,2 °C 73 % 1006,0 hPa 0,0 mm 5,5 km/h (1 Bft) W-SW 258 ° 0 min 0,025 mm 0,0 UV-I 0 W/m² 6,5 °C 11,2 °C 9,7 km/h (2 Bft)
03.12.2018 18:02 11,2 °C 72 % 1006,0 hPa 0,0 mm 7,6 km/h (2 Bft) W 274 ° 0 min 0,000 mm 0,0 UV-I 0 W/m² 6,3 °C 11,2 °C 17,7 km/h (3 Bft)
03.12.2018 18:03 11,2 °C 72 % 1006,0 hPa 0,0 mm 13,4 km/h (3 Bft) W-SW 238 ° 0 min 0,000 mm 0,0 UV-I 0 W/m² 6,3 °C 11,2 °C 19,3 km/h (3 Bft)
03.12.2018 18:04 11,2 °C 73 % 1006,0 hPa 0,0 mm 4,4 km/h (1 Bft) SW 236 ° 0 min 0,000 mm 0,0 UV-I 0 W/m² 6,5 °C 11,2 °C 8,0 km/h (2 Bft)
03.12.2018 18:05 11,2 °C 73 % 1006,0 hPa 0,0 mm 8,9 km/h (2 Bft) SW 219 ° 0 min 0,000 mm 0,0 UV-I 0 W/m² 6,5 °C 11,2 °C 14,5 km/h (3 Bft)
03.12.2018 18:06 11,3 °C 73 % 1006,0 hPa 0,0 mm 5,7 km/h (1 Bft) W-SW 258 ° 0 min 0,000 mm 0,0 UV-I 0 W/m² 6,6 °C 11,3 °C 8,0 km/h (2 Bft)
03.12.2018 18:07 11,3 °C 73 % 1006,0 hPa 0,0 mm 8,9 km/h (2 Bft) W-SW 248 ° 0 min 0,000 mm 0,0 UV-I 0 W/m² 6,6 °C 11,3 °C 14,5 km/h (3 Bft)
03.12.2018 18:08 11,3 °C 72 % 1006,0 hPa 0,0 mm 10,8 km/h (2 Bft) W-SW 251 ° 0 min 0,000 mm 0,0 UV-I 0 W/m² 6,4 °C 11,3 °C 17,7 km/h (3 Bft)
03.12.2018 18:09 11,2 °C 72 % 1006,0 hPa 0,0 mm 3,7 km/h (1 Bft) W-SW 254 ° 0 min 0,000 mm 0,0 UV-I 0 W/m² 6,3 °C 11,2 °C 6,4 km/h (2 Bft)
03.12.2018 18:10 11,3 °C 72 % 1006,0 hPa 0,0 mm 4,8 km/h (1 Bft) SW 231 ° 0 min 0,000 mm 0,0 UV-I 0 W/m² 6,4 °C 11,3 °C 8,0 km/h (2 Bft)
03.12.2018 18:11 11,3 °C 72 % 1005,9 hPa 0,0 mm 4,0 km/h (1 Bft) S 188 ° 0 min 0,000 mm 0,0 UV-I 0 W/m² 6,4 °C 11,3 °C 6,4 km/h (2 Bft)
03.12.2018 18:12 11,3 °C 72 % 1005,8 hPa 0,0 mm 15,2 km/h (3 Bft) W 263 ° 0 min 0,000 mm 0,0 UV-I 0 W/m² 6,4 °C 11,3 °C 20,9 km/h (4 Bft)
03.12.2018 18:13 11,3 °C 72 % 1006,0 hPa 0,0 mm 15,6 km/h (3 Bft) W 281 ° 0 min 0,000 mm 0,0 UV-I 0 W/m² 6,4 °C 11,3 °C 20,9 km/h (4 Bft)
03.12.2018 18:14 11,3 °C 72 % 1006,0 hPa 0,0 mm 8,8 km/h (2 Bft) W-SW 242 ° 0 min 0,000 mm 0,0 UV-I 0 W/m² 6,4 °C 11,3 °C 16,1 km/h (3 Bft)
03.12.2018 18:15 11,3 °C 72 % 1006,0 hPa 0,0 mm 5,2 km/h (1 Bft) W 262 ° 0 min 0,000 mm 0,0 UV-I 0 W/m² 6,4 °C 11,3 °C 9,7 km/h (2 Bft)
03.12.2018 18:16 11,3 °C 72 % 1006,0 hPa 0,0 mm 8,9 km/h (2 Bft) W 266 ° 0 min 0,000 mm 0,0 UV-I 0 W/m² 6,4 °C 11,3 °C 11,3 km/h (2 Bft)
03.12.2018 18:17 11,3 °C 72 % 1006,0 hPa 0,0 mm 5,5 km/h (1 Bft) W 259 ° 0 min 0,000 mm 0,0 UV-I 0 W/m² 6,4 °C 11,3 °C 11,3 km/h (2 Bft)
03.12.2018 18:18 11,3 °C 72 % 1006,0 hPa 0,0 mm 7,6 km/h (2 Bft) W 267 ° 0 min 0,000 mm 0,0 UV-I 0 W/m² 6,4 °C 11,3 °C 16,1 km/h (3 Bft)
03.12.2018 18:19 11,3 °C 72 % 1006,0 hPa 0,0 mm 7,9 km/h (2 Bft) W 271 ° 0 min 0,000 mm 0,0 UV-I 0 W/m² 6,4 °C 11,3 °C 17,7 km/h (3 Bft)
03.12.2018 18:20 11,3 °C 72 % 1005,9 hPa 0,0 mm 4,4 km/h (1 Bft) W-SW 258 ° 0 min 0,000 mm 0,0 UV-I 0 W/m² 6,4 °C 11,3 °C 6,4 km/h (2 Bft)
03.12.2018 18:21 11,3 °C 72 % 1005,9 hPa 0,0 mm 4,8 km/h (1 Bft) W 268 ° 0 min 0,000 mm 0,0 UV-I 0 W/m² 6,4 °C 11,3 °C 9,7 km/h (2 Bft)
03.12.2018 18:22 11,3 °C 72 % 1006,0 hPa 0,0 mm 9,5 km/h (2 Bft) W-SW 249 ° 0 min 0,000 mm 0,0 UV-I 0 W/m² 6,4 °C 11,3 °C 12,9 km/h (3 Bft)
03.12.2018 18:23 11,3 °C 72 % 1006,0 hPa 0,0 mm 10,8 km/h (2 Bft) W 261 ° 0 min 0,000 mm 0,0 UV-I 0 W/m² 6,4 °C 11,3 °C 16,1 km/h (3 Bft)
03.12.2018 18:24 11,3 °C 72 % 1006,0 hPa 0,0 mm 4,7 km/h (1 Bft) W 260 ° 0 min 0,000 mm 0,0 UV-I 0 W/m² 6,4 °C 11,3 °C 6,4 km/h (2 Bft)
03.12.2018 18:25 11,3 °C 72 % 1005,9 hPa 0,0 mm 3,8 km/h (1 Bft) W-SW 250 ° 0 min 0,000 mm 0,0 UV-I 0 W/m² 6,4 °C 11,3 °C 6,4 km/h (2 Bft)
03.12.2018 18:26 11,3 °C 72 % 1006,0 hPa 0,0 mm 4,0 km/h (1 Bft) W-SW 248 ° 0 min 0,000 mm 0,0 UV-I 0 W/m² 6,4 °C 11,3 °C 6,4 km/h (2 Bft)
03.12.2018 18:27 11,3 °C 72 % 1006,0 hPa 0,0 mm 5,1 km/h (1 Bft) W 278 ° 0 min 0,000 mm 0,0 UV-I 0 W/m² 6,4 °C 11,3 °C 12,9 km/h (3 Bft)
03.12.2018 18:28 11,3 °C 72 % 1006,0 hPa 0,0 mm 13,8 km/h (3 Bft) W 266 ° 0 min 0,000 mm 0,0 UV-I 0 W/m² 6,4 °C 11,3 °C 19,3 km/h (3 Bft)
03.12.2018 18:29 11,2 °C 72 % 1006,0 hPa 0,0 mm 5,0 km/h (1 Bft) W-SW 250 ° 0 min 0,000 mm 0,0 UV-I 0 W/m² 6,3 °C 11,2 °C 11,3 km/h (2 Bft)
03.12.2018 18:30 11,2 °C 72 % 1006,0 hPa 0,0 mm 5,8 km/h (2 Bft) W-SW 252 ° 0 min 0,000 mm 0,0 UV-I 0 W/m² 6,3 °C 11,2 °C 11,3 km/h (2 Bft)
03.12.2018 18:31 11,2 °C 72 % 1006,1 hPa 0,0 mm 7,5 km/h (2 Bft) S-SW 207 ° 0 min 0,000 mm 0,0 UV-I 0 W/m² 6,3 °C 11,2 °C 12,9 km/h (3 Bft)
03.12.2018 18:32 11,2 °C 72 % 1006,0 hPa 0,0 mm 5,1 km/h (1 Bft) SW 223 ° 0 min 0,000 mm 0,0 UV-I 0 W/m² 6,3 °C 11,2 °C 8,0 km/h (2 Bft)
03.12.2018 18:33 11,2 °C 72 % 1006,1 hPa 0,0 mm 11,1 km/h (2 Bft) S 178 ° 0 min 0,000 mm 0,0 UV-I 0 W/m² 6,3 °C 11,2 °C 16,1 km/h (3 Bft)
03.12.2018 18:34 11,3 °C 71 % 1005,9 hPa 0,0 mm 16,6 km/h (3 Bft) W 279 ° 0 min 0,000 mm 0,0 UV-I 0 W/m² 6,2 °C 11,3 °C 24,1 km/h (4 Bft)
03.12.2018 18:35 11,3 °C 71 % 1006,0 hPa 0,0 mm 14,7 km/h (3 Bft) W-NW 284 ° 0 min 0,000 mm 0,0 UV-I 0 W/m² 6,2 °C 11,3 °C 22,5 km/h (4 Bft)
03.12.2018 18:36 11,3 °C 71 % 1006,0 hPa 0,0 mm 11,7 km/h (2 Bft) W-SW 239 ° 0 min 0,000 mm 0,0 UV-I 0 W/m² 6,2 °C 11,3 °C 20,9 km/h (4 Bft)
03.12.2018 18:37 11,3 °C 70 % 1006,0 hPa 0,0 mm 13,9 km/h (3 Bft) W 273 ° 0 min 0,000 mm 0,0 UV-I 0 W/m² 6,0 °C 11,3 °C 20,9 km/h (4 Bft)
03.12.2018 18:38 11,3 °C 70 % 1006,0 hPa 0,0 mm 13,1 km/h (3 Bft) W 280 ° 0 min 0,000 mm 0,0 UV-I 0 W/m² 6,0 °C 11,3 °C 17,7 km/h (3 Bft)
03.12.2018 18:39 11,4 °C 70 % 1005,9 hPa 0,0 mm 10,9 km/h (2 Bft) W 265 ° 0 min 0,000 mm 0,0 UV-I 0 W/m² 6,1 °C 11,4 °C 19,3 km/h (3 Bft)
03.12.2018 18:40 11,4 °C 70 % 1006,0 hPa 0,0 mm 14,2 km/h (3 Bft) W 271 ° 0 min 0,000 mm 0,0 UV-I 0 W/m² 6,1 °C 11,4 °C 20,9 km/h (4 Bft)
03.12.2018 18:41 11,4 °C 71 % 1006,0 hPa 0,0 mm 14,4 km/h (3 Bft) W-SW 253 ° 0 min 0,000 mm 0,0 UV-I 0 W/m² 6,3 °C 11,4 °C 20,9 km/h (4 Bft)
03.12.2018 18:42 11,5 °C 70 % 1006,0 hPa 0,0 mm 9,9 km/h (2 Bft) W 260 ° 0 min 0,000 mm 0,0 UV-I 0 W/m² 6,2 °C 11,5 °C 16,1 km/h (3 Bft)
03.12.2018 18:43 11,5 °C 70 % 1005,8 hPa 0,0 mm 14,4 km/h (3 Bft) W 279 ° 0 min 0,000 mm 0,0 UV-I 0 W/m² 6,2 °C 11,5 °C 24,1 km/h (4 Bft)
03.12.2018 18:44 11,6 °C 70 % 1005,9 hPa 0,0 mm 10,9 km/h (2 Bft) W-SW 242 ° 0 min 0,000 mm 0,0 UV-I 0 W/m² 6,3 °C 11,6 °C 14,5 km/h (3 Bft)
03.12.2018 18:45 11,6 °C 69 % 1005,9 hPa 0,0 mm 15,2 km/h (3 Bft) S-SW 208 ° 0 min 0,000 mm 0,0 UV-I 0 W/m² 6,1 °C 11,6 °C 20,9 km/h (4 Bft)
03.12.2018 18:46 11,6 °C 70 % 1005,9 hPa 0,0 mm 10,4 km/h (2 Bft) W-SW 247 ° 0 min 0,000 mm 0,0 UV-I 0 W/m² 6,3 °C 11,6 °C 19,3 km/h (3 Bft)
03.12.2018 18:47 11,6 °C 69 % 1005,9 hPa 0,0 mm 12,6 km/h (3 Bft) W 273 ° 0 min 0,000 mm 0,0 UV-I 0 W/m² 6,1 °C 11,6 °C 19,3 km/h (3 Bft)
03.12.2018 18:48 11,6 °C 69 % 1005,9 hPa 0,0 mm 10,1 km/h (2 Bft) W 261 ° 0 min 0,000 mm 0,0 UV-I 0 W/m² 6,1 °C 11,6 °C 12,9 km/h (3 Bft)
03.12.2018 18:49 11,6 °C 69 % 1005,9 hPa 0,0 mm 8,2 km/h (2 Bft) W-SW 245 ° 0 min 0,000 mm 0,0 UV-I 0 W/m² 6,1 °C 11,6 °C 11,3 km/h (2 Bft)
03.12.2018 18:50 11,6 °C 69 % 1005,8 hPa 0,0 mm 7,8 km/h (2 Bft) SW 215 ° 0 min 0,000 mm 0,0 UV-I 0 W/m² 6,1 °C 11,6 °C 17,7 km/h (3 Bft)
03.12.2018 18:51 11,6 °C 69 % 1005,8 hPa 0,0 mm 15,5 km/h (3 Bft) W 261 ° 0 min 0,000 mm 0,0 UV-I 0 W/m² 6,1 °C 11,6 °C 22,5 km/h (4 Bft)
03.12.2018 18:52 11,7 °C 69 % 1005,8 hPa 0,0 mm 13,5 km/h (3 Bft) NW 308 ° 0 min 0,000 mm 0,0 UV-I 0 W/m² 6,2 °C 11,7 °C 17,7 km/h (3 Bft)
03.12.2018 18:53 11,7 °C 69 % 1005,8 hPa 0,0 mm 10,9 km/h (2 Bft) W-SW 257 ° 0 min 0,000 mm 0,0 UV-I 0 W/m² 6,2 °C 11,7 °C 14,5 km/h (3 Bft)
03.12.2018 18:54 11,7 °C 69 % 1005,8 hPa 0,0 mm 12,0 km/h (2 Bft) W-SW 242 ° 0 min 0,000 mm 0,0 UV-I 0 W/m² 6,2 °C 11,7 °C 16,1 km/h (3 Bft)
03.12.2018 18:55 11,7 °C 69 % 1005,7 hPa 0,0 mm 7,8 km/h (2 Bft) W-SW 256 ° 0 min 0,000 mm 0,0 UV-I 0 W/m² 6,2 °C 11,7 °C 11,3 km/h (2 Bft)
03.12.2018 18:56 11,7 °C 69 % 1005,8 hPa 0,0 mm 7,4 km/h (2 Bft) SW 236 ° 0 min 0,000 mm 0,0 UV-I 0 W/m² 6,2 °C 11,7 °C 16,1 km/h (3 Bft)
03.12.2018 18:57 11,7 °C 69 % 1005,7 hPa 0,0 mm 8,8 km/h (2 Bft) W 267 ° 0 min 0,000 mm 0,0 UV-I 0 W/m² 6,2 °C 11,7 °C 17,7 km/h (3 Bft)
03.12.2018 18:58 11,7 °C 69 % 1005,8 hPa 0,0 mm 18,4 km/h (3 Bft) W-SW 250 ° 0 min 0,000 mm 0,0 UV-I 0 W/m² 6,2 °C 11,7 °C 25,7 km/h (4 Bft)
03.12.2018 18:59 11,7 °C 68 % 1005,7 hPa 0,0 mm 13,1 km/h (3 Bft) W-SW 246 ° 0 min 0,000 mm 0,0 UV-I 0 W/m² 6,0 °C 11,7 °C 17,7 km/h (3 Bft)
03.12.2018 19:00 11,7 °C 68 % 1005,6 hPa 0,0 mm 6,3 km/h (2 Bft) W-SW 248 ° 0 min 0,000 mm 0,0 UV-I 0 W/m² 6,0 °C 11,7 °C 9,7 km/h (2 Bft)
03.12.2018 19:01 11,7 °C 68 % 1005,7 hPa 0,0 mm 8,3 km/h (2 Bft) W 264 ° 0 min 0,051 mm 0,0 UV-I 0 W/m² 6,0 °C 11,7 °C 14,5 km/h (3 Bft)
03.12.2018 19:02 11,7 °C 68 % 1005,7 hPa 0,0 mm 7,6 km/h (2 Bft) W 269 ° 0 min 0,000 mm 0,0 UV-I 0 W/m² 6,0 °C 11,7 °C 14,5 km/h (3 Bft)
03.12.2018 19:03 11,7 °C 68 % 1005,7 hPa 0,0 mm 8,7 km/h (2 Bft) W 273 ° 0 min 0,000 mm 0,0 UV-I 0 W/m² 6,0 °C 11,7 °C 19,3 km/h (3 Bft)
03.12.2018 19:04 11,7 °C 68 % 1005,7 hPa 0,0 mm 13,3 km/h (3 Bft) W-SW 250 ° 0 min 0,000 mm 0,0 UV-I 0 W/m² 6,0 °C 11,7 °C 16,1 km/h (3 Bft)
03.12.2018 19:05 11,7 °C 68 % 1005,6 hPa 0,0 mm 8,9 km/h (2 Bft) W 261 ° 0 min 0,000 mm 0,0 UV-I 0 W/m² 6,0 °C 11,7 °C 14,5 km/h (3 Bft)
03.12.2018 19:06 11,7 °C 68 % 1005,6 hPa 0,0 mm 8,6 km/h (2 Bft) W-NW 284 ° 0 min 0,000 mm 0,0 UV-I 0 W/m² 6,0 °C 11,7 °C 20,9 km/h (4 Bft)
03.12.2018 19:07 11,7 °C 68 % 1005,7 hPa 0,0 mm 13,3 km/h (3 Bft) W-SW 257 ° 0 min 0,000 mm 0,0 UV-I 0 W/m² 6,0 °C 11,7 °C 17,7 km/h (3 Bft)
03.12.2018 19:08 11,7 °C 69 % 1005,6 hPa 0,0 mm 7,5 km/h (2 Bft) W-SW 244 ° 0 min 0,000 mm 0,0 UV-I 0 W/m² 6,2 °C 11,7 °C 12,9 km/h (3 Bft)
03.12.2018 19:09 11,7 °C 68 % 1005,6 hPa 0,0 mm 9,2 km/h (2 Bft) W-SW 251 ° 0 min 0,000 mm 0,0 UV-I 0 W/m² 6,0 °C 11,7 °C 14,5 km/h (3 Bft)
03.12.2018 19:10 11,7 °C 68 % 1005,6 hPa 0,0 mm 6,6 km/h (2 Bft) W 263 ° 0 min 0,000 mm 0,0 UV-I 0 W/m² 6,0 °C 11,7 °C 12,9 km/h (3 Bft)
03.12.2018 19:11 11,7 °C 69 % 1005,6 hPa 0,0 mm 13,5 km/h (3 Bft) W-SW 238 ° 0 min 0,000 mm 0,0 UV-I 0 W/m² 6,2 °C 11,7 °C 17,7 km/h (3 Bft)
03.12.2018 19:12 11,7 °C 68 % 1005,6 hPa 0,0 mm 12,1 km/h (2 Bft) W 275 ° 0 min 0,000 mm 0,0 UV-I 0 W/m² 6,0 °C 11,7 °C 16,1 km/h (3 Bft)
03.12.2018 19:13 11,7 °C 69 % 1005,6 hPa 0,0 mm 12,7 km/h (3 Bft) W 277 ° 0 min 0,000 mm 0,0 UV-I 0 W/m² 6,2 °C 11,7 °C 16,1 km/h (3 Bft)
03.12.2018 19:14 11,6 °C 69 % 1005,6 hPa 0,0 mm 10,3 km/h (2 Bft) W 265 ° 0 min 0,000 mm 0,0 UV-I 0 W/m² 6,1 °C 11,6 °C 14,5 km/h (3 Bft)
03.12.2018 19:15 11,7 °C 69 % 1005,6 hPa 0,0 mm 9,5 km/h (2 Bft) W 275 ° 0 min 0,000 mm 0,0 UV-I 0 W/m² 6,2 °C 11,7 °C 14,5 km/h (3 Bft)
03.12.2018 19:16 11,6 °C 69 % 1005,6 hPa 0,0 mm 15,8 km/h (3 Bft) W-NW 288 ° 0 min 0,000 mm 0,0 UV-I 0 W/m² 6,1 °C 11,6 °C 19,3 km/h (3 Bft)
03.12.2018 19:17 11,6 °C 68 % 1005,6 hPa 0,0 mm 11,9 km/h (2 Bft) W 278 ° 0 min 0,000 mm 0,0 UV-I 0 W/m² 5,9 °C 11,6 °C 19,3 km/h (3 Bft)
03.12.2018 19:18 11,6 °C 69 % 1005,6 hPa 0,0 mm 8,2 km/h (2 Bft) W 277 ° 0 min 0,000 mm 0,0 UV-I 0 W/m² 6,1 °C 11,6 °C 11,3 km/h (2 Bft)
03.12.2018 19:19 11,6 °C 69 % 1005,5 hPa 0,0 mm 5,0 km/h (1 Bft) W-SW 252 ° 0 min 0,000 mm 0,0 UV-I 0 W/m² 6,1 °C 11,6 °C 6,4 km/h (2 Bft)
03.12.2018 19:20 11,6 °C 69 % 1005,5 hPa 0,0 mm 8,0 km/h (2 Bft) W-SW 240 ° 0 min 0,000 mm 0,0 UV-I 0 W/m² 6,1 °C 11,6 °C 16,1 km/h (3 Bft)
03.12.2018 19:21 11,6 °C 69 % 1005,6 hPa 0,0 mm 4,9 km/h (1 Bft) W-SW 239 ° 0 min 0,000 mm 0,0 UV-I 0 W/m² 6,1 °C 11,6 °C 6,4 km/h (2 Bft)
03.12.2018 19:22 11,6 °C 68 % 1005,5 hPa 0,0 mm 4,0 km/h (1 Bft) W 268 ° 0 min 0,000 mm 0,0 UV-I 0 W/m² 5,9 °C 11,6 °C 6,4 km/h (2 Bft)
03.12.2018 19:23 11,6 °C 68 % 1005,4 hPa 0,0 mm 8,2 km/h (2 Bft) SW 229 ° 0 min 0,000 mm 0,0 UV-I 0 W/m² 5,9 °C 11,6 °C 16,1 km/h (3 Bft)
03.12.2018 19:24 11,6 °C 68 % 1005,5 hPa 0,0 mm 7,2 km/h (2 Bft) W-SW 250 ° 0 min 0,000 mm 0,0 UV-I 0 W/m² 5,9 °C 11,6 °C 14,5 km/h (3 Bft)
03.12.2018 19:25 11,6 °C 68 % 1005,4 hPa 0,0 mm 10,4 km/h (2 Bft) W 264 ° 0 min 0,000 mm 0,0 UV-I 0 W/m² 5,9 °C 11,6 °C 14,5 km/h (3 Bft)
03.12.2018 19:26 11,6 °C 68 % 1005,3 hPa 0,0 mm 9,0 km/h (2 Bft) W-SW 238 ° 0 min 0,000 mm 0,0 UV-I 0 W/m² 5,9 °C 11,6 °C 12,9 km/h (3 Bft)
03.12.2018 19:27 11,6 °C 68 % 1005,3 hPa 0,0 mm 3,9 km/h (1 Bft) S-SW 211 ° 0 min 0,000 mm 0,0 UV-I 0 W/m² 5,9 °C 11,6 °C 8,0 km/h (2 Bft)
03.12.2018 19:28 11,6 °C 68 % 1005,2 hPa 0,0 mm 5,3 km/h (1 Bft) W 264 ° 0 min 0,000 mm 0,0 UV-I 0 W/m² 5,9 °C 11,6 °C 12,9 km/h (3 Bft)
03.12.2018 19:29 11,6 °C 68 % 1005,2 hPa 0,0 mm 5,5 km/h (1 Bft) W-SW 251 ° 0 min 0,000 mm 0,0 UV-I 0 W/m² 5,9 °C 11,6 °C 12,9 km/h (3 Bft)
03.12.2018 19:30 11,6 °C 68 % 1005,1 hPa 0,0 mm 2,5 km/h (1 Bft) SW 227 ° 0 min 0,000 mm 0,0 UV-I 0 W/m² 5,9 °C 11,6 °C 4,8 km/h (1 Bft)
03.12.2018 19:31 11,6 °C 68 % 1005,1 hPa 0,0 mm 4,8 km/h (1 Bft) S-SW 201 ° 0 min 0,000 mm 0,0 UV-I 0 W/m² 5,9 °C 11,6 °C 8,0 km/h (2 Bft)
03.12.2018 19:32 11,6 °C 68 % 1005,0 hPa 0,0 mm 6,1 km/h (2 Bft) W-SW 244 ° 0 min 0,000 mm 0,0 UV-I 0 W/m² 5,9 °C 11,6 °C 11,3 km/h (2 Bft)
03.12.2018 19:33 11,6 °C 68 % 1005,1 hPa 0,0 mm 8,4 km/h (2 Bft) W-SW 239 ° 0 min 0,000 mm 0,0 UV-I 0 W/m² 5,9 °C 11,6 °C 17,7 km/h (3 Bft)
03.12.2018 19:34 11,6 °C 68 % 1005,0 hPa 0,0 mm 9,5 km/h (2 Bft) W-SW 243 ° 0 min 0,000 mm 0,0 UV-I 0 W/m² 5,9 °C 11,6 °C 16,1 km/h (3 Bft)
03.12.2018 19:35 11,6 °C 67 % 1005,0 hPa 0,0 mm 6,0 km/h (2 Bft) W-SW 253 ° 0 min 0,000 mm 0,0 UV-I 0 W/m² 5,7 °C 11,6 °C 11,3 km/h (2 Bft)
03.12.2018 19:36 11,6 °C 68 % 1005,0 hPa 0,0 mm 5,2 km/h (1 Bft) W 265 ° 0 min 0,000 mm 0,0 UV-I 0 W/m² 5,9 °C 11,6 °C 6,4 km/h (2 Bft)
03.12.2018 19:37 11,6 °C 67 % 1005,0 hPa 0,0 mm 3,7 km/h (1 Bft) SW 221 ° 0 min 0,000 mm 0,0 UV-I 0 W/m² 5,7 °C 11,6 °C 6,4 km/h (2 Bft)
03.12.2018 19:38 11,6 °C 67 % 1005,0 hPa 0,0 mm 2,5 km/h (1 Bft) W 266 ° 0 min 0,000 mm 0,0 UV-I 0 W/m² 5,7 °C 11,6 °C 4,8 km/h (1 Bft)
03.12.2018 19:39 11,6 °C 67 % 1005,0 hPa 0,0 mm 1,1 km/h (1 Bft) W-SW 254 ° 0 min 0,000 mm 0,0 UV-I 0 W/m² 5,7 °C 11,6 °C 4,8 km/h (1 Bft)
03.12.2018 19:40 11,6 °C 67 % 1005,0 hPa 0,0 mm 4,6 km/h (1 Bft) W-SW 248 ° 0 min 0,000 mm 0,0 UV-I 0 W/m² 5,7 °C 11,6 °C 6,4 km/h (2 Bft)
03.12.2018 19:41 11,6 °C 67 % 1004,9 hPa 0,0 mm 6,8 km/h (2 Bft) W 281 ° 0 min 0,000 mm 0,0 UV-I 0 W/m² 5,7 °C 11,6 °C 17,7 km/h (3 Bft)
03.12.2018 19:42 11,6 °C 67 % 1005,0 hPa 0,0 mm 11,4 km/h (2 Bft) S-SW 210 ° 0 min 0,000 mm 0,0 UV-I 0 W/m² 5,7 °C 11,6 °C 17,7 km/h (3 Bft)
03.12.2018 19:43 11,6 °C 67 % 1004,9 hPa 0,0 mm 4,3 km/h (1 Bft) S-SW 207 ° 0 min 0,000 mm 0,0 UV-I 0 W/m² 5,7 °C 11,6 °C 6,4 km/h (2 Bft)
03.12.2018 19:44 11,6 °C 67 % 1004,9 hPa 0,0 mm 4,2 km/h (1 Bft) S-SW 210 ° 0 min 0,000 mm 0,0 UV-I 0 W/m² 5,7 °C 11,6 °C 6,4 km/h (2 Bft)
03.12.2018 19:45 11,6 °C 67 % 1004,8 hPa 0,0 mm 4,4 km/h (1 Bft) W-SW 245 ° 0 min 0,000 mm 0,0 UV-I 0 W/m² 5,7 °C 11,6 °C 11,3 km/h (2 Bft)
03.12.2018 19:46 11,6 °C 67 % 1004,9 hPa 0,0 mm 8,0 km/h (2 Bft) W 260 ° 0 min 0,000 mm 0,0 UV-I 0 W/m² 5,7 °C 11,6 °C 12,9 km/h (3 Bft)
03.12.2018 19:47 11,6 °C 67 % 1004,9 hPa 0,0 mm 2,3 km/h (1 Bft) W 261 ° 0 min 0,000 mm 0,0 UV-I 0 W/m² 5,7 °C 11,6 °C 4,8 km/h (1 Bft)
03.12.2018 19:48 11,6 °C 68 % 1004,9 hPa 0,0 mm 2,7 km/h (1 Bft) W-SW 249 ° 0 min 0,000 mm 0,0 UV-I 0 W/m² 5,9 °C 11,6 °C 4,8 km/h (1 Bft)
03.12.2018 19:49 11,6 °C 67 % 1005,0 hPa 0,0 mm 4,5 km/h (1 Bft) W 265 ° 0 min 0,000 mm 0,0 UV-I 0 W/m² 5,7 °C 11,6 °C 6,4 km/h (2 Bft)
03.12.2018 19:50 11,6 °C 68 % 1005,0 hPa 0,0 mm 3,1 km/h (1 Bft) W 263 ° 0 min 0,000 mm 0,0 UV-I 0 W/m² 5,9 °C 11,6 °C 6,4 km/h (2 Bft)
03.12.2018 19:51 11,6 °C 68 % 1004,9 hPa 0,0 mm 3,0 km/h (1 Bft) W 263 ° 0 min 0,000 mm 0,0 UV-I 0 W/m² 5,9 °C 11,6 °C 4,8 km/h (1 Bft)
03.12.2018 19:52 11,6 °C 67 % 1005,0 hPa 0,0 mm 2,0 km/h (1 Bft) W 263 ° 0 min 0,000 mm 0,0 UV-I 0 W/m² 5,7 °C 11,6 °C 3,2 km/h (1 Bft)
03.12.2018 19:53 11,6 °C 67 % 1004,9 hPa 0,0 mm 2,0 km/h (1 Bft) W 263 ° 0 min 0,000 mm 0,0 UV-I 0 W/m² 5,7 °C 11,6 °C 3,2 km/h (1 Bft)
03.12.2018 19:54 11,6 °C 67 % 1004,9 hPa 0,0 mm 2,3 km/h (1 Bft) W 263 ° 0 min 0,000 mm 0,0 UV-I 0 W/m² 5,7 °C 11,6 °C 3,2 km/h (1 Bft)
03.12.2018 19:55 11,6 °C 67 % 1004,9 hPa 0,0 mm 1,1 km/h (1 Bft) W 263 ° 0 min 0,000 mm 0,0 UV-I 0 W/m² 5,7 °C 11,6 °C 3,2 km/h (1 Bft)
03.12.2018 19:56 11,6 °C 67 % 1004,9 hPa 0,0 mm 0,1 km/h (0 Bft) W 263 ° 0 min 0,000 mm 0,0 UV-I 0 W/m² 5,7 °C 11,6 °C 1,6 km/h (1 Bft)
03.12.2018 19:57 11,6 °C 67 % 1004,9 hPa 0,0 mm 2,2 km/h (1 Bft) W-SW 245 ° 0 min 0,000 mm 0,0 UV-I 0 W/m² 5,7 °C 11,6 °C 4,8 km/h (1 Bft)
03.12.2018 19:58 11,6 °C 67 % 1005,0 hPa 0,0 mm 1,7 km/h (1 Bft) W-SW 245 ° 0 min 0,000 mm 0,0 UV-I 0 W/m² 5,7 °C 11,6 °C 3,2 km/h (1 Bft)
03.12.2018 19:59 11,6 °C 67 % 1004,9 hPa 0,0 mm 4,3 km/h (1 Bft) SW 226 ° 0 min 0,000 mm 0,0 UV-I 0 W/m² 5,7 °C 11,6 °C 6,4 km/h (2 Bft)
03.12.2018 20:00 11,6 °C 67 % 1004,9 hPa 0,0 mm 4,6 km/h (1 Bft) W-SW 253 ° 0 min 0,000 mm 0,0 UV-I 0 W/m² 5,7 °C 11,6 °C 6,4 km/h (2 Bft)
03.12.2018 20:01 11,6 °C 67 % 1004,9 hPa 0,0 mm 3,0 km/h (1 Bft) W-SW 238 ° 0 min 0,051 mm 0,0 UV-I 0 W/m² 5,7 °C 11,6 °C 4,8 km/h (1 Bft)
03.12.2018 20:02 11,6 °C 67 % 1004,9 hPa 0,0 mm 1,9 km/h (1 Bft) W-SW 238 ° 0 min 0,000 mm 0,0 UV-I 0 W/m² 5,7 °C 11,6 °C 4,8 km/h (1 Bft)
03.12.2018 20:03 11,6 °C 67 % 1004,9 hPa 0,0 mm 1,2 km/h (1 Bft) W-SW 237 ° 0 min 0,000 mm 0,0 UV-I 0 W/m² 5,7 °C 11,6 °C 4,8 km/h (1 Bft)
03.12.2018 20:04 11,6 °C 67 % 1004,8 hPa 0,0 mm 3,2 km/h (1 Bft) SW 234 ° 0 min 0,000 mm 0,0 UV-I 0 W/m² 5,7 °C 11,6 °C 4,8 km/h (1 Bft)
03.12.2018 20:05 11,5 °C 67 % 1004,8 hPa 0,0 mm 3,2 km/h (1 Bft) SW 234 ° 0 min 0,000 mm 0,0 UV-I 0 W/m² 5,6 °C 11,5 °C 4,8 km/h (1 Bft)
03.12.2018 20:06 11,6 °C 67 % 1004,8 hPa 0,0 mm 2,2 km/h (1 Bft) SW 234 ° 0 min 0,000 mm 0,0 UV-I 0 W/m² 5,7 °C 11,6 °C 3,2 km/h (1 Bft)
03.12.2018 20:07 11,5 °C 67 % 1004,8 hPa 0,0 mm 1,7 km/h (1 Bft) SW 234 ° 0 min 0,000 mm 0,0 UV-I 0 W/m² 5,6 °C 11,5 °C 3,2 km/h (1 Bft)
03.12.2018 20:08 11,5 °C 67 % 1004,8 hPa 0,0 mm 2,4 km/h (1 Bft) SW 234 ° 0 min 0,000 mm 0,0 UV-I 0 W/m² 5,6 °C 11,5 °C 4,8 km/h (1 Bft)
03.12.2018 20:09 11,5 °C 67 % 1004,7 hPa 0,0 mm 2,1 km/h (1 Bft) SW 234 ° 0 min 0,000 mm 0,0 UV-I 0 W/m² 5,6 °C 11,5 °C 3,2 km/h (1 Bft)
03.12.2018 20:10 11,5 °C 68 % 1004,7 hPa 0,0 mm 0,0 km/h (0 Bft) SW 234 ° 0 min 0,000 mm 0,0 UV-I 0 W/m² 5,8 °C 11,5 °C 0,0 km/h (0 Bft)
03.12.2018 20:11 11,5 °C 68 % 1004,8 hPa 0,0 mm 0,1 km/h (0 Bft) SW 234 ° 0 min 0,000 mm 0,0 UV-I 0 W/m² 5,8 °C 11,5 °C 1,6 km/h (1 Bft)
03.12.2018 20:12 11,5 °C 68 % 1004,8 hPa 0,0 mm 1,5 km/h (1 Bft) SW 234 ° 0 min 0,000 mm 0,0 UV-I 0 W/m² 5,8 °C 11,5 °C 1,6 km/h (1 Bft)
03.12.2018 20:13 11,5 °C 68 % 1004,8 hPa 0,0 mm 0,4 km/h (0 Bft) SW 234 ° 0 min 0,000 mm 0,0 UV-I 0 W/m² 5,8 °C 11,5 °C 1,6 km/h (1 Bft)
03.12.2018 20:14 11,4 °C 68 % 1004,8 hPa 0,0 mm 0,0 km/h (0 Bft) SW 234 ° 0 min 0,000 mm 0,0 UV-I 0 W/m² 5,7 °C 11,4 °C 0,0 km/h (0 Bft)
03.12.2018 20:15 11,4 °C 69 % 1004,7 hPa 0,0 mm 0,0 km/h (0 Bft) SW 234 ° 0 min 0,000 mm 0,0 UV-I 0 W/m² 5,9 °C 11,4 °C 0,0 km/h (0 Bft)
03.12.2018 20:16 11,5 °C 69 % 1004,7 hPa 0,0 mm 0,0 km/h (0 Bft) SW 234 ° 0 min 0,000 mm 0,0 UV-I 0 W/m² 6,0 °C 11,5 °C 0,0 km/h (0 Bft)
03.12.2018 20:17 11,4 °C 71 % 1004,7 hPa 0,0 mm 0,0 km/h (0 Bft) SW 234 ° 0 min 0,000 mm 0,0 UV-I 0 W/m² 6,3 °C 11,4 °C 0,0 km/h (0 Bft)
03.12.2018 20:18 11,4 °C 71 % 1004,7 hPa 0,0 mm 0,0 km/h (0 Bft) SW 234 ° 0 min 0,000 mm 0,0 UV-I 0 W/m² 6,3 °C 11,4 °C 0,0 km/h (0 Bft)
03.12.2018 20:19 11,4 °C 71 % 1004,6 hPa 0,0 mm 2,4 km/h (1 Bft) SW 231 ° 0 min 0,000 mm 0,0 UV-I 0 W/m² 6,3 °C 11,4 °C 3,2 km/h (1 Bft)
03.12.2018 20:20 11,4 °C 71 % 1004,7 hPa 0,0 mm 0,1 km/h (0 Bft) SW 231 ° 0 min 0,000 mm 0,0 UV-I 0 W/m² 6,3 °C 11,4 °C 1,6 km/h (1 Bft)
03.12.2018 20:21 11,3 °C 70 % 1004,7 hPa 0,0 mm 3,2 km/h (1 Bft) W-SW 245 ° 0 min 0,000 mm 0,0 UV-I 0 W/m² 6,0 °C 11,3 °C 4,8 km/h (1 Bft)
03.12.2018 20:22 11,3 °C 70 % 1004,7 hPa 0,0 mm 0,0 km/h (0 Bft) W-SW 245 ° 0 min 0,000 mm 0,0 UV-I 0 W/m² 6,0 °C 11,3 °C 0,0 km/h (0 Bft)
03.12.2018 20:23 11,3 °C 70 % 1004,8 hPa 0,0 mm 0,1 km/h (0 Bft) W-SW 245 ° 0 min 0,000 mm 0,0 UV-I 0 W/m² 6,0 °C 11,3 °C 1,6 km/h (1 Bft)
03.12.2018 20:24 11,3 °C 70 % 1004,7 hPa 0,0 mm 0,0 km/h (0 Bft) W-SW 245 ° 0 min 0,000 mm 0,0 UV-I 0 W/m² 6,0 °C 11,3 °C 0,0 km/h (0 Bft)
03.12.2018 20:25 11,2 °C 70 % 1004,7 hPa 0,0 mm 3,4 km/h (1 Bft) W-SW 249 ° 0 min 0,000 mm 0,0 UV-I 0 W/m² 5,9 °C 11,2 °C 4,8 km/h (1 Bft)
03.12.2018 20:26 11,2 °C 70 % 1004,8 hPa 0,0 mm 5,9 km/h (2 Bft) W 275 ° 0 min 0,000 mm 0,0 UV-I 0 W/m² 5,9 °C 11,2 °C 11,3 km/h (2 Bft)
03.12.2018 20:27 11,2 °C 70 % 1004,7 hPa 0,0 mm 2,7 km/h (1 Bft) W 275 ° 0 min 0,000 mm 0,0 UV-I 0 W/m² 5,9 °C 11,2 °C 4,8 km/h (1 Bft)
03.12.2018 20:28 11,2 °C 70 % 1004,8 hPa 0,0 mm 5,2 km/h (1 Bft) W-SW 249 ° 0 min 0,000 mm 0,0 UV-I 0 W/m² 5,9 °C 11,2 °C 9,7 km/h (2 Bft)
03.12.2018 20:29 11,2 °C 70 % 1004,7 hPa 0,0 mm 4,7 km/h (1 Bft) W 276 ° 0 min 0,000 mm 0,0 UV-I 0 W/m² 5,9 °C 11,2 °C 6,4 km/h (2 Bft)
03.12.2018 20:30 11,1 °C 70 % 1004,7 hPa 0,0 mm 6,1 km/h (2 Bft) W 267 ° 0 min 0,000 mm 0,0 UV-I 0 W/m² 5,8 °C 11,1 °C 9,7 km/h (2 Bft)
03.12.2018 20:31 11,1 °C 70 % 1004,8 hPa 0,0 mm 5,0 km/h (1 Bft) W-SW 250 ° 0 min 0,000 mm 0,0 UV-I 0 W/m² 5,8 °C 11,1 °C 6,4 km/h (2 Bft)
03.12.2018 20:32 11,1 °C 70 % 1004,8 hPa 0,0 mm 3,8 km/h (1 Bft) W-SW 250 ° 0 min 0,000 mm 0,0 UV-I 0 W/m² 5,8 °C 11,1 °C 6,4 km/h (2 Bft)
03.12.2018 20:33 11,1 °C 70 % 1004,8 hPa 0,0 mm 4,6 km/h (1 Bft) W 266 ° 0 min 0,000 mm 0,0 UV-I 0 W/m² 5,8 °C 11,1 °C 6,4 km/h (2 Bft)
03.12.2018 20:34 11,0 °C 70 % 1004,8 hPa 0,0 mm 5,0 km/h (1 Bft) W-SW 248 ° 0 min 0,000 mm 0,0 UV-I 0 W/m² 5,7 °C 11,0 °C 11,3 km/h (2 Bft)
03.12.2018 20:35 11,0 °C 70 % 1004,8 hPa 0,0 mm 8,4 km/h (2 Bft) W 266 ° 0 min 0,000 mm 0,0 UV-I 0 W/m² 5,7 °C 11,0 °C 16,1 km/h (3 Bft)
03.12.2018 20:36 11,0 °C 70 % 1004,8 hPa 0,0 mm 9,2 km/h (2 Bft) W-SW 257 ° 0 min 0,000 mm 0,0 UV-I 0 W/m² 5,7 °C 11,0 °C 12,9 km/h (3 Bft)
03.12.2018 20:37 11,0 °C 70 % 1004,9 hPa 0,0 mm 5,7 km/h (1 Bft) W 279 ° 0 min 0,000 mm 0,0 UV-I 0 W/m² 5,7 °C 11,0 °C 11,3 km/h (2 Bft)
03.12.2018 20:38 11,0 °C 70 % 1005,0 hPa 0,0 mm 8,0 km/h (2 Bft) W 262 ° 0 min 0,000 mm 0,0 UV-I 0 W/m² 5,7 °C 11,0 °C 11,3 km/h (2 Bft)
03.12.2018 20:39 11,0 °C 71 % 1005,0 hPa 0,0 mm 7,9 km/h (2 Bft) W-NW 286 ° 0 min 0,000 mm 0,0 UV-I 0 W/m² 5,9 °C 11,0 °C 12,9 km/h (3 Bft)
03.12.2018 20:40 11,0 °C 72 % 1005,0 hPa 0,0 mm 6,0 km/h (2 Bft) W-SW 242 ° 0 min 0,000 mm 0,0 UV-I 0 W/m² 6,2 °C 11,0 °C 9,7 km/h (2 Bft)
03.12.2018 20:41 11,0 °C 72 % 1005,0 hPa 0,0 mm 8,1 km/h (2 Bft) W-SW 256 ° 0 min 0,000 mm 0,0 UV-I 0 W/m² 6,2 °C 11,0 °C 12,9 km/h (3 Bft)
03.12.2018 20:42 11,0 °C 73 % 1005,1 hPa 0,0 mm 9,9 km/h (2 Bft) W-SW 257 ° 0 min 0,000 mm 0,0 UV-I 0 W/m² 6,4 °C 11,0 °C 12,9 km/h (3 Bft)
03.12.2018 20:43 11,0 °C 73 % 1005,1 hPa 0,0 mm 9,2 km/h (2 Bft) W 259 ° 0 min 0,000 mm 0,0 UV-I 0 W/m² 6,4 °C 11,0 °C 12,9 km/h (3 Bft)
03.12.2018 20:44 11,0 °C 74 % 1005,1 hPa 0,0 mm 7,8 km/h (2 Bft) W 273 ° 0 min 0,000 mm 0,0 UV-I 0 W/m² 6,5 °C 11,0 °C 11,3 km/h (2 Bft)
03.12.2018 20:45 11,0 °C 75 % 1005,2 hPa 0,0 mm 5,9 km/h (2 Bft) W-SW 238 ° 0 min 0,000 mm 0,0 UV-I 0 W/m² 6,7 °C 11,0 °C 9,7 km/h (2 Bft)
03.12.2018 20:46 11,0 °C 76 % 1005,1 hPa 0,0 mm 8,6 km/h (2 Bft) S-SW 202 ° 0 min 0,000 mm 0,0 UV-I 0 W/m² 6,9 °C 11,0 °C 16,1 km/h (3 Bft)
03.12.2018 20:47 10,9 °C 76 % 1005,4 hPa 0,0 mm 14,6 km/h (3 Bft) SW 223 ° 0 min 0,000 mm 0,0 UV-I 0 W/m² 6,8 °C 10,9 °C 37,0 km/h (5 Bft)
03.12.2018 20:48 10,9 °C 75 % 1005,4 hPa 0,2 mm 14,7 km/h (3 Bft) W-SW 256 ° 0 min 0,000 mm 0,0 UV-I 0 W/m² 6,6 °C 10,9 °C 20,9 km/h (4 Bft)
03.12.2018 20:49 10,9 °C 76 % 1005,4 hPa 0,0 mm 16,1 km/h (3 Bft) W-SW 249 ° 0 min 0,000 mm 0,0 UV-I 0 W/m² 6,8 °C 10,9 °C 25,7 km/h (4 Bft)
03.12.2018 20:50 10,8 °C 77 % 1005,4 hPa 0,0 mm 20,8 km/h (4 Bft) W-NW 290 ° 0 min 0,000 mm 0,0 UV-I 0 W/m² 6,9 °C 10,8 °C 33,8 km/h (5 Bft)
03.12.2018 20:51 10,8 °C 77 % 1005,4 hPa 0,0 mm 21,1 km/h (4 Bft) W 271 ° 0 min 0,000 mm 0,0 UV-I 0 W/m² 6,9 °C 10,8 °C 30,6 km/h (5 Bft)
03.12.2018 20:52 10,8 °C 78 % 1005,5 hPa 0,0 mm 20,5 km/h (4 Bft) W 260 ° 0 min 0,000 mm 0,0 UV-I 0 W/m² 7,1 °C 10,8 °C 29,0 km/h (5 Bft)
03.12.2018 20:53 10,7 °C 79 % 1005,5 hPa 0,2 mm 19,6 km/h (3 Bft) SW 236 ° 0 min 0,000 mm 0,0 UV-I 0 W/m² 7,2 °C 10,7 °C 25,7 km/h (4 Bft)
03.12.2018 20:54 10,7 °C 79 % 1005,5 hPa 0,0 mm 14,1 km/h (3 Bft) W-SW 256 ° 0 min 0,000 mm 0,0 UV-I 0 W/m² 7,2 °C 10,7 °C 20,9 km/h (4 Bft)
03.12.2018 20:55 10,7 °C 80 % 1005,5 hPa 0,0 mm 15,6 km/h (3 Bft) W-NW 295 ° 0 min 0,000 mm 0,0 UV-I 0 W/m² 7,4 °C 10,7 °C 29,0 km/h (5 Bft)
03.12.2018 20:56 10,6 °C 80 % 1005,5 hPa 0,0 mm 16,3 km/h (3 Bft) W-SW 252 ° 0 min 0,000 mm 0,0 UV-I 0 W/m² 7,3 °C 10,6 °C 27,4 km/h (4 Bft)
03.12.2018 20:57 10,6 °C 81 % 1005,6 hPa 0,2 mm 17,0 km/h (3 Bft) W 269 ° 0 min 0,000 mm 0,0 UV-I 0 W/m² 7,5 °C 10,6 °C 25,7 km/h (4 Bft)
03.12.2018 20:58 10,5 °C 81 % 1005,7 hPa 0,0 mm 15,5 km/h (3 Bft) W-NW 296 ° 0 min 0,000 mm 0,0 UV-I 0 W/m² 7,4 °C 10,5 °C 20,9 km/h (4 Bft)
03.12.2018 20:59 10,4 °C 82 % 1005,6 hPa 0,2 mm 15,0 km/h (3 Bft) W-SW 255 ° 0 min 0,000 mm 0,0 UV-I 0 W/m² 7,5 °C 10,4 °C 20,9 km/h (4 Bft)
03.12.2018 21:00 10,3 °C 82 % 1005,6 hPa 0,0 mm 26,0 km/h (4 Bft) W-SW 257 ° 0 min 0,000 mm 0,0 UV-I 0 W/m² 7,4 °C 10,3 °C 33,8 km/h (5 Bft)
03.12.2018 21:01 10,3 °C 82 % 1005,7 hPa 0,0 mm 20,4 km/h (4 Bft) W-NW 289 ° 0 min 0,025 mm 0,0 UV-I 0 W/m² 7,4 °C 10,3 °C 27,4 km/h (4 Bft)
03.12.2018 21:02 10,3 °C 83 % 1005,6 hPa 0,2 mm 16,0 km/h (3 Bft) W 276 ° 0 min 0,000 mm 0,0 UV-I 0 W/m² 7,5 °C 10,3 °C 20,9 km/h (4 Bft)
03.12.2018 21:03 10,2 °C 83 % 1005,6 hPa 0,0 mm 18,8 km/h (3 Bft) NW 314 ° 0 min 0,000 mm 0,0 UV-I 0 W/m² 7,4 °C 10,2 °C 25,7 km/h (4 Bft)
03.12.2018 21:04 10,2 °C 84 % 1005,6 hPa 0,2 mm 17,6 km/h (3 Bft) W 275 ° 0 min 0,000 mm 0,0 UV-I 0 W/m² 7,6 °C 10,2 °C 24,1 km/h (4 Bft)
03.12.2018 21:05 10,1 °C 84 % 1005,6 hPa 0,0 mm 15,8 km/h (3 Bft) W-NW 294 ° 0 min 0,000 mm 0,0 UV-I 0 W/m² 7,5 °C 10,1 °C 22,5 km/h (4 Bft)
03.12.2018 21:06 10,0 °C 84 % 1005,6 hPa 0,0 mm 20,2 km/h (4 Bft) W 265 ° 0 min 0,000 mm 0,0 UV-I 0 W/m² 7,4 °C 7,4 °C 29,0 km/h (5 Bft)
03.12.2018 21:07 10,0 °C 85 % 1005,5 hPa 0,0 mm 11,9 km/h (2 Bft) W-SW 258 ° 0 min 0,000 mm 0,0 UV-I 0 W/m² 7,6 °C 8,3 °C 16,1 km/h (3 Bft)
03.12.2018 21:08 9,9 °C 85 % 1005,6 hPa 0,0 mm 12,9 km/h (3 Bft) W 259 ° 0 min 0,000 mm 0,0 UV-I 0 W/m² 7,5 °C 8,1 °C 24,1 km/h (4 Bft)
03.12.2018 21:09 9,9 °C 85 % 1005,5 hPa 0,0 mm 18,7 km/h (3 Bft) W-SW 258 ° 0 min 0,000 mm 0,0 UV-I 0 W/m² 7,5 °C 7,4 °C 25,7 km/h (4 Bft)
03.12.2018 21:10 9,8 °C 86 % 1005,5 hPa 0,2 mm 13,4 km/h (3 Bft) W 263 ° 0 min 0,000 mm 0,0 UV-I 0 W/m² 7,6 °C 7,9 °C 22,5 km/h (4 Bft)
03.12.2018 21:11 9,8 °C 86 % 1005,5 hPa 0,0 mm 10,3 km/h (2 Bft) S-SW 210 ° 0 min 0,000 mm 0,0 UV-I 0 W/m² 7,6 °C 8,3 °C 17,7 km/h (3 Bft)
03.12.2018 21:12 9,8 °C 86 % 1005,4 hPa 0,0 mm 6,9 km/h (2 Bft) S-SW 200 ° 0 min 0,000 mm 0,0 UV-I 0 W/m² 7,6 °C 9,0 °C 11,3 km/h (2 Bft)
03.12.2018 21:13 9,7 °C 86 % 1005,4 hPa 0,0 mm 7,1 km/h (2 Bft) SW 235 ° 0 min 0,000 mm 0,0 UV-I 0 W/m² 7,5 °C 8,9 °C 9,7 km/h (2 Bft)
03.12.2018 21:14 9,7 °C 87 % 1005,4 hPa 0,0 mm 8,2 km/h (2 Bft) W-SW 251 ° 0 min 0,000 mm 0,0 UV-I 0 W/m² 7,6 °C 8,6 °C 11,3 km/h (2 Bft)
03.12.2018 21:15 9,7 °C 87 % 1005,4 hPa 0,2 mm 9,6 km/h (2 Bft) W 259 ° 0 min 0,000 mm 0,0 UV-I 0 W/m² 7,6 °C 8,3 °C 12,9 km/h (3 Bft)
03.12.2018 21:16 9,6 °C 87 % 1005,4 hPa 0,0 mm 7,9 km/h (2 Bft) W 259 ° 0 min 0,000 mm 0,0 UV-I 0 W/m² 7,5 °C 8,6 °C 11,3 km/h (2 Bft)
03.12.2018 21:17 9,6 °C 87 % 1005,4 hPa 0,0 mm 5,2 km/h (1 Bft) SW 232 ° 0 min 0,000 mm 0,0 UV-I 0 W/m² 7,5 °C 9,2 °C 6,4 km/h (2 Bft)
03.12.2018 21:18 9,6 °C 88 % 1005,4 hPa 0,0 mm 7,2 km/h (2 Bft) W 259 ° 0 min 0,000 mm 0,0 UV-I 0 W/m² 7,7 °C 8,7 °C 11,3 km/h (2 Bft)
03.12.2018 21:19 9,6 °C 88 % 1005,5 hPa 0,0 mm 10,4 km/h (2 Bft) W 270 ° 0 min 0,000 mm 0,0 UV-I 0 W/m² 7,7 °C 8,1 °C 14,5 km/h (3 Bft)
03.12.2018 21:20 9,5 °C 88 % 1005,6 hPa 0,0 mm 9,9 km/h (2 Bft) W 277 ° 0 min 0,000 mm 0,0 UV-I 0 W/m² 7,6 °C 8,1 °C 19,3 km/h (3 Bft)
03.12.2018 21:21 9,4 °C 88 % 1005,7 hPa 0,0 mm 7,9 km/h (2 Bft) W-NW 302 ° 0 min 0,000 mm 0,0 UV-I 0 W/m² 7,5 °C 8,3 °C 12,9 km/h (3 Bft)
03.12.2018 21:22 9,4 °C 88 % 1005,8 hPa 0,0 mm 6,5 km/h (2 Bft) W 260 ° 0 min 0,000 mm 0,0 UV-I 0 W/m² 7,5 °C 8,7 °C 11,3 km/h (2 Bft)
03.12.2018 21:23 9,3 °C 88 % 1005,8 hPa 0,2 mm 7,1 km/h (2 Bft) W 271 ° 0 min 0,000 mm 0,0 UV-I 0 W/m² 7,4 °C 8,4 °C 12,9 km/h (3 Bft)
03.12.2018 21:24 9,3 °C 88 % 1005,9 hPa 0,0 mm 10,6 km/h (2 Bft) W 270 ° 0 min 0,000 mm 0,0 UV-I 0 W/m² 7,4 °C 7,7 °C 14,5 km/h (3 Bft)
03.12.2018 21:25 9,3 °C 88 % 1005,9 hPa 0,0 mm 8,3 km/h (2 Bft) W-SW 250 ° 0 min 0,000 mm 0,0 UV-I 0 W/m² 7,4 °C 8,1 °C 12,9 km/h (3 Bft)
03.12.2018 21:26 9,3 °C 88 % 1006,0 hPa 0,0 mm 9,0 km/h (2 Bft) W 260 ° 0 min 0,000 mm 0,0 UV-I 0 W/m² 7,4 °C 8,0 °C 14,5 km/h (3 Bft)
03.12.2018 21:27 9,3 °C 89 % 1006,1 hPa 0,2 mm 11,8 km/h (2 Bft) W-SW 258 ° 0 min 0,000 mm 0,0 UV-I 0 W/m² 7,6 °C 7,5 °C 19,3 km/h (3 Bft)
03.12.2018 21:28 9,2 °C 89 % 1006,1 hPa 0,0 mm 12,3 km/h (3 Bft) W-SW 253 ° 0 min 0,000 mm 0,0 UV-I 0 W/m² 7,5 °C 7,3 °C 19,3 km/h (3 Bft)
03.12.2018 21:29 9,2 °C 89 % 1006,0 hPa 0,0 mm 10,9 km/h (2 Bft) W-SW 258 ° 0 min 0,000 mm 0,0 UV-I 0 W/m² 7,5 °C 7,5 °C 17,7 km/h (3 Bft)
03.12.2018 21:30 9,2 °C 89 % 1006,0 hPa 0,2 mm 8,6 km/h (2 Bft) W-SW 238 ° 0 min 0,000 mm 0,0 UV-I 0 W/m² 7,5 °C 7,9 °C 16,1 km/h (3 Bft)
03.12.2018 21:31 9,1 °C 89 % 1006,1 hPa 0,0 mm 13,9 km/h (3 Bft) W 259 ° 0 min 0,000 mm 0,0 UV-I 0 W/m² 7,4 °C 6,9 °C 20,9 km/h (4 Bft)
03.12.2018 21:32 9,1 °C 89 % 1006,2 hPa 0,0 mm 13,9 km/h (3 Bft) W 277 ° 0 min 0,000 mm 0,0 UV-I 0 W/m² 7,4 °C 6,9 °C 17,7 km/h (3 Bft)
03.12.2018 21:33 9,1 °C 90 % 1006,1 hPa 0,0 mm 10,5 km/h (2 Bft) SW 232 ° 0 min 0,000 mm 0,0 UV-I 0 W/m² 7,5 °C 7,5 °C 17,7 km/h (3 Bft)
03.12.2018 21:34 9,0 °C 90 % 1006,2 hPa 0,0 mm 10,4 km/h (2 Bft) W 265 ° 0 min 0,000 mm 0,0 UV-I 0 W/m² 7,4 °C 7,4 °C 12,9 km/h (3 Bft)
03.12.2018 21:35 9,0 °C 90 % 1006,2 hPa 0,0 mm 10,7 km/h (2 Bft) W-SW 248 ° 0 min 0,000 mm 0,0 UV-I 0 W/m² 7,4 °C 7,3 °C 16,1 km/h (3 Bft)
03.12.2018 21:36 9,0 °C 90 % 1006,3 hPa 0,2 mm 13,7 km/h (3 Bft) W 267 ° 0 min 0,000 mm 0,0 UV-I 0 W/m² 7,4 °C 6,9 °C 20,9 km/h (4 Bft)
03.12.2018 21:37 9,0 °C 90 % 1006,4 hPa 0,0 mm 10,0 km/h (2 Bft) W 264 ° 0 min 0,000 mm 0,0 UV-I 0 W/m² 7,4 °C 7,4 °C 17,7 km/h (3 Bft)
03.12.2018 21:38 8,9 °C 90 % 1006,4 hPa 0,0 mm 15,6 km/h (3 Bft) W 276 ° 0 min 0,000 mm 0,0 UV-I 0 W/m² 7,4 °C 6,5 °C 19,3 km/h (3 Bft)
03.12.2018 21:39 8,9 °C 90 % 1006,5 hPa 0,0 mm 14,1 km/h (3 Bft) W 259 ° 0 min 0,000 mm 0,0 UV-I 0 W/m² 7,4 °C 6,7 °C 22,5 km/h (4 Bft)
03.12.2018 21:40 8,9 °C 90 % 1006,6 hPa 0,0 mm 13,9 km/h (3 Bft) W-SW 241 ° 0 min 0,000 mm 0,0 UV-I 0 W/m² 7,4 °C 6,7 °C 24,1 km/h (4 Bft)
03.12.2018 21:41 8,9 °C 90 % 1006,7 hPa 0,0 mm 17,1 km/h (3 Bft) W 263 ° 0 min 0,000 mm 0,0 UV-I 0 W/m² 7,4 °C 6,3 °C 27,4 km/h (4 Bft)
03.12.2018 21:42 8,9 °C 90 % 1006,6 hPa 0,0 mm 15,8 km/h (3 Bft) SW 218 ° 0 min 0,000 mm 0,0 UV-I 0 W/m² 7,4 °C 6,5 °C 20,9 km/h (4 Bft)
03.12.2018 21:43 8,8 °C 90 % 1006,7 hPa 0,2 mm 26,0 km/h (4 Bft) W-SW 252 ° 0 min 0,000 mm 0,0 UV-I 0 W/m² 7,3 °C 5,3 °C 46,7 km/h (6 Bft)
03.12.2018 21:44 8,8 °C 90 % 1006,7 hPa 0,0 mm 16,7 km/h (3 Bft) W-SW 256 ° 0 min 0,000 mm 0,0 UV-I 0 W/m² 7,3 °C 6,2 °C 24,1 km/h (4 Bft)
03.12.2018 21:45 8,8 °C 90 % 1006,7 hPa 0,0 mm 14,6 km/h (3 Bft) W 277 ° 0 min 0,000 mm 0,0 UV-I 0 W/m² 7,3 °C 6,5 °C 27,4 km/h (4 Bft)
03.12.2018 21:46 8,8 °C 90 % 1006,6 hPa 0,0 mm 16,6 km/h (3 Bft) W 265 ° 0 min 0,000 mm 0,0 UV-I 0 W/m² 7,3 °C 6,2 °C 29,0 km/h (5 Bft)
03.12.2018 21:47 8,8 °C 90 % 1006,6 hPa 0,0 mm 20,6 km/h (4 Bft) W-SW 249 ° 0 min 0,000 mm 0,0 UV-I 0 W/m² 7,3 °C 5,8 °C 29,0 km/h (5 Bft)
03.12.2018 21:48 8,8 °C 90 % 1006,7 hPa 0,0 mm 20,7 km/h (4 Bft) W 271 ° 0 min 0,000 mm 0,0 UV-I 0 W/m² 7,3 °C 5,8 °C 27,4 km/h (4 Bft)
03.12.2018 21:49 8,8 °C 90 % 1006,6 hPa 0,0 mm 19,0 km/h (3 Bft) W 279 ° 0 min 0,000 mm 0,0 UV-I 0 W/m² 7,3 °C 6,0 °C 29,0 km/h (5 Bft)
03.12.2018 21:50 8,7 °C 90 % 1006,7 hPa 0,0 mm 17,7 km/h (3 Bft) W-SW 258 ° 0 min 0,000 mm 0,0 UV-I 0 W/m² 7,2 °C 6,0 °C 24,1 km/h (4 Bft)
03.12.2018 21:51 8,7 °C 90 % 1006,7 hPa 0,0 mm 20,4 km/h (4 Bft) W-SW 255 ° 0 min 0,000 mm 0,0 UV-I 0 W/m² 7,2 °C 5,7 °C 30,6 km/h (5 Bft)
03.12.2018 21:52 8,7 °C 90 % 1006,8 hPa 0,0 mm 17,4 km/h (3 Bft) W-SW 258 ° 0 min 0,000 mm 0,0 UV-I 0 W/m² 7,2 °C 6,0 °C 24,1 km/h (4 Bft)
03.12.2018 21:53 8,7 °C 90 % 1006,9 hPa 0,0 mm 12,5 km/h (3 Bft) W-NW 299 ° 0 min 0,000 mm 0,0 UV-I 0 W/m² 7,2 °C 6,7 °C 14,5 km/h (3 Bft)
03.12.2018 21:54 8,7 °C 90 % 1006,9 hPa 0,0 mm 10,1 km/h (2 Bft) W-SW 252 ° 0 min 0,000 mm 0,0 UV-I 0 W/m² 7,2 °C 7,1 °C 19,3 km/h (3 Bft)
03.12.2018 21:55 8,7 °C 90 % 1006,9 hPa 0,0 mm 14,1 km/h (3 Bft) W 261 ° 0 min 0,000 mm 0,0 UV-I 0 W/m² 7,2 °C 6,4 °C 30,6 km/h (5 Bft)
03.12.2018 21:56 8,7 °C 90 % 1006,9 hPa 0,0 mm 18,5 km/h (3 Bft) W-SW 255 ° 0 min 0,000 mm 0,0 UV-I 0 W/m² 7,2 °C 5,9 °C 27,4 km/h (4 Bft)
03.12.2018 21:57 8,7 °C 90 % 1007,0 hPa 0,0 mm 21,4 km/h (4 Bft) W-SW 253 ° 0 min 0,000 mm 0,0 UV-I 0 W/m² 7,2 °C 5,6 °C 27,4 km/h (4 Bft)
03.12.2018 21:58 8,6 °C 89 % 1007,0 hPa 0,0 mm 17,7 km/h (3 Bft) W 272 ° 0 min 0,000 mm 0,0 UV-I 0 W/m² 6,9 °C 5,9 °C 22,5 km/h (4 Bft)
03.12.2018 21:59 8,6 °C 89 % 1007,0 hPa 0,0 mm 19,9 km/h (4 Bft) W-SW 257 ° 0 min 0,000 mm 0,0 UV-I 0 W/m² 6,9 °C 5,6 °C 27,4 km/h (4 Bft)
03.12.2018 22:00 8,7 °C 89 % 1007,1 hPa 0,2 mm 15,8 km/h (3 Bft) W-NW 296 ° 0 min 0,000 mm 0,0 UV-I 0 W/m² 7,0 °C 6,2 °C 24,1 km/h (4 Bft)
03.12.2018 22:01 8,6 °C 89 % 1007,0 hPa 0,0 mm 14,2 km/h (3 Bft) W-SW 248 ° 0 min 0,026 mm 0,0 UV-I 0 W/m² 6,9 °C 6,3 °C 22,5 km/h (4 Bft)
03.12.2018 22:02 8,6 °C 89 % 1007,0 hPa 0,0 mm 21,7 km/h (4 Bft) W 278 ° 0 min 0,000 mm 0,0 UV-I 0 W/m² 6,9 °C 5,4 °C 27,4 km/h (4 Bft)
03.12.2018 22:03 8,6 °C 89 % 1007,0 hPa 0,0 mm 20,0 km/h (4 Bft) W 261 ° 0 min 0,000 mm 0,0 UV-I 0 W/m² 6,9 °C 5,6 °C 38,6 km/h (5 Bft)
03.12.2018 22:04 8,6 °C 89 % 1006,9 hPa 0,0 mm 28,0 km/h (4 Bft) W 270 ° 0 min 0,000 mm 0,0 UV-I 0 W/m² 6,9 °C 4,9 °C 40,2 km/h (6 Bft)
03.12.2018 22:05 8,6 °C 88 % 1007,0 hPa 0,0 mm 19,2 km/h (3 Bft) W-SW 244 ° 0 min 0,000 mm 0,0 UV-I 0 W/m² 6,7 °C 5,7 °C 27,4 km/h (4 Bft)
03.12.2018 22:06 8,6 °C 88 % 1007,0 hPa 0,0 mm 19,8 km/h (3 Bft) W 280 ° 0 min 0,000 mm 0,0 UV-I 0 W/m² 6,7 °C 5,6 °C 25,7 km/h (4 Bft)
03.12.2018 22:07 8,6 °C 88 % 1007,0 hPa 0,0 mm 21,3 km/h (4 Bft) W 261 ° 0 min 0,000 mm 0,0 UV-I 0 W/m² 6,7 °C 5,5 °C 38,6 km/h (5 Bft)
03.12.2018 22:08 8,6 °C 88 % 1007,1 hPa 0,0 mm 23,9 km/h (4 Bft) W 269 ° 0 min 0,000 mm 0,0 UV-I 0 W/m² 6,7 °C 5,2 °C 38,6 km/h (5 Bft)
03.12.2018 22:09 8,6 °C 88 % 1006,9 hPa 0,0 mm 22,3 km/h (4 Bft) W-NW 285 ° 0 min 0,000 mm 0,0 UV-I 0 W/m² 6,7 °C 5,4 °C 40,2 km/h (6 Bft)
03.12.2018 22:10 8,6 °C 87 % 1006,9 hPa 0,0 mm 24,5 km/h (4 Bft) W-SW 251 ° 0 min 0,000 mm 0,0 UV-I 0 W/m² 6,6 °C 5,2 °C 40,2 km/h (6 Bft)
03.12.2018 22:11 8,5 °C 87 % 1006,9 hPa 0,0 mm 25,7 km/h (4 Bft) W 260 ° 0 min 0,000 mm 0,0 UV-I 0 W/m² 6,5 °C 5,0 °C 35,4 km/h (5 Bft)
03.12.2018 22:12 8,6 °C 87 % 1007,1 hPa 0,0 mm 26,8 km/h (4 Bft) W 261 ° 0 min 0,000 mm 0,0 UV-I 0 W/m² 6,6 °C 5,0 °C 35,4 km/h (5 Bft)
03.12.2018 22:13 8,6 °C 87 % 1007,0 hPa 0,0 mm 20,4 km/h (4 Bft) W 275 ° 0 min 0,000 mm 0,0 UV-I 0 W/m² 6,6 °C 5,6 °C 27,4 km/h (4 Bft)
03.12.2018 22:14 8,6 °C 87 % 1007,0 hPa 0,0 mm 24,0 km/h (4 Bft) W 275 ° 0 min 0,000 mm 0,0 UV-I 0 W/m² 6,6 °C 5,2 °C 40,2 km/h (6 Bft)
03.12.2018 22:15 8,6 °C 87 % 1007,1 hPa 0,0 mm 21,2 km/h (4 Bft) W 265 ° 0 min 0,000 mm 0,0 UV-I 0 W/m² 6,6 °C 5,5 °C 29,0 km/h (5 Bft)
03.12.2018 22:16 8,5 °C 87 % 1007,1 hPa 0,0 mm 19,6 km/h (3 Bft) W 263 ° 0 min 0,000 mm 0,0 UV-I 0 W/m² 6,5 °C 5,5 °C 25,7 km/h (4 Bft)
03.12.2018 22:17 8,5 °C 87 % 1007,1 hPa 0,0 mm 21,4 km/h (4 Bft) W 271 ° 0 min 0,000 mm 0,0 UV-I 0 W/m² 6,5 °C 5,3 °C 29,0 km/h (5 Bft)
03.12.2018 22:18 8,5 °C 87 % 1007,1 hPa 0,0 mm 21,3 km/h (4 Bft) W 272 ° 0 min 0,000 mm 0,0 UV-I 0 W/m² 6,5 °C 5,4 °C 27,4 km/h (4 Bft)
03.12.2018 22:19 8,4 °C 86 % 1007,1 hPa 0,0 mm 18,2 km/h (3 Bft) W-SW 248 ° 0 min 0,000 mm 0,0 UV-I 0 W/m² 6,2 °C 5,6 °C 25,7 km/h (4 Bft)
03.12.2018 22:20 8,4 °C 86 % 1007,3 hPa 0,0 mm 24,3 km/h (4 Bft) W-SW 258 ° 0 min 0,000 mm 0,0 UV-I 0 W/m² 6,2 °C 4,9 °C 37,0 km/h (5 Bft)
03.12.2018 22:21 8,4 °C 86 % 1007,1 hPa 0,0 mm 30,9 km/h (5 Bft) W-NW 282 ° 0 min 0,000 mm 0,0 UV-I 0 W/m² 6,2 °C 4,4 °C 57,9 km/h (7 Bft)
03.12.2018 22:22 8,4 °C 86 % 1007,2 hPa 0,0 mm 33,8 km/h (5 Bft) W 276 ° 0 min 0,000 mm 0,0 UV-I 0 W/m² 6,2 °C 4,2 °C 51,5 km/h (7 Bft)
03.12.2018 22:23 8,4 °C 86 % 1007,1 hPa 0,0 mm 21,2 km/h (4 Bft) W-SW 255 ° 0 min 0,000 mm 0,0 UV-I 0 W/m² 6,2 °C 5,2 °C 32,2 km/h (5 Bft)
03.12.2018 22:25 8,4 °C 86 % 1007,1 hPa 0,0 mm 24,8 km/h (4 Bft) W 278 ° 0 min 0,000 mm 0,0 UV-I 0 W/m² 6,2 °C 4,9 °C 32,2 km/h (5 Bft)
03.12.2018 22:26 8,4 °C 86 % 1007,3 hPa 0,0 mm 20,4 km/h (4 Bft) W-NW 286 ° 0 min 0,000 mm 0,0 UV-I 0 W/m² 6,2 °C 5,3 °C 27,4 km/h (4 Bft)
03.12.2018 22:27 8,4 °C 86 % 1007,3 hPa 0,0 mm 17,4 km/h (3 Bft) W 260 ° 0 min 0,000 mm 0,0 UV-I 0 W/m² 6,2 °C 5,6 °C 24,1 km/h (4 Bft)
03.12.2018 22:28 8,4 °C 86 % 1007,3 hPa 0,0 mm 19,9 km/h (4 Bft) W 260 ° 0 min 0,000 mm 0,0 UV-I 0 W/m² 6,2 °C 5,4 °C 24,1 km/h (4 Bft)
03.12.2018 22:29 8,4 °C 86 % 1007,3 hPa 0,0 mm 20,3 km/h (4 Bft) W 263 ° 0 min 0,000 mm 0,0 UV-I 0 W/m² 6,2 °C 5,3 °C 29,0 km/h (5 Bft)
03.12.2018 22:30 8,4 °C 86 % 1007,3 hPa 0,0 mm 30,7 km/h (5 Bft) W 268 ° 0 min 0,000 mm 0,0 UV-I 0 W/m² 6,2 °C 4,4 °C 46,7 km/h (6 Bft)
03.12.2018 22:31 8,4 °C 85 % 1007,3 hPa 0,0 mm 32,6 km/h (5 Bft) W 259 ° 0 min 0,000 mm 0,0 UV-I 0 W/m² 6,0 °C 4,3 °C 49,9 km/h (6 Bft)
03.12.2018 22:32 8,4 °C 85 % 1007,3 hPa 0,0 mm 19,0 km/h (3 Bft) W-NW 285 ° 0 min 0,000 mm 0,0 UV-I 0 W/m² 6,0 °C 5,5 °C 27,4 km/h (4 Bft)
03.12.2018 22:33 8,4 °C 85 % 1007,3 hPa 0,0 mm 25,0 km/h (4 Bft) W-SW 251 ° 0 min 0,000 mm 0,0 UV-I 0 W/m² 6,0 °C 4,9 °C 43,5 km/h (6 Bft)
03.12.2018 22:34 8,4 °C 85 % 1007,3 hPa 0,0 mm 20,0 km/h (4 Bft) W-SW 254 ° 0 min 0,000 mm 0,0 UV-I 0 W/m² 6,0 °C 5,4 °C 25,7 km/h (4 Bft)
03.12.2018 22:35 8,4 °C 85 % 1007,4 hPa 0,0 mm 25,6 km/h (4 Bft) W-SW 243 ° 0 min 0,000 mm 0,0 UV-I 0 W/m² 6,0 °C 4,8 °C 33,8 km/h (5 Bft)
03.12.2018 22:36 8,4 °C 85 % 1007,2 hPa 0,0 mm 35,5 km/h (5 Bft) W 269 ° 0 min 0,000 mm 0,0 UV-I 0 W/m² 6,0 °C 4,1 °C 51,5 km/h (7 Bft)
03.12.2018 22:37 8,4 °C 85 % 1007,3 hPa 0,0 mm 25,7 km/h (4 Bft) W 270 ° 0 min 0,000 mm 0,0 UV-I 0 W/m² 6,0 °C 4,8 °C 33,8 km/h (5 Bft)
03.12.2018 22:38 8,4 °C 85 % 1007,3 hPa 0,0 mm 20,2 km/h (4 Bft) W 267 ° 0 min 0,000 mm 0,0 UV-I 0 W/m² 6,0 °C 5,3 °C 30,6 km/h (5 Bft)
03.12.2018 22:39 8,4 °C 85 % 1007,3 hPa 0,0 mm 23,7 km/h (4 Bft) W 273 ° 0 min 0,000 mm 0,0 UV-I 0 W/m² 6,0 °C 5,0 °C 38,6 km/h (5 Bft)
03.12.2018 22:40 8,4 °C 85 % 1007,3 hPa 0,0 mm 23,4 km/h (4 Bft) W-SW 256 ° 0 min 0,000 mm 0,0 UV-I 0 W/m² 6,0 °C 5,0 °C 32,2 km/h (5 Bft)
03.12.2018 22:41 8,4 °C 85 % 1007,3 hPa 0,0 mm 23,6 km/h (4 Bft) W-SW 257 ° 0 min 0,000 mm 0,0 UV-I 0 W/m² 6,0 °C 5,0 °C 33,8 km/h (5 Bft)
03.12.2018 22:42 8,4 °C 85 % 1007,4 hPa 0,0 mm 24,3 km/h (4 Bft) W 270 ° 0 min 0,000 mm 0,0 UV-I 0 W/m² 6,0 °C 4,9 °C 35,4 km/h (5 Bft)
03.12.2018 22:43 8,4 °C 85 % 1007,3 hPa 0,0 mm 23,3 km/h (4 Bft) W 276 ° 0 min 0,000 mm 0,0 UV-I 0 W/m² 6,0 °C 5,0 °C 32,2 km/h (5 Bft)
03.12.2018 22:44 8,3 °C 85 % 1007,3 hPa 0,0 mm 25,3 km/h (4 Bft) W-SW 257 ° 0 min 0,000 mm 0,0 UV-I 0 W/m² 5,9 °C 4,7 °C 32,2 km/h (5 Bft)
03.12.2018 22:45 8,4 °C 85 % 1007,3 hPa 0,0 mm 21,8 km/h (4 Bft) W-NW 288 ° 0 min 0,000 mm 0,0 UV-I 0 W/m² 6,0 °C 5,2 °C 33,8 km/h (5 Bft)
03.12.2018 22:46 8,3 °C 85 % 1007,3 hPa 0,0 mm 23,4 km/h (4 Bft) W-NW 300 ° 0 min 0,000 mm 0,0 UV-I 0 W/m² 5,9 °C 4,9 °C 35,4 km/h (5 Bft)
03.12.2018 22:47 8,3 °C 85 % 1007,5 hPa 0,0 mm 26,2 km/h (4 Bft) W 274 ° 0 min 0,000 mm 0,0 UV-I 0 W/m² 5,9 °C 4,7 °C 37,0 km/h (5 Bft)
03.12.2018 22:48 8,3 °C 85 % 1007,3 hPa 0,0 mm 24,6 km/h (4 Bft) W-SW 256 ° 0 min 0,000 mm 0,0 UV-I 0 W/m² 5,9 °C 4,8 °C 30,6 km/h (5 Bft)
03.12.2018 22:49 8,3 °C 85 % 1007,3 hPa 0,0 mm 23,0 km/h (4 Bft) W 271 ° 0 min 0,000 mm 0,0 UV-I 0 W/m² 5,9 °C 4,9 °C 32,2 km/h (5 Bft)
03.12.2018 22:50 8,3 °C 85 % 1007,4 hPa 0,0 mm 21,5 km/h (4 Bft) W 273 ° 0 min 0,000 mm 0,0 UV-I 0 W/m² 5,9 °C 5,1 °C 35,4 km/h (5 Bft)
03.12.2018 22:51 8,3 °C 85 % 1007,5 hPa 0,0 mm 22,4 km/h (4 Bft) W 267 ° 0 min 0,000 mm 0,0 UV-I 0 W/m² 5,9 °C 5,0 °C 32,2 km/h (5 Bft)
03.12.2018 22:52 8,3 °C 85 % 1007,5 hPa 0,0 mm 26,7 km/h (4 Bft) W 274 ° 0 min 0,000 mm 0,0 UV-I 0 W/m² 5,9 °C 4,6 °C 43,5 km/h (6 Bft)
03.12.2018 22:53 8,3 °C 85 % 1007,4 hPa 0,0 mm 28,5 km/h (4 Bft) S 174 ° 0 min 0,000 mm 0,0 UV-I 0 W/m² 5,9 °C 4,5 °C 41,8 km/h (6 Bft)
03.12.2018 22:54 8,3 °C 84 % 1007,5 hPa 0,0 mm 25,6 km/h (4 Bft) W-NW 286 ° 0 min 0,000 mm 0,0 UV-I 0 W/m² 5,8 °C 4,7 °C 35,4 km/h (5 Bft)
03.12.2018 22:55 8,3 °C 84 % 1007,5 hPa 0,0 mm 24,1 km/h (4 Bft) W-SW 256 ° 0 min 0,000 mm 0,0 UV-I 0 W/m² 5,8 °C 4,8 °C 32,2 km/h (5 Bft)
03.12.2018 22:56 8,3 °C 85 % 1007,6 hPa 0,0 mm 25,1 km/h (4 Bft) W 259 ° 0 min 0,000 mm 0,0 UV-I 0 W/m² 5,9 °C 4,7 °C 33,8 km/h (5 Bft)
03.12.2018 22:57 8,3 °C 85 % 1007,6 hPa 0,0 mm 16,9 km/h (3 Bft) W 268 ° 0 min 0,000 mm 0,0 UV-I 0 W/m² 5,9 °C 5,6 °C 30,6 km/h (5 Bft)
03.12.2018 22:58 8,3 °C 85 % 1007,6 hPa 0,0 mm 23,3 km/h (4 Bft) W-SW 253 ° 0 min 0,000 mm 0,0 UV-I 0 W/m² 5,9 °C 4,9 °C 38,6 km/h (5 Bft)
03.12.2018 22:59 8,3 °C 84 % 1007,7 hPa 0,0 mm 28,2 km/h (4 Bft) W 276 ° 0 min 0,000 mm 0,0 UV-I 0 W/m² 5,8 °C 4,5 °C 38,6 km/h (5 Bft)
03.12.2018 23:00 8,3 °C 84 % 1007,6 hPa 0,0 mm 24,9 km/h (4 Bft) W-SW 246 ° 0 min 0,000 mm 0,0 UV-I 0 W/m² 5,8 °C 4,8 °C 38,6 km/h (5 Bft)
03.12.2018 23:01 8,3 °C 84 % 1007,9 hPa 0,0 mm 35,9 km/h (5 Bft) W 264 ° 0 min 0,025 mm 0,0 UV-I 0 W/m² 5,8 °C 4,0 °C 48,3 km/h (6 Bft)
03.12.2018 23:02 8,3 °C 84 % 1007,7 hPa 0,0 mm 26,2 km/h (4 Bft) W 274 ° 0 min 0,000 mm 0,0 UV-I 0 W/m² 5,8 °C 4,7 °C 33,8 km/h (5 Bft)
03.12.2018 23:03 8,3 °C 84 % 1007,9 hPa 0,0 mm 23,2 km/h (4 Bft) W 281 ° 0 min 0,000 mm 0,0 UV-I 0 W/m² 5,8 °C 4,9 °C 32,2 km/h (5 Bft)
03.12.2018 23:04 8,3 °C 84 % 1007,9 hPa 0,0 mm 26,8 km/h (4 Bft) W-SW 243 ° 0 min 0,000 mm 0,0 UV-I 0 W/m² 5,8 °C 4,6 °C 37,0 km/h (5 Bft)
03.12.2018 23:05 8,3 °C 84 % 1007,9 hPa 0,0 mm 22,1 km/h (4 Bft) W-SW 252 ° 0 min 0,000 mm 0,0 UV-I 0 W/m² 5,8 °C 5,0 °C 46,7 km/h (6 Bft)
03.12.2018 23:06 8,3 °C 84 % 1007,9 hPa 0,0 mm 27,9 km/h (4 Bft) W 275 ° 0 min 0,000 mm 0,0 UV-I 0 W/m² 5,8 °C 4,5 °C 35,4 km/h (5 Bft)
03.12.2018 23:07 8,3 °C 84 % 1008,1 hPa 0,0 mm 30,0 km/h (5 Bft) W-SW 255 ° 0 min 0,000 mm 0,0 UV-I 0 W/m² 5,8 °C 4,4 °C 43,5 km/h (6 Bft)
03.12.2018 23:08 8,3 °C 84 % 1007,9 hPa 0,0 mm 26,1 km/h (4 Bft) NW 311 ° 0 min 0,000 mm 0,0 UV-I 0 W/m² 5,8 °C 4,7 °C 40,2 km/h (6 Bft)
03.12.2018 23:09 8,3 °C 84 % 1008,0 hPa 0,0 mm 18,5 km/h (3 Bft) W 261 ° 0 min 0,000 mm 0,0 UV-I 0 W/m² 5,8 °C 5,4 °C 29,0 km/h (5 Bft)
03.12.2018 23:10 8,3 °C 84 % 1008,0 hPa 0,0 mm 26,4 km/h (4 Bft) W 262 ° 0 min 0,000 mm 0,0 UV-I 0 W/m² 5,8 °C 4,6 °C 38,6 km/h (5 Bft)
03.12.2018 23:11 8,3 °C 84 % 1008,1 hPa 0,0 mm 22,7 km/h (4 Bft) W 268 ° 0 min 0,000 mm 0,0 UV-I 0 W/m² 5,8 °C 5,0 °C 40,2 km/h (6 Bft)
03.12.2018 23:12 8,3 °C 84 % 1008,1 hPa 0,0 mm 23,6 km/h (4 Bft) W-SW 238 ° 0 min 0,000 mm 0,0 UV-I 0 W/m² 5,8 °C 4,9 °C 38,6 km/h (5 Bft)
03.12.2018 23:13 8,3 °C 84 % 1008,1 hPa 0,0 mm 20,3 km/h (4 Bft) W 269 ° 0 min 0,000 mm 0,0 UV-I 0 W/m² 5,8 °C 5,2 °C 41,8 km/h (6 Bft)
03.12.2018 23:14 8,3 °C 83 % 1008,1 hPa 0,0 mm 22,9 km/h (4 Bft) W-NW 293 ° 0 min 0,000 mm 0,0 UV-I 0 W/m² 5,6 °C 4,9 °C 33,8 km/h (5 Bft)
03.12.2018 23:15 8,3 °C 83 % 1008,2 hPa 0,0 mm 26,8 km/h (4 Bft) W 273 ° 0 min 0,000 mm 0,0 UV-I 0 W/m² 5,6 °C 4,6 °C 45,1 km/h (6 Bft)
03.12.2018 23:16 8,3 °C 83 % 1008,3 hPa 0,0 mm 34,8 km/h (5 Bft) W 271 ° 0 min 0,000 mm 0,0 UV-I 0 W/m² 5,6 °C 4,0 °C 41,8 km/h (6 Bft)
03.12.2018 23:17 8,3 °C 83 % 1008,2 hPa 0,0 mm 21,6 km/h (4 Bft) W 275 ° 0 min 0,000 mm 0,0 UV-I 0 W/m² 5,6 °C 5,1 °C 30,6 km/h (5 Bft)
03.12.2018 23:18 8,3 °C 83 % 1008,2 hPa 0,0 mm 20,4 km/h (4 Bft) W 275 ° 0 min 0,000 mm 0,0 UV-I 0 W/m² 5,6 °C 5,2 °C 27,4 km/h (4 Bft)
03.12.2018 23:19 8,3 °C 83 % 1008,2 hPa 0,0 mm 25,4 km/h (4 Bft) W 267 ° 0 min 0,000 mm 0,0 UV-I 0 W/m² 5,6 °C 4,7 °C 40,2 km/h (6 Bft)
03.12.2018 23:20 8,3 °C 82 % 1008,3 hPa 0,0 mm 23,1 km/h (4 Bft) W-SW 248 ° 0 min 0,000 mm 0,0 UV-I 0 W/m² 5,4 °C 4,9 °C 38,6 km/h (5 Bft)
03.12.2018 23:21 8,3 °C 82 % 1008,3 hPa 0,0 mm 19,6 km/h (3 Bft) W-SW 257 ° 0 min 0,000 mm 0,0 UV-I 0 W/m² 5,4 °C 5,3 °C 30,6 km/h (5 Bft)
03.12.2018 23:22 8,3 °C 82 % 1008,3 hPa 0,0 mm 31,2 km/h (5 Bft) W-SW 249 ° 0 min 0,000 mm 0,0 UV-I 0 W/m² 5,4 °C 4,3 °C 41,8 km/h (6 Bft)
03.12.2018 23:23 8,4 °C 82 % 1008,3 hPa 0,0 mm 28,2 km/h (4 Bft) W-SW 254 ° 0 min 0,000 mm 0,0 UV-I 0 W/m² 5,5 °C 4,6 °C 45,1 km/h (6 Bft)
03.12.2018 23:24 8,3 °C 82 % 1008,2 hPa 0,0 mm 25,0 km/h (4 Bft) W-NW 282 ° 0 min 0,000 mm 0,0 UV-I 0 W/m² 5,4 °C 4,8 °C 32,2 km/h (5 Bft)
03.12.2018 23:25 8,4 °C 82 % 1008,3 hPa 0,0 mm 18,9 km/h (3 Bft) W-NW 294 ° 0 min 0,000 mm 0,0 UV-I 0 W/m² 5,5 °C 5,5 °C 25,7 km/h (4 Bft)
03.12.2018 23:26 8,4 °C 82 % 1008,4 hPa 0,0 mm 26,1 km/h (4 Bft) W 261 ° 0 min 0,000 mm 0,0 UV-I 0 W/m² 5,5 °C 4,8 °C 35,4 km/h (5 Bft)
03.12.2018 23:27 8,4 °C 82 % 1008,4 hPa 0,2 mm 19,6 km/h (3 Bft) W-NW 284 ° 0 min 0,000 mm 0,0 UV-I 0 W/m² 5,5 °C 5,4 °C 32,2 km/h (5 Bft)
03.12.2018 23:28 8,4 °C 81 % 1008,4 hPa 0,0 mm 26,9 km/h (4 Bft) W 263 ° 0 min 0,000 mm 0,0 UV-I 0 W/m² 5,3 °C 4,7 °C 35,4 km/h (5 Bft)
03.12.2018 23:29 8,4 °C 81 % 1008,4 hPa 0,0 mm 26,4 km/h (4 Bft) W 265 ° 0 min 0,000 mm 0,0 UV-I 0 W/m² 5,3 °C 4,8 °C 40,2 km/h (6 Bft)
03.12.2018 23:30 8,4 °C 81 % 1008,4 hPa 0,0 mm 22,5 km/h (4 Bft) NW 315 ° 0 min 0,000 mm 0,0 UV-I 0 W/m² 5,3 °C 5,1 °C 32,2 km/h (5 Bft)
03.12.2018 23:31 8,4 °C 80 % 1008,5 hPa 0,0 mm 24,5 km/h (4 Bft) W-SW 246 ° 0 min 0,000 mm 0,0 UV-I 0 W/m² 5,2 °C 4,9 °C 40,2 km/h (6 Bft)
03.12.2018 23:32 8,4 °C 80 % 1008,5 hPa 0,0 mm 16,1 km/h (3 Bft) W-SW 244 ° 0 min 0,000 mm 0,0 UV-I 0 W/m² 5,2 °C 5,8 °C 32,2 km/h (5 Bft)
03.12.2018 23:33 8,4 °C 80 % 1008,5 hPa 0,0 mm 16,8 km/h (3 Bft) W-NW 283 ° 0 min 0,000 mm 0,0 UV-I 0 W/m² 5,2 °C 5,7 °C 22,5 km/h (4 Bft)
03.12.2018 23:34 8,4 °C 80 % 1008,5 hPa 0,0 mm 19,0 km/h (3 Bft) W-SW 250 ° 0 min 0,000 mm 0,0 UV-I 0 W/m² 5,2 °C 5,5 °C 35,4 km/h (5 Bft)
03.12.2018 23:35 8,4 °C 80 % 1008,4 hPa 0,0 mm 20,7 km/h (4 Bft) W 279 ° 0 min 0,000 mm 0,0 UV-I 0 W/m² 5,2 °C 5,3 °C 27,4 km/h (4 Bft)
03.12.2018 23:36 8,4 °C 79 % 1008,4 hPa 0,0 mm 21,7 km/h (4 Bft) W-SW 242 ° 0 min 0,000 mm 0,0 UV-I 0 W/m² 5,0 °C 5,2 °C 32,2 km/h (5 Bft)
03.12.2018 23:37 8,4 °C 79 % 1008,6 hPa 0,0 mm 26,4 km/h (4 Bft) W 268 ° 0 min 0,000 mm 0,0 UV-I 0 W/m² 5,0 °C 4,8 °C 37,0 km/h (5 Bft)
03.12.2018 23:38 8,5 °C 78 % 1008,5 hPa 0,0 mm 24,4 km/h (4 Bft) W 259 ° 0 min 0,000 mm 0,0 UV-I 0 W/m² 4,9 °C 5,1 °C 35,4 km/h (5 Bft)
03.12.2018 23:39 8,6 °C 78 % 1008,6 hPa 0,0 mm 30,2 km/h (5 Bft) W-NW 303 ° 0 min 0,000 mm 0,0 UV-I 0 W/m² 5,0 °C 4,7 °C 51,5 km/h (7 Bft)
03.12.2018 23:40 8,6 °C 78 % 1008,6 hPa 0,0 mm 20,6 km/h (4 Bft) W-NW 284 ° 0 min 0,000 mm 0,0 UV-I 0 W/m² 5,0 °C 5,5 °C 35,4 km/h (5 Bft)
03.12.2018 23:41 8,6 °C 78 % 1008,5 hPa 0,0 mm 25,7 km/h (4 Bft) W-SW 253 ° 0 min 0,000 mm 0,0 UV-I 0 W/m² 5,0 °C 5,1 °C 46,7 km/h (6 Bft)
03.12.2018 23:42 8,6 °C 78 % 1008,7 hPa 0,0 mm 30,0 km/h (5 Bft) W-SW 242 ° 0 min 0,000 mm 0,0 UV-I 0 W/m² 5,0 °C 4,7 °C 45,1 km/h (6 Bft)
03.12.2018 23:43 8,7 °C 78 % 1008,7 hPa 0,0 mm 25,1 km/h (4 Bft) W 261 ° 0 min 0,000 mm 0,0 UV-I 0 W/m² 5,1 °C 5,3 °C 37,0 km/h (5 Bft)
03.12.2018 23:44 8,7 °C 77 % 1008,7 hPa 0,0 mm 20,0 km/h (4 Bft) W 259 ° 0 min 0,000 mm 0,0 UV-I 0 W/m² 4,9 °C 5,7 °C 29,0 km/h (5 Bft)
03.12.2018 23:45 8,7 °C 78 % 1008,6 hPa 0,0 mm 24,5 km/h (4 Bft) W-SW 251 ° 0 min 0,000 mm 0,0 UV-I 0 W/m² 5,1 °C 5,3 °C 38,6 km/h (5 Bft)
03.12.2018 23:46 8,7 °C 77 % 1008,6 hPa 0,0 mm 26,8 km/h (4 Bft) W 267 ° 0 min 0,000 mm 0,0 UV-I 0 W/m² 4,9 °C 5,1 °C 43,5 km/h (6 Bft)
03.12.2018 23:47 8,7 °C 77 % 1008,7 hPa 0,0 mm 27,1 km/h (4 Bft) W-NW 286 ° 0 min 0,000 mm 0,0 UV-I 0 W/m² 4,9 °C 5,1 °C 41,8 km/h (6 Bft)
03.12.2018 23:48 8,8 °C 76 % 1008,7 hPa 0,0 mm 26,8 km/h (4 Bft) W 265 ° 0 min 0,000 mm 0,0 UV-I 0 W/m² 4,8 °C 5,3 °C 37,0 km/h (5 Bft)
03.12.2018 23:49 8,8 °C 76 % 1008,7 hPa 0,0 mm 22,9 km/h (4 Bft) W-NW 291 ° 0 min 0,000 mm 0,0 UV-I 0 W/m² 4,8 °C 5,6 °C 29,0 km/h (5 Bft)
03.12.2018 23:50 8,8 °C 76 % 1008,8 hPa 0,0 mm 18,0 km/h (3 Bft) W 269 ° 0 min 0,000 mm 0,0 UV-I 0 W/m² 4,8 °C 6,1 °C 33,8 km/h (5 Bft)
03.12.2018 23:51 8,8 °C 76 % 1008,7 hPa 0,0 mm 26,1 km/h (4 Bft) W 275 ° 0 min 0,000 mm 0,0 UV-I 0 W/m² 4,8 °C 5,3 °C 40,2 km/h (6 Bft)
03.12.2018 23:52 8,8 °C 76 % 1008,7 hPa 0,0 mm 23,8 km/h (4 Bft) W-NW 297 ° 0 min 0,000 mm 0,0 UV-I 0 W/m² 4,8 °C 5,5 °C 32,2 km/h (5 Bft)
03.12.2018 23:53 8,8 °C 76 % 1008,8 hPa 0,0 mm 22,1 km/h (4 Bft) W 275 ° 0 min 0,000 mm 0,0 UV-I 0 W/m² 4,8 °C 5,7 °C 35,4 km/h (5 Bft)
03.12.2018 23:54 8,8 °C 76 % 1008,8 hPa 0,0 mm 21,7 km/h (4 Bft) SW 236 ° 0 min 0,000 mm 0,0 UV-I 0 W/m² 4,8 °C 5,7 °C 27,4 km/h (4 Bft)
03.12.2018 23:55 8,9 °C 76 % 1008,9 hPa 0,0 mm 20,1 km/h (4 Bft) W 263 ° 0 min 0,000 mm 0,0 UV-I 0 W/m² 4,9 °C 6,0 °C 27,4 km/h (4 Bft)
03.12.2018 23:56 8,9 °C 76 % 1009,0 hPa 0,0 mm 25,2 km/h (4 Bft) W-NW 292 ° 0 min 0,000 mm 0,0 UV-I 0 W/m² 4,9 °C 5,5 °C 35,4 km/h (5 Bft)
03.12.2018 23:57 8,9 °C 76 % 1008,9 hPa 0,0 mm 25,3 km/h (4 Bft) W-SW 257 ° 0 min 0,000 mm 0,0 UV-I 0 W/m² 4,9 °C 5,5 °C 41,8 km/h (6 Bft)
03.12.2018 23:58 8,9 °C 76 % 1009,0 hPa 0,0 mm 25,4 km/h (4 Bft) W 264 ° 0 min 0,000 mm 0,0 UV-I 0 W/m² 4,9 °C 5,5 °C 40,2 km/h (6 Bft)
03.12.2018 23:59 8,9 °C 76 % 1009,0 hPa 0,0 mm 17,3 km/h (3 Bft) W-SW 257 ° 0 min 0,000 mm 0,0 UV-I 0 W/m² 4,9 °C 6,3 °C 22,5 km/h (4 Bft)
_ Min-Zeit 02:48 20:09 20:19 - 20:24 - - - - - - 23:54 23:01 20:24
Minimum _ 7,8 °C 67 % 1004,6 hPa - 0,0 km/h (0 Bft) - - - - - - 4,8 °C 4,0 °C 0,0 km/h (0 Bft)
_ Max-Zeit 13:19 00:09 00:18 23:27 23:01 - - 23:59 13:01 12:15 12:12 13:13 13:19 22:21
Maximum _ 12,9 °C 93 % 1009,7 hPa 0,2 mm 35,9 km/h
W (5 Bft)
- - 0 min 0,102 mm 1,2 UV-I 204 W/m² 8,8 °C 12,9 °C 57,9 km/h
W (7 Bft)
Durchschnitt _ 10,0 °C 82 % 1007,7 hPa #8,0 mm 10,2 km/h (2 Bft) W - #0 min. #0,762 mm 0,9 UV-I 26 W/m² 7,0 °C 9,2 °C 16,0 km/h (3 Bft)